<?xml version="1.0" encoding="UTF-8" standalone="no" ?>
<gpx xmlns="http://www.topografix.com/GPX/1/1" xmlns:xsi="http://www.w3.org/2001/XMLSchema-instance" xsi:schemaLocation="http://www.topografix.com/GPX/1/1 http://www.topografix.com/GPX/1/1/gpx.xsd" version="1.1" creator="VisuGPX - https://www.visugpx.com">
  <metadata>
    <name>Florac</name>
    <desc><![CDATA[belle balade sur le rebord Est du causse méjan.
encore une trouvaille de Randonnée Cévenole...
]]></desc>
  </metadata>
  <trk>
    <name><![CDATA[10-MAI-15 18:22:47]]></name>
    <trkseg>
      <trkpt lat="44.32119" lon="3.59789">
        <ele>562.99</ele>
        <time>2015-05-10T10:13:53Z</time>
      </trkpt>
      <trkpt lat="44.32119" lon="3.59792">
        <ele>562.99</ele>
        <time>2015-05-10T10:14:17Z</time>
      </trkpt>
      <trkpt lat="44.3212" lon="3.59794">
        <ele>562.99</ele>
        <time>2015-05-10T10:14:43Z</time>
      </trkpt>
      <trkpt lat="44.32119" lon="3.59797">
        <ele>562.99</ele>
        <time>2015-05-10T10:15:17Z</time>
      </trkpt>
      <trkpt lat="44.32117" lon="3.59799">
        <ele>562.51</ele>
        <time>2015-05-10T10:15:51Z</time>
      </trkpt>
      <trkpt lat="44.32117" lon="3.59798">
        <ele>562.51</ele>
        <time>2015-05-10T10:16:19Z</time>
      </trkpt>
      <trkpt lat="44.32117" lon="3.59796">
        <ele>562.03</ele>
        <time>2015-05-10T10:16:31Z</time>
      </trkpt>
      <trkpt lat="44.32117" lon="3.59796">
        <ele>562.51</ele>
        <time>2015-05-10T10:16:48Z</time>
      </trkpt>
      <trkpt lat="44.32116" lon="3.59796">
        <ele>562.03</ele>
        <time>2015-05-10T10:16:58Z</time>
      </trkpt>
      <trkpt lat="44.32116" lon="3.59796">
        <ele>562.03</ele>
        <time>2015-05-10T10:17:12Z</time>
      </trkpt>
      <trkpt lat="44.32111" lon="3.59791">
        <ele>562.03</ele>
        <time>2015-05-10T10:17:24Z</time>
      </trkpt>
      <trkpt lat="44.32094" lon="3.59786">
        <ele>562.03</ele>
        <time>2015-05-10T10:17:41Z</time>
      </trkpt>
      <trkpt lat="44.32091" lon="3.59778">
        <ele>562.03</ele>
        <time>2015-05-10T10:17:46Z</time>
      </trkpt>
      <trkpt lat="44.32086" lon="3.59758">
        <ele>562.03</ele>
        <time>2015-05-10T10:17:56Z</time>
      </trkpt>
      <trkpt lat="44.32083" lon="3.59749">
        <ele>562.03</ele>
        <time>2015-05-10T10:18:02Z</time>
      </trkpt>
      <trkpt lat="44.32083" lon="3.59738">
        <ele>562.51</ele>
        <time>2015-05-10T10:18:07Z</time>
      </trkpt>
      <trkpt lat="44.32081" lon="3.59719">
        <ele>562.51</ele>
        <time>2015-05-10T10:18:19Z</time>
      </trkpt>
      <trkpt lat="44.32088" lon="3.5969">
        <ele>562.03</ele>
        <time>2015-05-10T10:18:33Z</time>
      </trkpt>
      <trkpt lat="44.32096" lon="3.59677">
        <ele>562.03</ele>
        <time>2015-05-10T10:18:40Z</time>
      </trkpt>
      <trkpt lat="44.32105" lon="3.5967">
        <ele>562.03</ele>
        <time>2015-05-10T10:18:49Z</time>
      </trkpt>
      <trkpt lat="44.3211" lon="3.5966">
        <ele>562.03</ele>
        <time>2015-05-10T10:18:55Z</time>
      </trkpt>
      <trkpt lat="44.32122" lon="3.59649">
        <ele>562.03</ele>
        <time>2015-05-10T10:19:05Z</time>
      </trkpt>
      <trkpt lat="44.32125" lon="3.59642">
        <ele>562.03</ele>
        <time>2015-05-10T10:19:12Z</time>
      </trkpt>
      <trkpt lat="44.3213" lon="3.59638">
        <ele>562.03</ele>
        <time>2015-05-10T10:19:16Z</time>
      </trkpt>
      <trkpt lat="44.32139" lon="3.59626">
        <ele>562.03</ele>
        <time>2015-05-10T10:19:28Z</time>
      </trkpt>
      <trkpt lat="44.32144" lon="3.59619">
        <ele>562.03</ele>
        <time>2015-05-10T10:19:35Z</time>
      </trkpt>
      <trkpt lat="44.32146" lon="3.59617">
        <ele>562.03</ele>
        <time>2015-05-10T10:19:37Z</time>
      </trkpt>
      <trkpt lat="44.32163" lon="3.59605">
        <ele>562.03</ele>
        <time>2015-05-10T10:19:50Z</time>
      </trkpt>
      <trkpt lat="44.32172" lon="3.59599">
        <ele>562.03</ele>
        <time>2015-05-10T10:19:55Z</time>
      </trkpt>
      <trkpt lat="44.32182" lon="3.59588">
        <ele>562.03</ele>
        <time>2015-05-10T10:20:06Z</time>
      </trkpt>
      <trkpt lat="44.32201" lon="3.59582">
        <ele>561.55</ele>
        <time>2015-05-10T10:20:20Z</time>
      </trkpt>
      <trkpt lat="44.32205" lon="3.59581">
        <ele>561.55</ele>
        <time>2015-05-10T10:20:27Z</time>
      </trkpt>
      <trkpt lat="44.32207" lon="3.59573">
        <ele>561.55</ele>
        <time>2015-05-10T10:20:33Z</time>
      </trkpt>
      <trkpt lat="44.32227" lon="3.59555">
        <ele>561.07</ele>
        <time>2015-05-10T10:20:50Z</time>
      </trkpt>
      <trkpt lat="44.32236" lon="3.59548">
        <ele>561.07</ele>
        <time>2015-05-10T10:20:59Z</time>
      </trkpt>
      <trkpt lat="44.3225" lon="3.59536">
        <ele>561.07</ele>
        <time>2015-05-10T10:21:13Z</time>
      </trkpt>
      <trkpt lat="44.32252" lon="3.59535">
        <ele>561.07</ele>
        <time>2015-05-10T10:21:14Z</time>
      </trkpt>
      <trkpt lat="44.32267" lon="3.59523">
        <ele>561.07</ele>
        <time>2015-05-10T10:21:26Z</time>
      </trkpt>
      <trkpt lat="44.32282" lon="3.59506">
        <ele>562.03</ele>
        <time>2015-05-10T10:21:40Z</time>
      </trkpt>
      <trkpt lat="44.32304" lon="3.5949">
        <ele>562.03</ele>
        <time>2015-05-10T10:22:01Z</time>
      </trkpt>
      <trkpt lat="44.32321" lon="3.59482">
        <ele>562.99</ele>
        <time>2015-05-10T10:22:15Z</time>
      </trkpt>
      <trkpt lat="44.32322" lon="3.59477">
        <ele>562.99</ele>
        <time>2015-05-10T10:22:31Z</time>
      </trkpt>
      <trkpt lat="44.32322" lon="3.59476">
        <ele>563.47</ele>
        <time>2015-05-10T10:22:51Z</time>
      </trkpt>
      <trkpt lat="44.32322" lon="3.59475">
        <ele>562.99</ele>
        <time>2015-05-10T10:22:54Z</time>
      </trkpt>
      <trkpt lat="44.32321" lon="3.59474">
        <ele>563.47</ele>
        <time>2015-05-10T10:22:56Z</time>
      </trkpt>
      <trkpt lat="44.32312" lon="3.59447">
        <ele>565.87</ele>
        <time>2015-05-10T10:23:14Z</time>
      </trkpt>
      <trkpt lat="44.32313" lon="3.59442">
        <ele>566.35</ele>
        <time>2015-05-10T10:23:17Z</time>
      </trkpt>
      <trkpt lat="44.32321" lon="3.59431">
        <ele>566.35</ele>
        <time>2015-05-10T10:23:24Z</time>
      </trkpt>
      <trkpt lat="44.32338" lon="3.59418">
        <ele>565.87</ele>
        <time>2015-05-10T10:23:37Z</time>
      </trkpt>
      <trkpt lat="44.32362" lon="3.59402">
        <ele>564.43</ele>
        <time>2015-05-10T10:23:56Z</time>
      </trkpt>
      <trkpt lat="44.32369" lon="3.59407">
        <ele>563.95</ele>
        <time>2015-05-10T10:24:04Z</time>
      </trkpt>
      <trkpt lat="44.32386" lon="3.59414">
        <ele>563.95</ele>
        <time>2015-05-10T10:24:18Z</time>
      </trkpt>
      <trkpt lat="44.32394" lon="3.59417">
        <ele>563.47</ele>
        <time>2015-05-10T10:24:24Z</time>
      </trkpt>
      <trkpt lat="44.32403" lon="3.59411">
        <ele>563.47</ele>
        <time>2015-05-10T10:24:39Z</time>
      </trkpt>
      <trkpt lat="44.32403" lon="3.59407">
        <ele>563.47</ele>
        <time>2015-05-10T10:24:54Z</time>
      </trkpt>
      <trkpt lat="44.32404" lon="3.594">
        <ele>562.99</ele>
        <time>2015-05-10T10:25:07Z</time>
      </trkpt>
      <trkpt lat="44.32427" lon="3.59371">
        <ele>563.95</ele>
        <time>2015-05-10T10:25:25Z</time>
      </trkpt>
      <trkpt lat="44.32466" lon="3.59343">
        <ele>563.95</ele>
        <time>2015-05-10T10:25:44Z</time>
      </trkpt>
      <trkpt lat="44.32475" lon="3.59336">
        <ele>562.99</ele>
        <time>2015-05-10T10:25:53Z</time>
      </trkpt>
      <trkpt lat="44.32494" lon="3.5932">
        <ele>562.51</ele>
        <time>2015-05-10T10:26:05Z</time>
      </trkpt>
      <trkpt lat="44.32496" lon="3.59316">
        <ele>562.03</ele>
        <time>2015-05-10T10:26:09Z</time>
      </trkpt>
      <trkpt lat="44.3251" lon="3.59287">
        <ele>562.51</ele>
        <time>2015-05-10T10:26:29Z</time>
      </trkpt>
      <trkpt lat="44.32518" lon="3.59264">
        <ele>562.99</ele>
        <time>2015-05-10T10:26:43Z</time>
      </trkpt>
      <trkpt lat="44.32534" lon="3.59254">
        <ele>563.47</ele>
        <time>2015-05-10T10:26:57Z</time>
      </trkpt>
      <trkpt lat="44.32548" lon="3.59248">
        <ele>563.47</ele>
        <time>2015-05-10T10:27:07Z</time>
      </trkpt>
      <trkpt lat="44.32554" lon="3.59246">
        <ele>562.99</ele>
        <time>2015-05-10T10:27:11Z</time>
      </trkpt>
      <trkpt lat="44.32582" lon="3.59231">
        <ele>562.03</ele>
        <time>2015-05-10T10:27:32Z</time>
      </trkpt>
      <trkpt lat="44.32606" lon="3.59226">
        <ele>561.07</ele>
        <time>2015-05-10T10:27:53Z</time>
      </trkpt>
      <trkpt lat="44.32636" lon="3.59233">
        <ele>560.59</ele>
        <time>2015-05-10T10:28:12Z</time>
      </trkpt>
      <trkpt lat="44.32662" lon="3.59227">
        <ele>559.62</ele>
        <time>2015-05-10T10:28:30Z</time>
      </trkpt>
      <trkpt lat="44.32672" lon="3.59223">
        <ele>559.62</ele>
        <time>2015-05-10T10:28:37Z</time>
      </trkpt>
      <trkpt lat="44.32689" lon="3.59213">
        <ele>559.62</ele>
        <time>2015-05-10T10:28:49Z</time>
      </trkpt>
      <trkpt lat="44.32692" lon="3.59209">
        <ele>559.62</ele>
        <time>2015-05-10T10:28:52Z</time>
      </trkpt>
      <trkpt lat="44.32719" lon="3.5921">
        <ele>559.14</ele>
        <time>2015-05-10T10:29:09Z</time>
      </trkpt>
      <trkpt lat="44.32735" lon="3.592">
        <ele>558.66</ele>
        <time>2015-05-10T10:29:22Z</time>
      </trkpt>
      <trkpt lat="44.32752" lon="3.59185">
        <ele>558.66</ele>
        <time>2015-05-10T10:29:37Z</time>
      </trkpt>
      <trkpt lat="44.32765" lon="3.59165">
        <ele>558.18</ele>
        <time>2015-05-10T10:29:53Z</time>
      </trkpt>
      <trkpt lat="44.32772" lon="3.59159">
        <ele>557.7</ele>
        <time>2015-05-10T10:29:59Z</time>
      </trkpt>
      <trkpt lat="44.32792" lon="3.59139">
        <ele>557.22</ele>
        <time>2015-05-10T10:30:15Z</time>
      </trkpt>
      <trkpt lat="44.32813" lon="3.59134">
        <ele>556.74</ele>
        <time>2015-05-10T10:30:28Z</time>
      </trkpt>
      <trkpt lat="44.32816" lon="3.59133">
        <ele>556.74</ele>
        <time>2015-05-10T10:30:31Z</time>
      </trkpt>
      <trkpt lat="44.32827" lon="3.59125">
        <ele>555.78</ele>
        <time>2015-05-10T10:30:42Z</time>
      </trkpt>
      <trkpt lat="44.32844" lon="3.59105">
        <ele>556.26</ele>
        <time>2015-05-10T10:30:59Z</time>
      </trkpt>
      <trkpt lat="44.32846" lon="3.59099">
        <ele>556.74</ele>
        <time>2015-05-10T10:31:03Z</time>
      </trkpt>
      <trkpt lat="44.32848" lon="3.59081">
        <ele>557.22</ele>
        <time>2015-05-10T10:31:16Z</time>
      </trkpt>
      <trkpt lat="44.32841" lon="3.59069">
        <ele>557.22</ele>
        <time>2015-05-10T10:31:25Z</time>
      </trkpt>
      <trkpt lat="44.32838" lon="3.59064">
        <ele>557.7</ele>
        <time>2015-05-10T10:31:28Z</time>
      </trkpt>
      <trkpt lat="44.32827" lon="3.5905">
        <ele>557.7</ele>
        <time>2015-05-10T10:31:36Z</time>
      </trkpt>
      <trkpt lat="44.32814" lon="3.59034">
        <ele>558.18</ele>
        <time>2015-05-10T10:31:50Z</time>
      </trkpt>
      <trkpt lat="44.32804" lon="3.59022">
        <ele>558.66</ele>
        <time>2015-05-10T10:31:58Z</time>
      </trkpt>
      <trkpt lat="44.32794" lon="3.5901">
        <ele>559.62</ele>
        <time>2015-05-10T10:32:11Z</time>
      </trkpt>
      <trkpt lat="44.32789" lon="3.58988">
        <ele>560.59</ele>
        <time>2015-05-10T10:32:23Z</time>
      </trkpt>
      <trkpt lat="44.328" lon="3.5896">
        <ele>561.07</ele>
        <time>2015-05-10T10:32:39Z</time>
      </trkpt>
      <trkpt lat="44.32812" lon="3.58937">
        <ele>561.55</ele>
        <time>2015-05-10T10:32:54Z</time>
      </trkpt>
      <trkpt lat="44.32821" lon="3.58916">
        <ele>562.03</ele>
        <time>2015-05-10T10:33:08Z</time>
      </trkpt>
      <trkpt lat="44.32833" lon="3.58888">
        <ele>562.99</ele>
        <time>2015-05-10T10:33:26Z</time>
      </trkpt>
      <trkpt lat="44.32845" lon="3.58865">
        <ele>564.43</ele>
        <time>2015-05-10T10:33:41Z</time>
      </trkpt>
      <trkpt lat="44.32857" lon="3.58838">
        <ele>565.39</ele>
        <time>2015-05-10T10:33:57Z</time>
      </trkpt>
      <trkpt lat="44.32869" lon="3.5882">
        <ele>567.32</ele>
        <time>2015-05-10T10:34:11Z</time>
      </trkpt>
      <trkpt lat="44.32882" lon="3.58798">
        <ele>568.28</ele>
        <time>2015-05-10T10:34:26Z</time>
      </trkpt>
      <trkpt lat="44.32889" lon="3.58776">
        <ele>569.72</ele>
        <time>2015-05-10T10:34:40Z</time>
      </trkpt>
      <trkpt lat="44.32899" lon="3.58759">
        <ele>571.16</ele>
        <time>2015-05-10T10:34:53Z</time>
      </trkpt>
      <trkpt lat="44.32901" lon="3.58755">
        <ele>571.16</ele>
        <time>2015-05-10T10:34:55Z</time>
      </trkpt>
      <trkpt lat="44.32908" lon="3.58741">
        <ele>572.6</ele>
        <time>2015-05-10T10:35:05Z</time>
      </trkpt>
      <trkpt lat="44.3291" lon="3.58739">
        <ele>572.6</ele>
        <time>2015-05-10T10:35:07Z</time>
      </trkpt>
      <trkpt lat="44.32923" lon="3.58722">
        <ele>574.04</ele>
        <time>2015-05-10T10:35:21Z</time>
      </trkpt>
      <trkpt lat="44.32924" lon="3.58721">
        <ele>574.04</ele>
        <time>2015-05-10T10:35:22Z</time>
      </trkpt>
      <trkpt lat="44.32938" lon="3.58695">
        <ele>574.53</ele>
        <time>2015-05-10T10:35:39Z</time>
      </trkpt>
      <trkpt lat="44.32953" lon="3.58678">
        <ele>575.01</ele>
        <time>2015-05-10T10:35:54Z</time>
      </trkpt>
      <trkpt lat="44.32967" lon="3.58663">
        <ele>575.49</ele>
        <time>2015-05-10T10:36:09Z</time>
      </trkpt>
      <trkpt lat="44.32968" lon="3.58657">
        <ele>575.97</ele>
        <time>2015-05-10T10:36:14Z</time>
      </trkpt>
      <trkpt lat="44.32959" lon="3.58641">
        <ele>578.85</ele>
        <time>2015-05-10T10:36:28Z</time>
      </trkpt>
      <trkpt lat="44.32952" lon="3.58627">
        <ele>581.25</ele>
        <time>2015-05-10T10:36:42Z</time>
      </trkpt>
      <trkpt lat="44.32951" lon="3.58624">
        <ele>581.73</ele>
        <time>2015-05-10T10:36:45Z</time>
      </trkpt>
      <trkpt lat="44.32946" lon="3.58615">
        <ele>583.18</ele>
        <time>2015-05-10T10:36:54Z</time>
      </trkpt>
      <trkpt lat="44.32945" lon="3.58606">
        <ele>584.14</ele>
        <time>2015-05-10T10:37:00Z</time>
      </trkpt>
      <trkpt lat="44.32944" lon="3.58597">
        <ele>585.58</ele>
        <time>2015-05-10T10:37:07Z</time>
      </trkpt>
      <trkpt lat="44.32944" lon="3.58592">
        <ele>586.06</ele>
        <time>2015-05-10T10:37:11Z</time>
      </trkpt>
      <trkpt lat="44.32952" lon="3.58566">
        <ele>587.02</ele>
        <time>2015-05-10T10:37:28Z</time>
      </trkpt>
      <trkpt lat="44.32955" lon="3.58543">
        <ele>588.46</ele>
        <time>2015-05-10T10:37:43Z</time>
      </trkpt>
      <trkpt lat="44.32953" lon="3.58528">
        <ele>589.43</ele>
        <time>2015-05-10T10:37:55Z</time>
      </trkpt>
      <trkpt lat="44.32948" lon="3.58519">
        <ele>590.87</ele>
        <time>2015-05-10T10:38:08Z</time>
      </trkpt>
      <trkpt lat="44.32947" lon="3.58517">
        <ele>591.35</ele>
        <time>2015-05-10T10:38:10Z</time>
      </trkpt>
      <trkpt lat="44.32944" lon="3.58508">
        <ele>592.31</ele>
        <time>2015-05-10T10:38:16Z</time>
      </trkpt>
      <trkpt lat="44.3294" lon="3.58496">
        <ele>594.23</ele>
        <time>2015-05-10T10:38:29Z</time>
      </trkpt>
      <trkpt lat="44.32941" lon="3.58485">
        <ele>595.19</ele>
        <time>2015-05-10T10:38:44Z</time>
      </trkpt>
      <trkpt lat="44.32943" lon="3.58474">
        <ele>596.15</ele>
        <time>2015-05-10T10:38:58Z</time>
      </trkpt>
      <trkpt lat="44.32944" lon="3.5847">
        <ele>596.15</ele>
        <time>2015-05-10T10:39:14Z</time>
      </trkpt>
      <trkpt lat="44.32945" lon="3.58472">
        <ele>596.15</ele>
        <time>2015-05-10T10:39:40Z</time>
      </trkpt>
      <trkpt lat="44.32946" lon="3.58473">
        <ele>596.64</ele>
        <time>2015-05-10T10:40:10Z</time>
      </trkpt>
      <trkpt lat="44.32947" lon="3.58469">
        <ele>596.15</ele>
        <time>2015-05-10T10:40:27Z</time>
      </trkpt>
      <trkpt lat="44.32949" lon="3.58468">
        <ele>596.64</ele>
        <time>2015-05-10T10:40:40Z</time>
      </trkpt>
      <trkpt lat="44.32949" lon="3.58467">
        <ele>596.15</ele>
        <time>2015-05-10T10:41:05Z</time>
      </trkpt>
      <trkpt lat="44.32949" lon="3.58465">
        <ele>596.64</ele>
        <time>2015-05-10T10:41:16Z</time>
      </trkpt>
      <trkpt lat="44.32957" lon="3.5845">
        <ele>596.64</ele>
        <time>2015-05-10T10:41:29Z</time>
      </trkpt>
      <trkpt lat="44.32959" lon="3.58445">
        <ele>596.64</ele>
        <time>2015-05-10T10:41:32Z</time>
      </trkpt>
      <trkpt lat="44.32962" lon="3.58439">
        <ele>596.64</ele>
        <time>2015-05-10T10:41:37Z</time>
      </trkpt>
      <trkpt lat="44.32971" lon="3.58424">
        <ele>597.6</ele>
        <time>2015-05-10T10:41:48Z</time>
      </trkpt>
      <trkpt lat="44.32977" lon="3.58413">
        <ele>598.56</ele>
        <time>2015-05-10T10:41:56Z</time>
      </trkpt>
      <trkpt lat="44.32991" lon="3.58401">
        <ele>600</ele>
        <time>2015-05-10T10:42:10Z</time>
      </trkpt>
      <trkpt lat="44.32999" lon="3.58383">
        <ele>601.44</ele>
        <time>2015-05-10T10:42:24Z</time>
      </trkpt>
      <trkpt lat="44.33009" lon="3.58365">
        <ele>603.85</ele>
        <time>2015-05-10T10:42:39Z</time>
      </trkpt>
      <trkpt lat="44.33013" lon="3.58353">
        <ele>605.29</ele>
        <time>2015-05-10T10:42:49Z</time>
      </trkpt>
      <trkpt lat="44.33013" lon="3.58349">
        <ele>606.25</ele>
        <time>2015-05-10T10:42:52Z</time>
      </trkpt>
      <trkpt lat="44.33013" lon="3.58322">
        <ele>608.65</ele>
        <time>2015-05-10T10:43:10Z</time>
      </trkpt>
      <trkpt lat="44.33017" lon="3.58304">
        <ele>610.09</ele>
        <time>2015-05-10T10:43:24Z</time>
      </trkpt>
      <trkpt lat="44.3302" lon="3.58281">
        <ele>612.5</ele>
        <time>2015-05-10T10:43:40Z</time>
      </trkpt>
      <trkpt lat="44.33023" lon="3.58257">
        <ele>614.42</ele>
        <time>2015-05-10T10:43:55Z</time>
      </trkpt>
      <trkpt lat="44.33025" lon="3.5824">
        <ele>616.34</ele>
        <time>2015-05-10T10:44:07Z</time>
      </trkpt>
      <trkpt lat="44.3303" lon="3.58222">
        <ele>617.3</ele>
        <time>2015-05-10T10:44:20Z</time>
      </trkpt>
      <trkpt lat="44.33032" lon="3.58218">
        <ele>618.26</ele>
        <time>2015-05-10T10:44:27Z</time>
      </trkpt>
      <trkpt lat="44.3305" lon="3.58212">
        <ele>619.71</ele>
        <time>2015-05-10T10:44:43Z</time>
      </trkpt>
      <trkpt lat="44.33074" lon="3.58207">
        <ele>621.63</ele>
        <time>2015-05-10T10:45:00Z</time>
      </trkpt>
      <trkpt lat="44.33089" lon="3.58196">
        <ele>623.55</ele>
        <time>2015-05-10T10:45:13Z</time>
      </trkpt>
      <trkpt lat="44.33096" lon="3.5819">
        <ele>624.03</ele>
        <time>2015-05-10T10:45:19Z</time>
      </trkpt>
      <trkpt lat="44.33098" lon="3.58187">
        <ele>624.51</ele>
        <time>2015-05-10T10:45:22Z</time>
      </trkpt>
      <trkpt lat="44.3311" lon="3.58177">
        <ele>625.96</ele>
        <time>2015-05-10T10:45:34Z</time>
      </trkpt>
      <trkpt lat="44.33122" lon="3.58164">
        <ele>626.92</ele>
        <time>2015-05-10T10:45:48Z</time>
      </trkpt>
      <trkpt lat="44.33123" lon="3.58162">
        <ele>626.92</ele>
        <time>2015-05-10T10:45:49Z</time>
      </trkpt>
      <trkpt lat="44.33137" lon="3.5814">
        <ele>627.88</ele>
        <time>2015-05-10T10:46:07Z</time>
      </trkpt>
      <trkpt lat="44.33139" lon="3.58138">
        <ele>628.36</ele>
        <time>2015-05-10T10:46:09Z</time>
      </trkpt>
      <trkpt lat="44.33153" lon="3.58119">
        <ele>630.76</ele>
        <time>2015-05-10T10:46:28Z</time>
      </trkpt>
      <trkpt lat="44.33162" lon="3.58102">
        <ele>632.68</ele>
        <time>2015-05-10T10:46:41Z</time>
      </trkpt>
      <trkpt lat="44.33171" lon="3.5808">
        <ele>634.61</ele>
        <time>2015-05-10T10:46:58Z</time>
      </trkpt>
      <trkpt lat="44.33176" lon="3.58068">
        <ele>634.61</ele>
        <time>2015-05-10T10:47:07Z</time>
      </trkpt>
      <trkpt lat="44.33177" lon="3.58064">
        <ele>635.09</ele>
        <time>2015-05-10T10:47:10Z</time>
      </trkpt>
      <trkpt lat="44.3318" lon="3.58054">
        <ele>635.57</ele>
        <time>2015-05-10T10:47:16Z</time>
      </trkpt>
      <trkpt lat="44.33184" lon="3.58043">
        <ele>636.05</ele>
        <time>2015-05-10T10:47:23Z</time>
      </trkpt>
      <trkpt lat="44.33185" lon="3.58036">
        <ele>636.53</ele>
        <time>2015-05-10T10:47:27Z</time>
      </trkpt>
      <trkpt lat="44.33191" lon="3.58016">
        <ele>637.97</ele>
        <time>2015-05-10T10:47:41Z</time>
      </trkpt>
      <trkpt lat="44.33191" lon="3.58013">
        <ele>637.97</ele>
        <time>2015-05-10T10:47:43Z</time>
      </trkpt>
      <trkpt lat="44.33192" lon="3.5801">
        <ele>638.45</ele>
        <time>2015-05-10T10:47:45Z</time>
      </trkpt>
      <trkpt lat="44.33198" lon="3.57992">
        <ele>640.38</ele>
        <time>2015-05-10T10:47:59Z</time>
      </trkpt>
      <trkpt lat="44.33199" lon="3.57991">
        <ele>641.34</ele>
        <time>2015-05-10T10:48:00Z</time>
      </trkpt>
      <trkpt lat="44.33205" lon="3.57971">
        <ele>643.74</ele>
        <time>2015-05-10T10:48:16Z</time>
      </trkpt>
      <trkpt lat="44.33215" lon="3.57954">
        <ele>646.14</ele>
        <time>2015-05-10T10:48:31Z</time>
      </trkpt>
      <trkpt lat="44.33228" lon="3.57938">
        <ele>648.55</ele>
        <time>2015-05-10T10:48:48Z</time>
      </trkpt>
      <trkpt lat="44.33239" lon="3.57923">
        <ele>650.95</ele>
        <time>2015-05-10T10:49:02Z</time>
      </trkpt>
      <trkpt lat="44.33242" lon="3.57918">
        <ele>651.43</ele>
        <time>2015-05-10T10:49:07Z</time>
      </trkpt>
      <trkpt lat="44.3325" lon="3.57903">
        <ele>653.83</ele>
        <time>2015-05-10T10:49:21Z</time>
      </trkpt>
      <trkpt lat="44.33252" lon="3.57899">
        <ele>653.83</ele>
        <time>2015-05-10T10:49:26Z</time>
      </trkpt>
      <trkpt lat="44.33255" lon="3.57884">
        <ele>656.24</ele>
        <time>2015-05-10T10:49:39Z</time>
      </trkpt>
      <trkpt lat="44.33256" lon="3.5787">
        <ele>658.64</ele>
        <time>2015-05-10T10:49:53Z</time>
      </trkpt>
      <trkpt lat="44.33255" lon="3.57856">
        <ele>660.56</ele>
        <time>2015-05-10T10:50:06Z</time>
      </trkpt>
      <trkpt lat="44.33254" lon="3.57852">
        <ele>660.56</ele>
        <time>2015-05-10T10:50:09Z</time>
      </trkpt>
      <trkpt lat="44.33255" lon="3.57844">
        <ele>661.52</ele>
        <time>2015-05-10T10:50:15Z</time>
      </trkpt>
      <trkpt lat="44.33254" lon="3.57828">
        <ele>663.93</ele>
        <time>2015-05-10T10:50:28Z</time>
      </trkpt>
      <trkpt lat="44.33255" lon="3.57817">
        <ele>665.85</ele>
        <time>2015-05-10T10:50:39Z</time>
      </trkpt>
      <trkpt lat="44.33259" lon="3.578">
        <ele>667.77</ele>
        <time>2015-05-10T10:50:53Z</time>
      </trkpt>
      <trkpt lat="44.33261" lon="3.57787">
        <ele>669.7</ele>
        <time>2015-05-10T10:51:06Z</time>
      </trkpt>
      <trkpt lat="44.33262" lon="3.57786">
        <ele>670.18</ele>
        <time>2015-05-10T10:51:08Z</time>
      </trkpt>
      <trkpt lat="44.33263" lon="3.57776">
        <ele>673.06</ele>
        <time>2015-05-10T10:51:21Z</time>
      </trkpt>
      <trkpt lat="44.33259" lon="3.57765">
        <ele>674.98</ele>
        <time>2015-05-10T10:51:32Z</time>
      </trkpt>
      <trkpt lat="44.33252" lon="3.57749">
        <ele>677.39</ele>
        <time>2015-05-10T10:51:47Z</time>
      </trkpt>
      <trkpt lat="44.33254" lon="3.57734">
        <ele>680.27</ele>
        <time>2015-05-10T10:52:01Z</time>
      </trkpt>
      <trkpt lat="44.3325" lon="3.57727">
        <ele>682.67</ele>
        <time>2015-05-10T10:52:13Z</time>
      </trkpt>
      <trkpt lat="44.33248" lon="3.5772">
        <ele>685.08</ele>
        <time>2015-05-10T10:52:24Z</time>
      </trkpt>
      <trkpt lat="44.33245" lon="3.57716">
        <ele>685.56</ele>
        <time>2015-05-10T10:52:39Z</time>
      </trkpt>
      <trkpt lat="44.33243" lon="3.57713">
        <ele>685.56</ele>
        <time>2015-05-10T10:53:00Z</time>
      </trkpt>
      <trkpt lat="44.33243" lon="3.57713">
        <ele>685.56</ele>
        <time>2015-05-10T10:53:25Z</time>
      </trkpt>
      <trkpt lat="44.33245" lon="3.57721">
        <ele>685.08</ele>
        <time>2015-05-10T10:53:37Z</time>
      </trkpt>
      <trkpt lat="44.33246" lon="3.57724">
        <ele>684.6</ele>
        <time>2015-05-10T10:53:40Z</time>
      </trkpt>
      <trkpt lat="44.33247" lon="3.57734">
        <ele>683.63</ele>
        <time>2015-05-10T10:53:53Z</time>
      </trkpt>
      <trkpt lat="44.33247" lon="3.57737">
        <ele>683.63</ele>
        <time>2015-05-10T10:54:13Z</time>
      </trkpt>
      <trkpt lat="44.33247" lon="3.57738">
        <ele>683.63</ele>
        <time>2015-05-10T10:54:38Z</time>
      </trkpt>
      <trkpt lat="44.33246" lon="3.57733">
        <ele>683.63</ele>
        <time>2015-05-10T10:54:53Z</time>
      </trkpt>
      <trkpt lat="44.33246" lon="3.57733">
        <ele>684.12</ele>
        <time>2015-05-10T10:55:18Z</time>
      </trkpt>
      <trkpt lat="44.33246" lon="3.57733">
        <ele>684.6</ele>
        <time>2015-05-10T10:55:42Z</time>
      </trkpt>
      <trkpt lat="44.33244" lon="3.57731">
        <ele>684.12</ele>
        <time>2015-05-10T10:56:02Z</time>
      </trkpt>
      <trkpt lat="44.3324" lon="3.5773">
        <ele>684.12</ele>
        <time>2015-05-10T10:56:31Z</time>
      </trkpt>
      <trkpt lat="44.33242" lon="3.5773">
        <ele>684.12</ele>
        <time>2015-05-10T10:57:00Z</time>
      </trkpt>
      <trkpt lat="44.33243" lon="3.57729">
        <ele>684.12</ele>
        <time>2015-05-10T10:57:29Z</time>
      </trkpt>
      <trkpt lat="44.33244" lon="3.57728">
        <ele>684.6</ele>
        <time>2015-05-10T10:57:45Z</time>
      </trkpt>
      <trkpt lat="44.33243" lon="3.57725">
        <ele>685.08</ele>
        <time>2015-05-10T10:57:48Z</time>
      </trkpt>
      <trkpt lat="44.33243" lon="3.57722">
        <ele>685.56</ele>
        <time>2015-05-10T10:57:50Z</time>
      </trkpt>
      <trkpt lat="44.33241" lon="3.57715">
        <ele>686.04</ele>
        <time>2015-05-10T10:57:56Z</time>
      </trkpt>
      <trkpt lat="44.3324" lon="3.57711">
        <ele>686.52</ele>
        <time>2015-05-10T10:57:59Z</time>
      </trkpt>
      <trkpt lat="44.33242" lon="3.57703">
        <ele>687.96</ele>
        <time>2015-05-10T10:58:06Z</time>
      </trkpt>
      <trkpt lat="44.33248" lon="3.57688">
        <ele>689.4</ele>
        <time>2015-05-10T10:58:22Z</time>
      </trkpt>
      <trkpt lat="44.33265" lon="3.5768">
        <ele>690.36</ele>
        <time>2015-05-10T10:58:38Z</time>
      </trkpt>
      <trkpt lat="44.33273" lon="3.57682">
        <ele>691.33</ele>
        <time>2015-05-10T10:58:45Z</time>
      </trkpt>
      <trkpt lat="44.33291" lon="3.5769">
        <ele>691.33</ele>
        <time>2015-05-10T10:58:58Z</time>
      </trkpt>
      <trkpt lat="44.33304" lon="3.57693">
        <ele>691.81</ele>
        <time>2015-05-10T10:59:08Z</time>
      </trkpt>
      <trkpt lat="44.33326" lon="3.57695">
        <ele>692.29</ele>
        <time>2015-05-10T10:59:23Z</time>
      </trkpt>
      <trkpt lat="44.33336" lon="3.57694">
        <ele>693.73</ele>
        <time>2015-05-10T10:59:32Z</time>
      </trkpt>
      <trkpt lat="44.33347" lon="3.57695">
        <ele>696.13</ele>
        <time>2015-05-10T10:59:45Z</time>
      </trkpt>
      <trkpt lat="44.3336" lon="3.57692">
        <ele>698.53</ele>
        <time>2015-05-10T10:59:59Z</time>
      </trkpt>
      <trkpt lat="44.33374" lon="3.57695">
        <ele>701.42</ele>
        <time>2015-05-10T11:00:14Z</time>
      </trkpt>
      <trkpt lat="44.3339" lon="3.57695">
        <ele>704.3</ele>
        <time>2015-05-10T11:00:30Z</time>
      </trkpt>
      <trkpt lat="44.33406" lon="3.57694">
        <ele>707.67</ele>
        <time>2015-05-10T11:00:46Z</time>
      </trkpt>
      <trkpt lat="44.33412" lon="3.5769">
        <ele>708.63</ele>
        <time>2015-05-10T11:01:00Z</time>
      </trkpt>
      <trkpt lat="44.3343" lon="3.57688">
        <ele>711.51</ele>
        <time>2015-05-10T11:01:16Z</time>
      </trkpt>
      <trkpt lat="44.33441" lon="3.57688">
        <ele>711.03</ele>
        <time>2015-05-10T11:01:20Z</time>
      </trkpt>
      <trkpt lat="44.33452" lon="3.5768">
        <ele>712.47</ele>
        <time>2015-05-10T11:01:34Z</time>
      </trkpt>
      <trkpt lat="44.33452" lon="3.57676">
        <ele>712.47</ele>
        <time>2015-05-10T11:01:49Z</time>
      </trkpt>
      <trkpt lat="44.33453" lon="3.57676">
        <ele>712.95</ele>
        <time>2015-05-10T11:02:10Z</time>
      </trkpt>
      <trkpt lat="44.33455" lon="3.57669">
        <ele>713.44</ele>
        <time>2015-05-10T11:02:22Z</time>
      </trkpt>
      <trkpt lat="44.33452" lon="3.57651">
        <ele>715.36</ele>
        <time>2015-05-10T11:02:38Z</time>
      </trkpt>
      <trkpt lat="44.3345" lon="3.57652">
        <ele>715.36</ele>
        <time>2015-05-10T11:02:41Z</time>
      </trkpt>
      <trkpt lat="44.33447" lon="3.57655">
        <ele>715.84</ele>
        <time>2015-05-10T11:02:45Z</time>
      </trkpt>
      <trkpt lat="44.33443" lon="3.57662">
        <ele>716.32</ele>
        <time>2015-05-10T11:02:51Z</time>
      </trkpt>
      <trkpt lat="44.33433" lon="3.57666">
        <ele>717.76</ele>
        <time>2015-05-10T11:03:00Z</time>
      </trkpt>
      <trkpt lat="44.33422" lon="3.5767">
        <ele>718.72</ele>
        <time>2015-05-10T11:03:10Z</time>
      </trkpt>
      <trkpt lat="44.33419" lon="3.57666">
        <ele>719.68</ele>
        <time>2015-05-10T11:03:13Z</time>
      </trkpt>
      <trkpt lat="44.33419" lon="3.57658">
        <ele>720.16</ele>
        <time>2015-05-10T11:03:18Z</time>
      </trkpt>
      <trkpt lat="44.33428" lon="3.57634">
        <ele>722.09</ele>
        <time>2015-05-10T11:03:34Z</time>
      </trkpt>
      <trkpt lat="44.33429" lon="3.57628">
        <ele>723.05</ele>
        <time>2015-05-10T11:03:39Z</time>
      </trkpt>
      <trkpt lat="44.33427" lon="3.57622">
        <ele>723.53</ele>
        <time>2015-05-10T11:03:43Z</time>
      </trkpt>
      <trkpt lat="44.33424" lon="3.57612">
        <ele>724.01</ele>
        <time>2015-05-10T11:03:51Z</time>
      </trkpt>
      <trkpt lat="44.33418" lon="3.57598">
        <ele>725.93</ele>
        <time>2015-05-10T11:04:01Z</time>
      </trkpt>
      <trkpt lat="44.33408" lon="3.57595">
        <ele>727.37</ele>
        <time>2015-05-10T11:04:12Z</time>
      </trkpt>
      <trkpt lat="44.33405" lon="3.57599">
        <ele>728.34</ele>
        <time>2015-05-10T11:04:17Z</time>
      </trkpt>
      <trkpt lat="44.33402" lon="3.5761">
        <ele>729.3</ele>
        <time>2015-05-10T11:04:27Z</time>
      </trkpt>
      <trkpt lat="44.334" lon="3.57612">
        <ele>730.26</ele>
        <time>2015-05-10T11:04:29Z</time>
      </trkpt>
      <trkpt lat="44.33399" lon="3.57614">
        <ele>730.26</ele>
        <time>2015-05-10T11:04:31Z</time>
      </trkpt>
      <trkpt lat="44.33395" lon="3.57618">
        <ele>730.26</ele>
        <time>2015-05-10T11:04:35Z</time>
      </trkpt>
      <trkpt lat="44.33387" lon="3.57623">
        <ele>731.22</ele>
        <time>2015-05-10T11:04:44Z</time>
      </trkpt>
      <trkpt lat="44.33384" lon="3.57622">
        <ele>731.7</ele>
        <time>2015-05-10T11:04:47Z</time>
      </trkpt>
      <trkpt lat="44.33387" lon="3.57606">
        <ele>733.14</ele>
        <time>2015-05-10T11:04:58Z</time>
      </trkpt>
      <trkpt lat="44.33389" lon="3.57594">
        <ele>734.1</ele>
        <time>2015-05-10T11:05:06Z</time>
      </trkpt>
      <trkpt lat="44.33388" lon="3.57587">
        <ele>734.58</ele>
        <time>2015-05-10T11:05:11Z</time>
      </trkpt>
      <trkpt lat="44.33387" lon="3.57583">
        <ele>735.07</ele>
        <time>2015-05-10T11:05:14Z</time>
      </trkpt>
      <trkpt lat="44.33378" lon="3.57566">
        <ele>736.99</ele>
        <time>2015-05-10T11:05:27Z</time>
      </trkpt>
      <trkpt lat="44.33375" lon="3.5756">
        <ele>737.47</ele>
        <time>2015-05-10T11:05:32Z</time>
      </trkpt>
      <trkpt lat="44.3337" lon="3.57547">
        <ele>738.91</ele>
        <time>2015-05-10T11:05:40Z</time>
      </trkpt>
      <trkpt lat="44.33364" lon="3.57536">
        <ele>740.35</ele>
        <time>2015-05-10T11:05:49Z</time>
      </trkpt>
      <trkpt lat="44.33363" lon="3.57533">
        <ele>739.87</ele>
        <time>2015-05-10T11:05:51Z</time>
      </trkpt>
      <trkpt lat="44.33362" lon="3.57528">
        <ele>740.35</ele>
        <time>2015-05-10T11:05:55Z</time>
      </trkpt>
      <trkpt lat="44.33358" lon="3.57516">
        <ele>741.79</ele>
        <time>2015-05-10T11:06:03Z</time>
      </trkpt>
      <trkpt lat="44.33355" lon="3.57509">
        <ele>742.28</ele>
        <time>2015-05-10T11:06:08Z</time>
      </trkpt>
      <trkpt lat="44.33351" lon="3.57487">
        <ele>743.24</ele>
        <time>2015-05-10T11:06:22Z</time>
      </trkpt>
      <trkpt lat="44.3335" lon="3.57485">
        <ele>744.2</ele>
        <time>2015-05-10T11:06:23Z</time>
      </trkpt>
      <trkpt lat="44.33351" lon="3.57469">
        <ele>745.16</ele>
        <time>2015-05-10T11:06:34Z</time>
      </trkpt>
      <trkpt lat="44.33352" lon="3.57458">
        <ele>746.6</ele>
        <time>2015-05-10T11:06:42Z</time>
      </trkpt>
      <trkpt lat="44.33351" lon="3.57454">
        <ele>746.6</ele>
        <time>2015-05-10T11:06:45Z</time>
      </trkpt>
      <trkpt lat="44.33349" lon="3.5745">
        <ele>747.56</ele>
        <time>2015-05-10T11:06:49Z</time>
      </trkpt>
      <trkpt lat="44.33346" lon="3.57452">
        <ele>748.04</ele>
        <time>2015-05-10T11:06:52Z</time>
      </trkpt>
      <trkpt lat="44.33339" lon="3.57474">
        <ele>749</ele>
        <time>2015-05-10T11:07:07Z</time>
      </trkpt>
      <trkpt lat="44.33335" lon="3.5748">
        <ele>749.49</ele>
        <time>2015-05-10T11:07:12Z</time>
      </trkpt>
      <trkpt lat="44.33329" lon="3.57492">
        <ele>750.45</ele>
        <time>2015-05-10T11:07:21Z</time>
      </trkpt>
      <trkpt lat="44.3332" lon="3.57505">
        <ele>751.89</ele>
        <time>2015-05-10T11:07:32Z</time>
      </trkpt>
      <trkpt lat="44.33315" lon="3.57512">
        <ele>752.37</ele>
        <time>2015-05-10T11:07:38Z</time>
      </trkpt>
      <trkpt lat="44.3331" lon="3.57519">
        <ele>753.33</ele>
        <time>2015-05-10T11:07:47Z</time>
      </trkpt>
      <trkpt lat="44.33293" lon="3.57521">
        <ele>755.25</ele>
        <time>2015-05-10T11:08:02Z</time>
      </trkpt>
      <trkpt lat="44.33277" lon="3.57517">
        <ele>757.18</ele>
        <time>2015-05-10T11:08:15Z</time>
      </trkpt>
      <trkpt lat="44.33274" lon="3.57517">
        <ele>757.66</ele>
        <time>2015-05-10T11:08:18Z</time>
      </trkpt>
      <trkpt lat="44.33264" lon="3.57511">
        <ele>759.1</ele>
        <time>2015-05-10T11:08:30Z</time>
      </trkpt>
      <trkpt lat="44.33252" lon="3.57506">
        <ele>761.02</ele>
        <time>2015-05-10T11:08:43Z</time>
      </trkpt>
      <trkpt lat="44.33238" lon="3.57506">
        <ele>762.94</ele>
        <time>2015-05-10T11:08:57Z</time>
      </trkpt>
      <trkpt lat="44.33236" lon="3.57506">
        <ele>763.42</ele>
        <time>2015-05-10T11:08:59Z</time>
      </trkpt>
      <trkpt lat="44.33219" lon="3.57509">
        <ele>765.35</ele>
        <time>2015-05-10T11:09:14Z</time>
      </trkpt>
      <trkpt lat="44.33205" lon="3.57509">
        <ele>767.27</ele>
        <time>2015-05-10T11:09:27Z</time>
      </trkpt>
      <trkpt lat="44.332" lon="3.57509">
        <ele>768.23</ele>
        <time>2015-05-10T11:09:32Z</time>
      </trkpt>
      <trkpt lat="44.33185" lon="3.57507">
        <ele>770.15</ele>
        <time>2015-05-10T11:09:47Z</time>
      </trkpt>
      <trkpt lat="44.3317" lon="3.57507">
        <ele>772.56</ele>
        <time>2015-05-10T11:10:02Z</time>
      </trkpt>
      <trkpt lat="44.33156" lon="3.5751">
        <ele>774.48</ele>
        <time>2015-05-10T11:10:16Z</time>
      </trkpt>
      <trkpt lat="44.33141" lon="3.57513">
        <ele>776.4</ele>
        <time>2015-05-10T11:10:31Z</time>
      </trkpt>
      <trkpt lat="44.33127" lon="3.57515">
        <ele>778.32</ele>
        <time>2015-05-10T11:10:45Z</time>
      </trkpt>
      <trkpt lat="44.33126" lon="3.57514">
        <ele>778.81</ele>
        <time>2015-05-10T11:11:01Z</time>
      </trkpt>
      <trkpt lat="44.33126" lon="3.57512">
        <ele>778.81</ele>
        <time>2015-05-10T11:11:22Z</time>
      </trkpt>
      <trkpt lat="44.33125" lon="3.5751">
        <ele>778.81</ele>
        <time>2015-05-10T11:11:41Z</time>
      </trkpt>
      <trkpt lat="44.33125" lon="3.57508">
        <ele>778.32</ele>
        <time>2015-05-10T11:11:57Z</time>
      </trkpt>
      <trkpt lat="44.33126" lon="3.57509">
        <ele>778.32</ele>
        <time>2015-05-10T11:12:32Z</time>
      </trkpt>
      <trkpt lat="44.33124" lon="3.5751">
        <ele>778.32</ele>
        <time>2015-05-10T11:13:04Z</time>
      </trkpt>
      <trkpt lat="44.33124" lon="3.57509">
        <ele>778.32</ele>
        <time>2015-05-10T11:13:41Z</time>
      </trkpt>
      <trkpt lat="44.33125" lon="3.57508">
        <ele>778.81</ele>
        <time>2015-05-10T11:14:13Z</time>
      </trkpt>
      <trkpt lat="44.33125" lon="3.57508">
        <ele>778.81</ele>
        <time>2015-05-10T11:14:43Z</time>
      </trkpt>
      <trkpt lat="44.33124" lon="3.57509">
        <ele>778.81</ele>
        <time>2015-05-10T11:15:11Z</time>
      </trkpt>
      <trkpt lat="44.33123" lon="3.57509">
        <ele>778.81</ele>
        <time>2015-05-10T11:15:39Z</time>
      </trkpt>
      <trkpt lat="44.33123" lon="3.57508">
        <ele>778.81</ele>
        <time>2015-05-10T11:16:09Z</time>
      </trkpt>
      <trkpt lat="44.33123" lon="3.57509">
        <ele>778.81</ele>
        <time>2015-05-10T11:16:42Z</time>
      </trkpt>
      <trkpt lat="44.33124" lon="3.57508">
        <ele>778.81</ele>
        <time>2015-05-10T11:17:15Z</time>
      </trkpt>
      <trkpt lat="44.33124" lon="3.57507">
        <ele>778.81</ele>
        <time>2015-05-10T11:17:42Z</time>
      </trkpt>
      <trkpt lat="44.33124" lon="3.57508">
        <ele>780.25</ele>
        <time>2015-05-10T11:17:59Z</time>
      </trkpt>
      <trkpt lat="44.33124" lon="3.57507">
        <ele>779.77</ele>
        <time>2015-05-10T11:18:19Z</time>
      </trkpt>
      <trkpt lat="44.33125" lon="3.57504">
        <ele>779.77</ele>
        <time>2015-05-10T11:18:42Z</time>
      </trkpt>
      <trkpt lat="44.33127" lon="3.575">
        <ele>780.25</ele>
        <time>2015-05-10T11:18:45Z</time>
      </trkpt>
      <trkpt lat="44.33128" lon="3.57492">
        <ele>781.21</ele>
        <time>2015-05-10T11:18:51Z</time>
      </trkpt>
      <trkpt lat="44.33132" lon="3.57483">
        <ele>782.17</ele>
        <time>2015-05-10T11:18:58Z</time>
      </trkpt>
      <trkpt lat="44.33149" lon="3.57471">
        <ele>783.13</ele>
        <time>2015-05-10T11:19:13Z</time>
      </trkpt>
      <trkpt lat="44.3316" lon="3.57459">
        <ele>784.57</ele>
        <time>2015-05-10T11:19:25Z</time>
      </trkpt>
      <trkpt lat="44.33161" lon="3.57453">
        <ele>785.05</ele>
        <time>2015-05-10T11:19:29Z</time>
      </trkpt>
      <trkpt lat="44.33162" lon="3.57443">
        <ele>785.53</ele>
        <time>2015-05-10T11:19:36Z</time>
      </trkpt>
      <trkpt lat="44.33164" lon="3.5744">
        <ele>785.53</ele>
        <time>2015-05-10T11:19:38Z</time>
      </trkpt>
      <trkpt lat="44.33171" lon="3.57418">
        <ele>786.5</ele>
        <time>2015-05-10T11:19:52Z</time>
      </trkpt>
      <trkpt lat="44.33185" lon="3.57394">
        <ele>787.46</ele>
        <time>2015-05-10T11:20:09Z</time>
      </trkpt>
      <trkpt lat="44.33202" lon="3.57374">
        <ele>788.42</ele>
        <time>2015-05-10T11:20:25Z</time>
      </trkpt>
      <trkpt lat="44.33209" lon="3.57367">
        <ele>788.9</ele>
        <time>2015-05-10T11:20:35Z</time>
      </trkpt>
      <trkpt lat="44.33211" lon="3.57364">
        <ele>788.9</ele>
        <time>2015-05-10T11:20:37Z</time>
      </trkpt>
      <trkpt lat="44.33219" lon="3.57352">
        <ele>788.9</ele>
        <time>2015-05-10T11:20:46Z</time>
      </trkpt>
      <trkpt lat="44.33228" lon="3.57329">
        <ele>788.42</ele>
        <time>2015-05-10T11:21:00Z</time>
      </trkpt>
      <trkpt lat="44.33238" lon="3.57305">
        <ele>788.9</ele>
        <time>2015-05-10T11:21:14Z</time>
      </trkpt>
      <trkpt lat="44.33243" lon="3.57293">
        <ele>788.42</ele>
        <time>2015-05-10T11:21:21Z</time>
      </trkpt>
      <trkpt lat="44.33256" lon="3.57274">
        <ele>788.42</ele>
        <time>2015-05-10T11:21:35Z</time>
      </trkpt>
      <trkpt lat="44.33258" lon="3.57272">
        <ele>788.42</ele>
        <time>2015-05-10T11:21:37Z</time>
      </trkpt>
      <trkpt lat="44.3327" lon="3.57249">
        <ele>788.9</ele>
        <time>2015-05-10T11:21:52Z</time>
      </trkpt>
      <trkpt lat="44.33284" lon="3.57232">
        <ele>790.34</ele>
        <time>2015-05-10T11:22:07Z</time>
      </trkpt>
      <trkpt lat="44.33289" lon="3.57226">
        <ele>790.82</ele>
        <time>2015-05-10T11:22:12Z</time>
      </trkpt>
      <trkpt lat="44.33306" lon="3.57219">
        <ele>793.22</ele>
        <time>2015-05-10T11:22:27Z</time>
      </trkpt>
      <trkpt lat="44.3331" lon="3.57215">
        <ele>794.19</ele>
        <time>2015-05-10T11:22:31Z</time>
      </trkpt>
      <trkpt lat="44.33316" lon="3.57211">
        <ele>795.15</ele>
        <time>2015-05-10T11:22:37Z</time>
      </trkpt>
      <trkpt lat="44.3332" lon="3.57209">
        <ele>795.63</ele>
        <time>2015-05-10T11:22:41Z</time>
      </trkpt>
      <trkpt lat="44.33331" lon="3.5719">
        <ele>797.55</ele>
        <time>2015-05-10T11:22:57Z</time>
      </trkpt>
      <trkpt lat="44.33343" lon="3.57176">
        <ele>798.99</ele>
        <time>2015-05-10T11:23:12Z</time>
      </trkpt>
      <trkpt lat="44.33354" lon="3.57158">
        <ele>800.92</ele>
        <time>2015-05-10T11:23:28Z</time>
      </trkpt>
      <trkpt lat="44.33358" lon="3.5715">
        <ele>801.88</ele>
        <time>2015-05-10T11:23:34Z</time>
      </trkpt>
      <trkpt lat="44.33368" lon="3.57136">
        <ele>804.28</ele>
        <time>2015-05-10T11:23:48Z</time>
      </trkpt>
      <trkpt lat="44.33374" lon="3.57118">
        <ele>806.2</ele>
        <time>2015-05-10T11:24:02Z</time>
      </trkpt>
      <trkpt lat="44.33385" lon="3.57105">
        <ele>807.16</ele>
        <time>2015-05-10T11:24:15Z</time>
      </trkpt>
      <trkpt lat="44.33387" lon="3.57105">
        <ele>807.64</ele>
        <time>2015-05-10T11:24:29Z</time>
      </trkpt>
      <trkpt lat="44.33389" lon="3.57104">
        <ele>807.64</ele>
        <time>2015-05-10T11:24:44Z</time>
      </trkpt>
      <trkpt lat="44.33387" lon="3.57104">
        <ele>808.13</ele>
        <time>2015-05-10T11:24:47Z</time>
      </trkpt>
      <trkpt lat="44.33384" lon="3.57104">
        <ele>808.61</ele>
        <time>2015-05-10T11:24:51Z</time>
      </trkpt>
      <trkpt lat="44.33381" lon="3.57106">
        <ele>809.09</ele>
        <time>2015-05-10T11:24:54Z</time>
      </trkpt>
      <trkpt lat="44.33377" lon="3.57107">
        <ele>810.05</ele>
        <time>2015-05-10T11:24:59Z</time>
      </trkpt>
      <trkpt lat="44.33372" lon="3.5711">
        <ele>810.53</ele>
        <time>2015-05-10T11:25:05Z</time>
      </trkpt>
      <trkpt lat="44.33357" lon="3.57119">
        <ele>811.97</ele>
        <time>2015-05-10T11:25:19Z</time>
      </trkpt>
      <trkpt lat="44.33344" lon="3.57126">
        <ele>813.41</ele>
        <time>2015-05-10T11:25:32Z</time>
      </trkpt>
      <trkpt lat="44.33331" lon="3.5713">
        <ele>815.34</ele>
        <time>2015-05-10T11:25:47Z</time>
      </trkpt>
      <trkpt lat="44.3333" lon="3.5713">
        <ele>815.34</ele>
        <time>2015-05-10T11:25:48Z</time>
      </trkpt>
      <trkpt lat="44.33327" lon="3.5713">
        <ele>815.82</ele>
        <time>2015-05-10T11:25:51Z</time>
      </trkpt>
      <trkpt lat="44.33329" lon="3.5712">
        <ele>817.74</ele>
        <time>2015-05-10T11:26:02Z</time>
      </trkpt>
      <trkpt lat="44.33336" lon="3.57111">
        <ele>818.22</ele>
        <time>2015-05-10T11:26:18Z</time>
      </trkpt>
      <trkpt lat="44.33339" lon="3.57103">
        <ele>818.7</ele>
        <time>2015-05-10T11:26:31Z</time>
      </trkpt>
      <trkpt lat="44.33348" lon="3.57096">
        <ele>819.66</ele>
        <time>2015-05-10T11:26:52Z</time>
      </trkpt>
      <trkpt lat="44.33354" lon="3.57091">
        <ele>821.1</ele>
        <time>2015-05-10T11:26:59Z</time>
      </trkpt>
      <trkpt lat="44.33363" lon="3.57085">
        <ele>821.58</ele>
        <time>2015-05-10T11:27:08Z</time>
      </trkpt>
      <trkpt lat="44.33368" lon="3.57082">
        <ele>822.06</ele>
        <time>2015-05-10T11:27:13Z</time>
      </trkpt>
      <trkpt lat="44.3338" lon="3.57073">
        <ele>823.99</ele>
        <time>2015-05-10T11:27:26Z</time>
      </trkpt>
      <trkpt lat="44.3339" lon="3.57061">
        <ele>824.95</ele>
        <time>2015-05-10T11:27:39Z</time>
      </trkpt>
      <trkpt lat="44.33396" lon="3.57055">
        <ele>825.91</ele>
        <time>2015-05-10T11:27:45Z</time>
      </trkpt>
      <trkpt lat="44.33399" lon="3.57047">
        <ele>826.87</ele>
        <time>2015-05-10T11:27:52Z</time>
      </trkpt>
      <trkpt lat="44.33407" lon="3.5703">
        <ele>828.79</ele>
        <time>2015-05-10T11:28:05Z</time>
      </trkpt>
      <trkpt lat="44.33408" lon="3.57026">
        <ele>828.79</ele>
        <time>2015-05-10T11:28:09Z</time>
      </trkpt>
      <trkpt lat="44.33412" lon="3.57017">
        <ele>829.76</ele>
        <time>2015-05-10T11:28:16Z</time>
      </trkpt>
      <trkpt lat="44.33414" lon="3.5701">
        <ele>830.24</ele>
        <time>2015-05-10T11:28:21Z</time>
      </trkpt>
      <trkpt lat="44.33416" lon="3.56995">
        <ele>832.16</ele>
        <time>2015-05-10T11:28:34Z</time>
      </trkpt>
      <trkpt lat="44.33417" lon="3.56992">
        <ele>832.64</ele>
        <time>2015-05-10T11:28:38Z</time>
      </trkpt>
      <trkpt lat="44.33422" lon="3.56974">
        <ele>834.56</ele>
        <time>2015-05-10T11:28:52Z</time>
      </trkpt>
      <trkpt lat="44.33423" lon="3.56971">
        <ele>834.56</ele>
        <time>2015-05-10T11:28:54Z</time>
      </trkpt>
      <trkpt lat="44.3343" lon="3.56952">
        <ele>836</ele>
        <time>2015-05-10T11:29:07Z</time>
      </trkpt>
      <trkpt lat="44.33431" lon="3.56944">
        <ele>836.48</ele>
        <time>2015-05-10T11:29:12Z</time>
      </trkpt>
      <trkpt lat="44.33432" lon="3.56926">
        <ele>837.93</ele>
        <time>2015-05-10T11:29:26Z</time>
      </trkpt>
      <trkpt lat="44.33432" lon="3.56916">
        <ele>839.37</ele>
        <time>2015-05-10T11:29:34Z</time>
      </trkpt>
      <trkpt lat="44.3343" lon="3.56894">
        <ele>841.29</ele>
        <time>2015-05-10T11:29:49Z</time>
      </trkpt>
      <trkpt lat="44.33428" lon="3.56875">
        <ele>843.69</ele>
        <time>2015-05-10T11:30:03Z</time>
      </trkpt>
      <trkpt lat="44.33436" lon="3.56861">
        <ele>844.66</ele>
        <time>2015-05-10T11:30:15Z</time>
      </trkpt>
      <trkpt lat="44.33438" lon="3.56857">
        <ele>845.14</ele>
        <time>2015-05-10T11:30:19Z</time>
      </trkpt>
      <trkpt lat="44.33441" lon="3.5685">
        <ele>845.62</ele>
        <time>2015-05-10T11:30:24Z</time>
      </trkpt>
      <trkpt lat="44.33441" lon="3.56845">
        <ele>846.1</ele>
        <time>2015-05-10T11:30:27Z</time>
      </trkpt>
      <trkpt lat="44.33445" lon="3.56832">
        <ele>847.54</ele>
        <time>2015-05-10T11:30:39Z</time>
      </trkpt>
      <trkpt lat="44.33447" lon="3.56828">
        <ele>848.02</ele>
        <time>2015-05-10T11:30:42Z</time>
      </trkpt>
      <trkpt lat="44.33452" lon="3.56823">
        <ele>848.5</ele>
        <time>2015-05-10T11:30:47Z</time>
      </trkpt>
      <trkpt lat="44.33458" lon="3.56814">
        <ele>848.98</ele>
        <time>2015-05-10T11:30:55Z</time>
      </trkpt>
      <trkpt lat="44.33465" lon="3.56804">
        <ele>849.94</ele>
        <time>2015-05-10T11:31:05Z</time>
      </trkpt>
      <trkpt lat="44.33468" lon="3.56793">
        <ele>851.87</ele>
        <time>2015-05-10T11:31:17Z</time>
      </trkpt>
      <trkpt lat="44.33467" lon="3.56799">
        <ele>853.31</ele>
        <time>2015-05-10T11:31:27Z</time>
      </trkpt>
      <trkpt lat="44.33461" lon="3.56805">
        <ele>854.75</ele>
        <time>2015-05-10T11:31:37Z</time>
      </trkpt>
      <trkpt lat="44.3345" lon="3.56814">
        <ele>855.71</ele>
        <time>2015-05-10T11:31:49Z</time>
      </trkpt>
      <trkpt lat="44.33439" lon="3.56822">
        <ele>857.15</ele>
        <time>2015-05-10T11:32:03Z</time>
      </trkpt>
      <trkpt lat="44.33436" lon="3.56824">
        <ele>857.63</ele>
        <time>2015-05-10T11:32:06Z</time>
      </trkpt>
      <trkpt lat="44.33428" lon="3.56836">
        <ele>859.56</ele>
        <time>2015-05-10T11:32:20Z</time>
      </trkpt>
      <trkpt lat="44.33417" lon="3.56842">
        <ele>862.44</ele>
        <time>2015-05-10T11:32:33Z</time>
      </trkpt>
      <trkpt lat="44.3341" lon="3.56846">
        <ele>863.88</ele>
        <time>2015-05-10T11:32:41Z</time>
      </trkpt>
      <trkpt lat="44.334" lon="3.56852">
        <ele>865.8</ele>
        <time>2015-05-10T11:32:53Z</time>
      </trkpt>
      <trkpt lat="44.33399" lon="3.56853">
        <ele>866.29</ele>
        <time>2015-05-10T11:32:55Z</time>
      </trkpt>
      <trkpt lat="44.33397" lon="3.56854">
        <ele>866.77</ele>
        <time>2015-05-10T11:32:57Z</time>
      </trkpt>
      <trkpt lat="44.33395" lon="3.56862">
        <ele>867.73</ele>
        <time>2015-05-10T11:33:06Z</time>
      </trkpt>
      <trkpt lat="44.33394" lon="3.56864">
        <ele>868.21</ele>
        <time>2015-05-10T11:33:08Z</time>
      </trkpt>
      <trkpt lat="44.33391" lon="3.56872">
        <ele>869.17</ele>
        <time>2015-05-10T11:33:15Z</time>
      </trkpt>
      <trkpt lat="44.33386" lon="3.56888">
        <ele>871.09</ele>
        <time>2015-05-10T11:33:30Z</time>
      </trkpt>
      <trkpt lat="44.33385" lon="3.56893">
        <ele>871.57</ele>
        <time>2015-05-10T11:33:35Z</time>
      </trkpt>
      <trkpt lat="44.33383" lon="3.56911">
        <ele>874.46</ele>
        <time>2015-05-10T11:33:51Z</time>
      </trkpt>
      <trkpt lat="44.33376" lon="3.56925">
        <ele>876.38</ele>
        <time>2015-05-10T11:34:05Z</time>
      </trkpt>
      <trkpt lat="44.33367" lon="3.56936">
        <ele>878.78</ele>
        <time>2015-05-10T11:34:21Z</time>
      </trkpt>
      <trkpt lat="44.33358" lon="3.56946">
        <ele>881.19</ele>
        <time>2015-05-10T11:34:35Z</time>
      </trkpt>
      <trkpt lat="44.33349" lon="3.56953">
        <ele>883.59</ele>
        <time>2015-05-10T11:34:48Z</time>
      </trkpt>
      <trkpt lat="44.33345" lon="3.56955">
        <ele>884.07</ele>
        <time>2015-05-10T11:34:53Z</time>
      </trkpt>
      <trkpt lat="44.33342" lon="3.56957">
        <ele>884.55</ele>
        <time>2015-05-10T11:34:57Z</time>
      </trkpt>
      <trkpt lat="44.33334" lon="3.56961">
        <ele>886.47</ele>
        <time>2015-05-10T11:35:07Z</time>
      </trkpt>
      <trkpt lat="44.33324" lon="3.56968">
        <ele>888.4</ele>
        <time>2015-05-10T11:35:22Z</time>
      </trkpt>
      <trkpt lat="44.33313" lon="3.56972">
        <ele>891.28</ele>
        <time>2015-05-10T11:35:36Z</time>
      </trkpt>
      <trkpt lat="44.33303" lon="3.56976">
        <ele>892.72</ele>
        <time>2015-05-10T11:35:49Z</time>
      </trkpt>
      <trkpt lat="44.33297" lon="3.56977">
        <ele>894.16</ele>
        <time>2015-05-10T11:35:55Z</time>
      </trkpt>
      <trkpt lat="44.33287" lon="3.56982">
        <ele>895.12</ele>
        <time>2015-05-10T11:36:06Z</time>
      </trkpt>
      <trkpt lat="44.33277" lon="3.56985">
        <ele>897.53</ele>
        <time>2015-05-10T11:36:18Z</time>
      </trkpt>
      <trkpt lat="44.33268" lon="3.56988">
        <ele>899.45</ele>
        <time>2015-05-10T11:36:31Z</time>
      </trkpt>
      <trkpt lat="44.3327" lon="3.56976">
        <ele>900.89</ele>
        <time>2015-05-10T11:36:45Z</time>
      </trkpt>
      <trkpt lat="44.33273" lon="3.56972">
        <ele>901.85</ele>
        <time>2015-05-10T11:36:49Z</time>
      </trkpt>
      <trkpt lat="44.3328" lon="3.56957">
        <ele>904.26</ele>
        <time>2015-05-10T11:37:05Z</time>
      </trkpt>
      <trkpt lat="44.33288" lon="3.56945">
        <ele>906.66</ele>
        <time>2015-05-10T11:37:19Z</time>
      </trkpt>
      <trkpt lat="44.33296" lon="3.5693">
        <ele>908.58</ele>
        <time>2015-05-10T11:37:35Z</time>
      </trkpt>
      <trkpt lat="44.33301" lon="3.5692">
        <ele>910.51</ele>
        <time>2015-05-10T11:37:47Z</time>
      </trkpt>
      <trkpt lat="44.33301" lon="3.56921">
        <ele>910.51</ele>
        <time>2015-05-10T11:38:12Z</time>
      </trkpt>
      <trkpt lat="44.33302" lon="3.56921">
        <ele>910.51</ele>
        <time>2015-05-10T11:38:40Z</time>
      </trkpt>
      <trkpt lat="44.33302" lon="3.56921">
        <ele>910.51</ele>
        <time>2015-05-10T11:39:07Z</time>
      </trkpt>
      <trkpt lat="44.33303" lon="3.56921">
        <ele>910.51</ele>
        <time>2015-05-10T11:39:39Z</time>
      </trkpt>
      <trkpt lat="44.33303" lon="3.56921">
        <ele>910.51</ele>
        <time>2015-05-10T11:40:03Z</time>
      </trkpt>
      <trkpt lat="44.33303" lon="3.5692">
        <ele>910.51</ele>
        <time>2015-05-10T11:40:31Z</time>
      </trkpt>
      <trkpt lat="44.33303" lon="3.56921">
        <ele>910.51</ele>
        <time>2015-05-10T11:41:00Z</time>
      </trkpt>
      <trkpt lat="44.33303" lon="3.56921">
        <ele>910.51</ele>
        <time>2015-05-10T11:41:26Z</time>
      </trkpt>
      <trkpt lat="44.33307" lon="3.56913">
        <ele>911.95</ele>
        <time>2015-05-10T11:41:44Z</time>
      </trkpt>
      <trkpt lat="44.33315" lon="3.56896">
        <ele>914.35</ele>
        <time>2015-05-10T11:41:58Z</time>
      </trkpt>
      <trkpt lat="44.33317" lon="3.56891">
        <ele>914.83</ele>
        <time>2015-05-10T11:42:03Z</time>
      </trkpt>
      <trkpt lat="44.33314" lon="3.56891">
        <ele>916.75</ele>
        <time>2015-05-10T11:42:12Z</time>
      </trkpt>
      <trkpt lat="44.33303" lon="3.569">
        <ele>919.64</ele>
        <time>2015-05-10T11:42:27Z</time>
      </trkpt>
      <trkpt lat="44.33292" lon="3.56907">
        <ele>921.56</ele>
        <time>2015-05-10T11:42:40Z</time>
      </trkpt>
      <trkpt lat="44.33282" lon="3.56912">
        <ele>923.48</ele>
        <time>2015-05-10T11:42:53Z</time>
      </trkpt>
      <trkpt lat="44.33273" lon="3.56914">
        <ele>924.93</ele>
        <time>2015-05-10T11:43:03Z</time>
      </trkpt>
      <trkpt lat="44.33263" lon="3.56919">
        <ele>927.33</ele>
        <time>2015-05-10T11:43:16Z</time>
      </trkpt>
      <trkpt lat="44.3326" lon="3.56919">
        <ele>927.81</ele>
        <time>2015-05-10T11:43:20Z</time>
      </trkpt>
      <trkpt lat="44.33251" lon="3.56921">
        <ele>929.73</ele>
        <time>2015-05-10T11:43:31Z</time>
      </trkpt>
      <trkpt lat="44.3324" lon="3.56924">
        <ele>931.65</ele>
        <time>2015-05-10T11:43:44Z</time>
      </trkpt>
      <trkpt lat="44.33229" lon="3.5693">
        <ele>933.58</ele>
        <time>2015-05-10T11:43:58Z</time>
      </trkpt>
      <trkpt lat="44.33227" lon="3.56932">
        <ele>934.06</ele>
        <time>2015-05-10T11:44:02Z</time>
      </trkpt>
      <trkpt lat="44.33222" lon="3.56934">
        <ele>934.54</ele>
        <time>2015-05-10T11:44:06Z</time>
      </trkpt>
      <trkpt lat="44.33215" lon="3.56938">
        <ele>935.5</ele>
        <time>2015-05-10T11:44:15Z</time>
      </trkpt>
      <trkpt lat="44.3321" lon="3.56939">
        <ele>936.46</ele>
        <time>2015-05-10T11:44:20Z</time>
      </trkpt>
      <trkpt lat="44.33199" lon="3.56942">
        <ele>938.86</ele>
        <time>2015-05-10T11:44:34Z</time>
      </trkpt>
      <trkpt lat="44.3319" lon="3.56945">
        <ele>940.79</ele>
        <time>2015-05-10T11:44:47Z</time>
      </trkpt>
      <trkpt lat="44.33186" lon="3.56945">
        <ele>942.23</ele>
        <time>2015-05-10T11:44:54Z</time>
      </trkpt>
      <trkpt lat="44.3319" lon="3.56935">
        <ele>942.71</ele>
        <time>2015-05-10T11:45:01Z</time>
      </trkpt>
      <trkpt lat="44.33201" lon="3.56921">
        <ele>944.15</ele>
        <time>2015-05-10T11:45:14Z</time>
      </trkpt>
      <trkpt lat="44.33212" lon="3.56907">
        <ele>945.11</ele>
        <time>2015-05-10T11:45:27Z</time>
      </trkpt>
      <trkpt lat="44.33221" lon="3.56896">
        <ele>946.07</ele>
        <time>2015-05-10T11:45:38Z</time>
      </trkpt>
      <trkpt lat="44.33232" lon="3.56883">
        <ele>947.52</ele>
        <time>2015-05-10T11:45:51Z</time>
      </trkpt>
      <trkpt lat="44.33233" lon="3.56882">
        <ele>947.52</ele>
        <time>2015-05-10T11:45:58Z</time>
      </trkpt>
      <trkpt lat="44.33235" lon="3.5688">
        <ele>947.52</ele>
        <time>2015-05-10T11:46:00Z</time>
      </trkpt>
      <trkpt lat="44.33247" lon="3.56864">
        <ele>949.44</ele>
        <time>2015-05-10T11:46:14Z</time>
      </trkpt>
      <trkpt lat="44.33257" lon="3.56847">
        <ele>950.4</ele>
        <time>2015-05-10T11:46:29Z</time>
      </trkpt>
      <trkpt lat="44.33262" lon="3.5684">
        <ele>950.88</ele>
        <time>2015-05-10T11:46:35Z</time>
      </trkpt>
      <trkpt lat="44.33272" lon="3.56824">
        <ele>952.8</ele>
        <time>2015-05-10T11:46:48Z</time>
      </trkpt>
      <trkpt lat="44.33276" lon="3.5682">
        <ele>953.28</ele>
        <time>2015-05-10T11:46:53Z</time>
      </trkpt>
      <trkpt lat="44.33276" lon="3.56811">
        <ele>953.28</ele>
        <time>2015-05-10T11:47:02Z</time>
      </trkpt>
      <trkpt lat="44.33273" lon="3.5681">
        <ele>953.77</ele>
        <time>2015-05-10T11:47:05Z</time>
      </trkpt>
      <trkpt lat="44.33261" lon="3.56818">
        <ele>955.21</ele>
        <time>2015-05-10T11:47:18Z</time>
      </trkpt>
      <trkpt lat="44.3325" lon="3.56832">
        <ele>956.17</ele>
        <time>2015-05-10T11:47:32Z</time>
      </trkpt>
      <trkpt lat="44.33237" lon="3.56844">
        <ele>957.61</ele>
        <time>2015-05-10T11:47:46Z</time>
      </trkpt>
      <trkpt lat="44.33225" lon="3.56852">
        <ele>958.57</ele>
        <time>2015-05-10T11:47:59Z</time>
      </trkpt>
      <trkpt lat="44.33211" lon="3.56863">
        <ele>960.01</ele>
        <time>2015-05-10T11:48:13Z</time>
      </trkpt>
      <trkpt lat="44.33206" lon="3.56865">
        <ele>960.49</ele>
        <time>2015-05-10T11:48:18Z</time>
      </trkpt>
      <trkpt lat="44.33194" lon="3.56875">
        <ele>961.46</ele>
        <time>2015-05-10T11:48:30Z</time>
      </trkpt>
      <trkpt lat="44.33189" lon="3.56877">
        <ele>961.94</ele>
        <time>2015-05-10T11:48:34Z</time>
      </trkpt>
      <trkpt lat="44.33182" lon="3.5687">
        <ele>962.9</ele>
        <time>2015-05-10T11:48:47Z</time>
      </trkpt>
      <trkpt lat="44.33182" lon="3.5687">
        <ele>962.9</ele>
        <time>2015-05-10T11:48:48Z</time>
      </trkpt>
      <trkpt lat="44.33185" lon="3.56866">
        <ele>963.38</ele>
        <time>2015-05-10T11:48:51Z</time>
      </trkpt>
      <trkpt lat="44.33198" lon="3.56854">
        <ele>965.78</ele>
        <time>2015-05-10T11:49:06Z</time>
      </trkpt>
      <trkpt lat="44.33207" lon="3.56844">
        <ele>967.22</ele>
        <time>2015-05-10T11:49:17Z</time>
      </trkpt>
      <trkpt lat="44.33213" lon="3.56838">
        <ele>967.7</ele>
        <time>2015-05-10T11:49:24Z</time>
      </trkpt>
      <trkpt lat="44.33225" lon="3.56823">
        <ele>969.15</ele>
        <time>2015-05-10T11:49:38Z</time>
      </trkpt>
      <trkpt lat="44.33225" lon="3.56822">
        <ele>969.15</ele>
        <time>2015-05-10T11:49:39Z</time>
      </trkpt>
      <trkpt lat="44.33232" lon="3.56805">
        <ele>970.59</ele>
        <time>2015-05-10T11:49:52Z</time>
      </trkpt>
      <trkpt lat="44.33235" lon="3.56801">
        <ele>971.07</ele>
        <time>2015-05-10T11:49:55Z</time>
      </trkpt>
      <trkpt lat="44.33242" lon="3.56782">
        <ele>972.99</ele>
        <time>2015-05-10T11:50:11Z</time>
      </trkpt>
      <trkpt lat="44.33241" lon="3.56777">
        <ele>974.43</ele>
        <time>2015-05-10T11:50:26Z</time>
      </trkpt>
      <trkpt lat="44.3324" lon="3.5678">
        <ele>974.91</ele>
        <time>2015-05-10T11:50:29Z</time>
      </trkpt>
      <trkpt lat="44.33238" lon="3.56783">
        <ele>975.39</ele>
        <time>2015-05-10T11:50:32Z</time>
      </trkpt>
      <trkpt lat="44.33237" lon="3.56786">
        <ele>975.39</ele>
        <time>2015-05-10T11:50:35Z</time>
      </trkpt>
      <trkpt lat="44.33225" lon="3.56799">
        <ele>977.8</ele>
        <time>2015-05-10T11:50:50Z</time>
      </trkpt>
      <trkpt lat="44.33215" lon="3.56806">
        <ele>979.72</ele>
        <time>2015-05-10T11:51:02Z</time>
      </trkpt>
      <trkpt lat="44.33211" lon="3.56809">
        <ele>980.68</ele>
        <time>2015-05-10T11:51:08Z</time>
      </trkpt>
      <trkpt lat="44.33205" lon="3.56814">
        <ele>981.16</ele>
        <time>2015-05-10T11:51:14Z</time>
      </trkpt>
      <trkpt lat="44.33199" lon="3.56819">
        <ele>982.12</ele>
        <time>2015-05-10T11:51:23Z</time>
      </trkpt>
      <trkpt lat="44.33187" lon="3.56825">
        <ele>983.57</ele>
        <time>2015-05-10T11:51:36Z</time>
      </trkpt>
      <trkpt lat="44.33177" lon="3.56829">
        <ele>985.49</ele>
        <time>2015-05-10T11:51:48Z</time>
      </trkpt>
      <trkpt lat="44.33171" lon="3.56833">
        <ele>986.45</ele>
        <time>2015-05-10T11:51:55Z</time>
      </trkpt>
      <trkpt lat="44.33168" lon="3.56832">
        <ele>986.93</ele>
        <time>2015-05-10T11:51:58Z</time>
      </trkpt>
      <trkpt lat="44.33155" lon="3.56832">
        <ele>988.85</ele>
        <time>2015-05-10T11:52:12Z</time>
      </trkpt>
      <trkpt lat="44.33151" lon="3.56832">
        <ele>989.33</ele>
        <time>2015-05-10T11:52:17Z</time>
      </trkpt>
      <trkpt lat="44.33149" lon="3.56832">
        <ele>989.81</ele>
        <time>2015-05-10T11:52:19Z</time>
      </trkpt>
      <trkpt lat="44.33137" lon="3.56832">
        <ele>991.74</ele>
        <time>2015-05-10T11:52:33Z</time>
      </trkpt>
      <trkpt lat="44.33127" lon="3.56832">
        <ele>993.66</ele>
        <time>2015-05-10T11:52:45Z</time>
      </trkpt>
      <trkpt lat="44.33118" lon="3.56835">
        <ele>995.1</ele>
        <time>2015-05-10T11:52:56Z</time>
      </trkpt>
      <trkpt lat="44.33109" lon="3.56837">
        <ele>997.02</ele>
        <time>2015-05-10T11:53:07Z</time>
      </trkpt>
      <trkpt lat="44.33102" lon="3.56838">
        <ele>998.47</ele>
        <time>2015-05-10T11:53:17Z</time>
      </trkpt>
      <trkpt lat="44.33089" lon="3.56839">
        <ele>1000.39</ele>
        <time>2015-05-10T11:53:31Z</time>
      </trkpt>
      <trkpt lat="44.3308" lon="3.56838">
        <ele>1002.79</ele>
        <time>2015-05-10T11:53:44Z</time>
      </trkpt>
      <trkpt lat="44.33078" lon="3.56838">
        <ele>1002.79</ele>
        <time>2015-05-10T11:53:46Z</time>
      </trkpt>
      <trkpt lat="44.33066" lon="3.56836">
        <ele>1004.72</ele>
        <time>2015-05-10T11:54:02Z</time>
      </trkpt>
      <trkpt lat="44.3306" lon="3.56835">
        <ele>1005.68</ele>
        <time>2015-05-10T11:54:16Z</time>
      </trkpt>
      <trkpt lat="44.33059" lon="3.56836">
        <ele>1005.68</ele>
        <time>2015-05-10T11:54:28Z</time>
      </trkpt>
      <trkpt lat="44.33059" lon="3.56834">
        <ele>1005.68</ele>
        <time>2015-05-10T11:54:49Z</time>
      </trkpt>
      <trkpt lat="44.33054" lon="3.56834">
        <ele>1006.16</ele>
        <time>2015-05-10T11:54:59Z</time>
      </trkpt>
      <trkpt lat="44.33053" lon="3.56835">
        <ele>1006.16</ele>
        <time>2015-05-10T11:55:01Z</time>
      </trkpt>
      <trkpt lat="44.33046" lon="3.56833">
        <ele>1007.12</ele>
        <time>2015-05-10T11:55:13Z</time>
      </trkpt>
      <trkpt lat="44.33046" lon="3.56833">
        <ele>1007.12</ele>
        <time>2015-05-10T11:55:31Z</time>
      </trkpt>
      <trkpt lat="44.33045" lon="3.56824">
        <ele>1009.52</ele>
        <time>2015-05-10T11:55:46Z</time>
      </trkpt>
      <trkpt lat="44.33048" lon="3.56819">
        <ele>1010.96</ele>
        <time>2015-05-10T11:55:59Z</time>
      </trkpt>
      <trkpt lat="44.33054" lon="3.56814">
        <ele>1010.96</ele>
        <time>2015-05-10T11:56:10Z</time>
      </trkpt>
      <trkpt lat="44.33057" lon="3.56808">
        <ele>1012.89</ele>
        <time>2015-05-10T11:56:24Z</time>
      </trkpt>
      <trkpt lat="44.33059" lon="3.56806">
        <ele>1012.89</ele>
        <time>2015-05-10T11:56:38Z</time>
      </trkpt>
      <trkpt lat="44.33061" lon="3.56802">
        <ele>1013.37</ele>
        <time>2015-05-10T11:56:58Z</time>
      </trkpt>
      <trkpt lat="44.33062" lon="3.56804">
        <ele>1012.89</ele>
        <time>2015-05-10T11:57:10Z</time>
      </trkpt>
      <trkpt lat="44.33068" lon="3.56807">
        <ele>1011.44</ele>
        <time>2015-05-10T11:57:22Z</time>
      </trkpt>
      <trkpt lat="44.33068" lon="3.56807">
        <ele>1011.93</ele>
        <time>2015-05-10T11:57:43Z</time>
      </trkpt>
      <trkpt lat="44.33068" lon="3.56808">
        <ele>1010.96</ele>
        <time>2015-05-10T11:57:58Z</time>
      </trkpt>
      <trkpt lat="44.33068" lon="3.56807">
        <ele>1010.96</ele>
        <time>2015-05-10T11:58:40Z</time>
      </trkpt>
      <trkpt lat="44.33068" lon="3.56808">
        <ele>1011.44</ele>
        <time>2015-05-10T11:59:20Z</time>
      </trkpt>
      <trkpt lat="44.33069" lon="3.56808">
        <ele>1011.44</ele>
        <time>2015-05-10T12:00:00Z</time>
      </trkpt>
      <trkpt lat="44.33069" lon="3.56808">
        <ele>1011.93</ele>
        <time>2015-05-10T12:00:32Z</time>
      </trkpt>
      <trkpt lat="44.33069" lon="3.56808">
        <ele>1011.93</ele>
        <time>2015-05-10T12:01:07Z</time>
      </trkpt>
      <trkpt lat="44.33069" lon="3.56808">
        <ele>1011.44</ele>
        <time>2015-05-10T12:01:44Z</time>
      </trkpt>
      <trkpt lat="44.33071" lon="3.56808">
        <ele>1011.93</ele>
        <time>2015-05-10T12:02:25Z</time>
      </trkpt>
      <trkpt lat="44.33071" lon="3.56808">
        <ele>1011.44</ele>
        <time>2015-05-10T12:03:04Z</time>
      </trkpt>
      <trkpt lat="44.3307" lon="3.56808">
        <ele>1011.44</ele>
        <time>2015-05-10T12:03:47Z</time>
      </trkpt>
      <trkpt lat="44.3307" lon="3.56808">
        <ele>1011.44</ele>
        <time>2015-05-10T12:04:24Z</time>
      </trkpt>
      <trkpt lat="44.3307" lon="3.56808">
        <ele>1011.93</ele>
        <time>2015-05-10T12:05:00Z</time>
      </trkpt>
      <trkpt lat="44.3307" lon="3.56808">
        <ele>1011.93</ele>
        <time>2015-05-10T12:05:42Z</time>
      </trkpt>
      <trkpt lat="44.3307" lon="3.56808">
        <ele>1011.93</ele>
        <time>2015-05-10T12:06:22Z</time>
      </trkpt>
      <trkpt lat="44.3307" lon="3.56808">
        <ele>1011.44</ele>
        <time>2015-05-10T12:06:57Z</time>
      </trkpt>
      <trkpt lat="44.3307" lon="3.56808">
        <ele>1011.93</ele>
        <time>2015-05-10T12:07:30Z</time>
      </trkpt>
      <trkpt lat="44.3307" lon="3.56808">
        <ele>1011.93</ele>
        <time>2015-05-10T12:08:05Z</time>
      </trkpt>
      <trkpt lat="44.3307" lon="3.56808">
        <ele>1011.93</ele>
        <time>2015-05-10T12:08:44Z</time>
      </trkpt>
      <trkpt lat="44.3307" lon="3.56808">
        <ele>1011.93</ele>
        <time>2015-05-10T12:09:19Z</time>
      </trkpt>
      <trkpt lat="44.33069" lon="3.56807">
        <ele>1011.93</ele>
        <time>2015-05-10T12:09:57Z</time>
      </trkpt>
      <trkpt lat="44.33068" lon="3.56807">
        <ele>1011.93</ele>
        <time>2015-05-10T12:10:34Z</time>
      </trkpt>
      <trkpt lat="44.33069" lon="3.56807">
        <ele>1011.93</ele>
        <time>2015-05-10T12:11:12Z</time>
      </trkpt>
      <trkpt lat="44.33069" lon="3.56807">
        <ele>1012.41</ele>
        <time>2015-05-10T12:11:52Z</time>
      </trkpt>
      <trkpt lat="44.33068" lon="3.56808">
        <ele>1012.41</ele>
        <time>2015-05-10T12:12:25Z</time>
      </trkpt>
      <trkpt lat="44.33069" lon="3.56808">
        <ele>1012.41</ele>
        <time>2015-05-10T12:13:05Z</time>
      </trkpt>
      <trkpt lat="44.33069" lon="3.56807">
        <ele>1012.41</ele>
        <time>2015-05-10T12:13:42Z</time>
      </trkpt>
      <trkpt lat="44.33069" lon="3.56807">
        <ele>1012.41</ele>
        <time>2015-05-10T12:14:19Z</time>
      </trkpt>
      <trkpt lat="44.33069" lon="3.56807">
        <ele>1012.41</ele>
        <time>2015-05-10T12:14:55Z</time>
      </trkpt>
      <trkpt lat="44.33068" lon="3.56808">
        <ele>1012.89</ele>
        <time>2015-05-10T12:15:36Z</time>
      </trkpt>
      <trkpt lat="44.33068" lon="3.56809">
        <ele>1012.41</ele>
        <time>2015-05-10T12:16:13Z</time>
      </trkpt>
      <trkpt lat="44.33068" lon="3.56808">
        <ele>1012.89</ele>
        <time>2015-05-10T12:16:46Z</time>
      </trkpt>
      <trkpt lat="44.33068" lon="3.56808">
        <ele>1012.89</ele>
        <time>2015-05-10T12:17:18Z</time>
      </trkpt>
      <trkpt lat="44.33068" lon="3.56808">
        <ele>1012.89</ele>
        <time>2015-05-10T12:17:52Z</time>
      </trkpt>
      <trkpt lat="44.33068" lon="3.56809">
        <ele>1012.89</ele>
        <time>2015-05-10T12:18:28Z</time>
      </trkpt>
      <trkpt lat="44.33068" lon="3.56809">
        <ele>1013.37</ele>
        <time>2015-05-10T12:19:02Z</time>
      </trkpt>
      <trkpt lat="44.33068" lon="3.5681">
        <ele>1013.37</ele>
        <time>2015-05-10T12:19:38Z</time>
      </trkpt>
      <trkpt lat="44.33068" lon="3.5681">
        <ele>1013.37</ele>
        <time>2015-05-10T12:20:20Z</time>
      </trkpt>
      <trkpt lat="44.33068" lon="3.5681">
        <ele>1013.37</ele>
        <time>2015-05-10T12:20:57Z</time>
      </trkpt>
      <trkpt lat="44.33067" lon="3.5681">
        <ele>1013.37</ele>
        <time>2015-05-10T12:21:36Z</time>
      </trkpt>
      <trkpt lat="44.33068" lon="3.56809">
        <ele>1013.37</ele>
        <time>2015-05-10T12:22:17Z</time>
      </trkpt>
      <trkpt lat="44.33067" lon="3.56809">
        <ele>1013.85</ele>
        <time>2015-05-10T12:22:52Z</time>
      </trkpt>
      <trkpt lat="44.33067" lon="3.56809">
        <ele>1013.85</ele>
        <time>2015-05-10T12:23:29Z</time>
      </trkpt>
      <trkpt lat="44.33068" lon="3.56809">
        <ele>1013.85</ele>
        <time>2015-05-10T12:24:08Z</time>
      </trkpt>
      <trkpt lat="44.33068" lon="3.56809">
        <ele>1013.85</ele>
        <time>2015-05-10T12:24:43Z</time>
      </trkpt>
      <trkpt lat="44.33068" lon="3.56809">
        <ele>1014.33</ele>
        <time>2015-05-10T12:25:23Z</time>
      </trkpt>
      <trkpt lat="44.33068" lon="3.56809">
        <ele>1014.33</ele>
        <time>2015-05-10T12:26:04Z</time>
      </trkpt>
      <trkpt lat="44.33067" lon="3.56809">
        <ele>1014.33</ele>
        <time>2015-05-10T12:26:40Z</time>
      </trkpt>
      <trkpt lat="44.33068" lon="3.56809">
        <ele>1014.33</ele>
        <time>2015-05-10T12:27:19Z</time>
      </trkpt>
      <trkpt lat="44.33068" lon="3.56809">
        <ele>1014.33</ele>
        <time>2015-05-10T12:27:55Z</time>
      </trkpt>
      <trkpt lat="44.33068" lon="3.5681">
        <ele>1014.33</ele>
        <time>2015-05-10T12:28:34Z</time>
      </trkpt>
      <trkpt lat="44.33067" lon="3.5681">
        <ele>1014.33</ele>
        <time>2015-05-10T12:29:12Z</time>
      </trkpt>
      <trkpt lat="44.33067" lon="3.5681">
        <ele>1014.33</ele>
        <time>2015-05-10T12:29:47Z</time>
      </trkpt>
      <trkpt lat="44.33068" lon="3.5681">
        <ele>1014.33</ele>
        <time>2015-05-10T12:30:23Z</time>
      </trkpt>
      <trkpt lat="44.33068" lon="3.56809">
        <ele>1014.33</ele>
        <time>2015-05-10T12:30:59Z</time>
      </trkpt>
      <trkpt lat="44.33068" lon="3.56809">
        <ele>1014.33</ele>
        <time>2015-05-10T12:31:41Z</time>
      </trkpt>
      <trkpt lat="44.33069" lon="3.56809">
        <ele>1014.33</ele>
        <time>2015-05-10T12:32:17Z</time>
      </trkpt>
      <trkpt lat="44.33068" lon="3.56809">
        <ele>1014.33</ele>
        <time>2015-05-10T12:32:53Z</time>
      </trkpt>
      <trkpt lat="44.33069" lon="3.56809">
        <ele>1014.33</ele>
        <time>2015-05-10T12:33:25Z</time>
      </trkpt>
      <trkpt lat="44.33069" lon="3.56808">
        <ele>1014.33</ele>
        <time>2015-05-10T12:34:02Z</time>
      </trkpt>
      <trkpt lat="44.33069" lon="3.5681">
        <ele>1014.33</ele>
        <time>2015-05-10T12:34:41Z</time>
      </trkpt>
      <trkpt lat="44.3307" lon="3.56811">
        <ele>1014.33</ele>
        <time>2015-05-10T12:35:16Z</time>
      </trkpt>
      <trkpt lat="44.33069" lon="3.5681">
        <ele>1014.33</ele>
        <time>2015-05-10T12:35:57Z</time>
      </trkpt>
      <trkpt lat="44.33069" lon="3.56809">
        <ele>1014.81</ele>
        <time>2015-05-10T12:36:34Z</time>
      </trkpt>
      <trkpt lat="44.33069" lon="3.56809">
        <ele>1014.33</ele>
        <time>2015-05-10T12:37:13Z</time>
      </trkpt>
      <trkpt lat="44.33069" lon="3.56808">
        <ele>1014.81</ele>
        <time>2015-05-10T12:37:48Z</time>
      </trkpt>
      <trkpt lat="44.33069" lon="3.56808">
        <ele>1015.29</ele>
        <time>2015-05-10T12:38:22Z</time>
      </trkpt>
      <trkpt lat="44.33068" lon="3.56808">
        <ele>1015.77</ele>
        <time>2015-05-10T12:38:40Z</time>
      </trkpt>
      <trkpt lat="44.33068" lon="3.56807">
        <ele>1015.77</ele>
        <time>2015-05-10T12:39:04Z</time>
      </trkpt>
      <trkpt lat="44.33067" lon="3.56809">
        <ele>1015.77</ele>
        <time>2015-05-10T12:39:25Z</time>
      </trkpt>
      <trkpt lat="44.33059" lon="3.56812">
        <ele>1015.29</ele>
        <time>2015-05-10T12:39:40Z</time>
      </trkpt>
      <trkpt lat="44.33052" lon="3.56817">
        <ele>1014.81</ele>
        <time>2015-05-10T12:39:53Z</time>
      </trkpt>
      <trkpt lat="44.33051" lon="3.56818">
        <ele>1014.33</ele>
        <time>2015-05-10T12:39:54Z</time>
      </trkpt>
      <trkpt lat="44.33044" lon="3.5683">
        <ele>1012.41</ele>
        <time>2015-05-10T12:40:10Z</time>
      </trkpt>
      <trkpt lat="44.33038" lon="3.56834">
        <ele>1011.93</ele>
        <time>2015-05-10T12:40:24Z</time>
      </trkpt>
      <trkpt lat="44.33036" lon="3.56835">
        <ele>1012.41</ele>
        <time>2015-05-10T12:40:27Z</time>
      </trkpt>
      <trkpt lat="44.33027" lon="3.56833">
        <ele>1013.37</ele>
        <time>2015-05-10T12:40:42Z</time>
      </trkpt>
      <trkpt lat="44.3301" lon="3.56834">
        <ele>1014.81</ele>
        <time>2015-05-10T12:40:57Z</time>
      </trkpt>
      <trkpt lat="44.32999" lon="3.56833">
        <ele>1016.25</ele>
        <time>2015-05-10T12:41:10Z</time>
      </trkpt>
      <trkpt lat="44.32987" lon="3.56825">
        <ele>1018.17</ele>
        <time>2015-05-10T12:41:25Z</time>
      </trkpt>
      <trkpt lat="44.32986" lon="3.56825">
        <ele>1018.17</ele>
        <time>2015-05-10T12:41:26Z</time>
      </trkpt>
      <trkpt lat="44.32981" lon="3.56824">
        <ele>1018.17</ele>
        <time>2015-05-10T12:41:31Z</time>
      </trkpt>
      <trkpt lat="44.32966" lon="3.56816">
        <ele>1019.13</ele>
        <time>2015-05-10T12:41:47Z</time>
      </trkpt>
      <trkpt lat="44.32968" lon="3.56809">
        <ele>1020.58</ele>
        <time>2015-05-10T12:41:59Z</time>
      </trkpt>
      <trkpt lat="44.32967" lon="3.5681">
        <ele>1020.58</ele>
        <time>2015-05-10T12:42:04Z</time>
      </trkpt>
      <trkpt lat="44.32961" lon="3.56812">
        <ele>1020.58</ele>
        <time>2015-05-10T12:42:10Z</time>
      </trkpt>
      <trkpt lat="44.32951" lon="3.56811">
        <ele>1020.58</ele>
        <time>2015-05-10T12:42:19Z</time>
      </trkpt>
      <trkpt lat="44.32945" lon="3.56811">
        <ele>1021.06</ele>
        <time>2015-05-10T12:42:24Z</time>
      </trkpt>
      <trkpt lat="44.32927" lon="3.56807">
        <ele>1021.06</ele>
        <time>2015-05-10T12:42:38Z</time>
      </trkpt>
      <trkpt lat="44.32919" lon="3.56805">
        <ele>1021.54</ele>
        <time>2015-05-10T12:42:45Z</time>
      </trkpt>
      <trkpt lat="44.32896" lon="3.56802">
        <ele>1022.02</ele>
        <time>2015-05-10T12:43:02Z</time>
      </trkpt>
      <trkpt lat="44.32891" lon="3.568">
        <ele>1022.5</ele>
        <time>2015-05-10T12:43:06Z</time>
      </trkpt>
      <trkpt lat="44.32874" lon="3.56796">
        <ele>1022.98</ele>
        <time>2015-05-10T12:43:20Z</time>
      </trkpt>
      <trkpt lat="44.32857" lon="3.56791">
        <ele>1022.98</ele>
        <time>2015-05-10T12:43:34Z</time>
      </trkpt>
      <trkpt lat="44.32837" lon="3.5679">
        <ele>1023.94</ele>
        <time>2015-05-10T12:43:49Z</time>
      </trkpt>
      <trkpt lat="44.32819" lon="3.56789">
        <ele>1025.86</ele>
        <time>2015-05-10T12:44:04Z</time>
      </trkpt>
      <trkpt lat="44.32801" lon="3.56786">
        <ele>1027.31</ele>
        <time>2015-05-10T12:44:20Z</time>
      </trkpt>
      <trkpt lat="44.32796" lon="3.56785">
        <ele>1028.27</ele>
        <time>2015-05-10T12:44:24Z</time>
      </trkpt>
      <trkpt lat="44.32783" lon="3.56787">
        <ele>1029.23</ele>
        <time>2015-05-10T12:44:36Z</time>
      </trkpt>
      <trkpt lat="44.32766" lon="3.56796">
        <ele>1030.67</ele>
        <time>2015-05-10T12:44:52Z</time>
      </trkpt>
      <trkpt lat="44.32748" lon="3.56808">
        <ele>1030.67</ele>
        <time>2015-05-10T12:45:09Z</time>
      </trkpt>
      <trkpt lat="44.32743" lon="3.56814">
        <ele>1030.67</ele>
        <time>2015-05-10T12:45:22Z</time>
      </trkpt>
      <trkpt lat="44.32745" lon="3.56814">
        <ele>1030.67</ele>
        <time>2015-05-10T12:45:37Z</time>
      </trkpt>
      <trkpt lat="44.32747" lon="3.56816">
        <ele>1030.67</ele>
        <time>2015-05-10T12:45:52Z</time>
      </trkpt>
      <trkpt lat="44.32749" lon="3.5682">
        <ele>1030.67</ele>
        <time>2015-05-10T12:45:57Z</time>
      </trkpt>
      <trkpt lat="44.32751" lon="3.56841">
        <ele>1032.11</ele>
        <time>2015-05-10T12:46:11Z</time>
      </trkpt>
      <trkpt lat="44.32752" lon="3.56851">
        <ele>1032.59</ele>
        <time>2015-05-10T12:46:17Z</time>
      </trkpt>
      <trkpt lat="44.32755" lon="3.56873">
        <ele>1034.52</ele>
        <time>2015-05-10T12:46:33Z</time>
      </trkpt>
      <trkpt lat="44.32758" lon="3.56894">
        <ele>1036.92</ele>
        <time>2015-05-10T12:46:47Z</time>
      </trkpt>
      <trkpt lat="44.3276" lon="3.56917">
        <ele>1039.32</ele>
        <time>2015-05-10T12:47:02Z</time>
      </trkpt>
      <trkpt lat="44.3276" lon="3.56939">
        <ele>1041.25</ele>
        <time>2015-05-10T12:47:17Z</time>
      </trkpt>
      <trkpt lat="44.32759" lon="3.56959">
        <ele>1044.13</ele>
        <time>2015-05-10T12:47:31Z</time>
      </trkpt>
      <trkpt lat="44.32759" lon="3.56978">
        <ele>1046.05</ele>
        <time>2015-05-10T12:47:45Z</time>
      </trkpt>
      <trkpt lat="44.32758" lon="3.57">
        <ele>1048.45</ele>
        <time>2015-05-10T12:48:01Z</time>
      </trkpt>
      <trkpt lat="44.32757" lon="3.57005">
        <ele>1048.94</ele>
        <time>2015-05-10T12:48:04Z</time>
      </trkpt>
      <trkpt lat="44.32758" lon="3.57025">
        <ele>1050.86</ele>
        <time>2015-05-10T12:48:19Z</time>
      </trkpt>
      <trkpt lat="44.32758" lon="3.57049">
        <ele>1053.74</ele>
        <time>2015-05-10T12:48:35Z</time>
      </trkpt>
      <trkpt lat="44.32758" lon="3.5705">
        <ele>1053.74</ele>
        <time>2015-05-10T12:48:36Z</time>
      </trkpt>
      <trkpt lat="44.32756" lon="3.57072">
        <ele>1056.63</ele>
        <time>2015-05-10T12:48:52Z</time>
      </trkpt>
      <trkpt lat="44.32753" lon="3.57094">
        <ele>1058.55</ele>
        <time>2015-05-10T12:49:07Z</time>
      </trkpt>
      <trkpt lat="44.32747" lon="3.57115">
        <ele>1060.47</ele>
        <time>2015-05-10T12:49:22Z</time>
      </trkpt>
      <trkpt lat="44.32741" lon="3.57135">
        <ele>1062.39</ele>
        <time>2015-05-10T12:49:37Z</time>
      </trkpt>
      <trkpt lat="44.32733" lon="3.57153">
        <ele>1063.36</ele>
        <time>2015-05-10T12:49:54Z</time>
      </trkpt>
      <trkpt lat="44.32729" lon="3.57163">
        <ele>1064.32</ele>
        <time>2015-05-10T12:50:03Z</time>
      </trkpt>
      <trkpt lat="44.32726" lon="3.57169">
        <ele>1064.32</ele>
        <time>2015-05-10T12:50:08Z</time>
      </trkpt>
      <trkpt lat="44.32719" lon="3.57179">
        <ele>1064.32</ele>
        <time>2015-05-10T12:50:18Z</time>
      </trkpt>
      <trkpt lat="44.32708" lon="3.57191">
        <ele>1063.84</ele>
        <time>2015-05-10T12:50:31Z</time>
      </trkpt>
      <trkpt lat="44.32708" lon="3.57194">
        <ele>1063.36</ele>
        <time>2015-05-10T12:50:48Z</time>
      </trkpt>
      <trkpt lat="44.32708" lon="3.57194">
        <ele>1063.36</ele>
        <time>2015-05-10T12:51:10Z</time>
      </trkpt>
      <trkpt lat="44.32708" lon="3.57193">
        <ele>1063.36</ele>
        <time>2015-05-10T12:51:35Z</time>
      </trkpt>
      <trkpt lat="44.32708" lon="3.57194">
        <ele>1063.36</ele>
        <time>2015-05-10T12:52:11Z</time>
      </trkpt>
      <trkpt lat="44.32708" lon="3.57194">
        <ele>1063.84</ele>
        <time>2015-05-10T12:52:31Z</time>
      </trkpt>
      <trkpt lat="44.32704" lon="3.57194">
        <ele>1063.84</ele>
        <time>2015-05-10T12:52:40Z</time>
      </trkpt>
      <trkpt lat="44.32702" lon="3.57195">
        <ele>1064.32</ele>
        <time>2015-05-10T12:52:42Z</time>
      </trkpt>
      <trkpt lat="44.32684" lon="3.572">
        <ele>1063.36</ele>
        <time>2015-05-10T12:52:59Z</time>
      </trkpt>
      <trkpt lat="44.3268" lon="3.57195">
        <ele>1062.87</ele>
        <time>2015-05-10T12:53:11Z</time>
      </trkpt>
      <trkpt lat="44.3268" lon="3.57194">
        <ele>1063.36</ele>
        <time>2015-05-10T12:53:30Z</time>
      </trkpt>
      <trkpt lat="44.32679" lon="3.57195">
        <ele>1062.87</ele>
        <time>2015-05-10T12:53:32Z</time>
      </trkpt>
      <trkpt lat="44.32675" lon="3.57202">
        <ele>1063.36</ele>
        <time>2015-05-10T12:53:37Z</time>
      </trkpt>
      <trkpt lat="44.32663" lon="3.57223">
        <ele>1063.36</ele>
        <time>2015-05-10T12:53:54Z</time>
      </trkpt>
      <trkpt lat="44.32649" lon="3.57235">
        <ele>1062.87</ele>
        <time>2015-05-10T12:54:08Z</time>
      </trkpt>
      <trkpt lat="44.3264" lon="3.57241">
        <ele>1062.87</ele>
        <time>2015-05-10T12:54:22Z</time>
      </trkpt>
      <trkpt lat="44.32637" lon="3.57244">
        <ele>1062.87</ele>
        <time>2015-05-10T12:54:29Z</time>
      </trkpt>
      <trkpt lat="44.32618" lon="3.57264">
        <ele>1062.39</ele>
        <time>2015-05-10T12:54:48Z</time>
      </trkpt>
      <trkpt lat="44.32604" lon="3.57279">
        <ele>1062.39</ele>
        <time>2015-05-10T12:55:03Z</time>
      </trkpt>
      <trkpt lat="44.32592" lon="3.5729">
        <ele>1061.43</ele>
        <time>2015-05-10T12:55:17Z</time>
      </trkpt>
      <trkpt lat="44.32591" lon="3.57294">
        <ele>1061.43</ele>
        <time>2015-05-10T12:55:31Z</time>
      </trkpt>
      <trkpt lat="44.32591" lon="3.57294">
        <ele>1061.43</ele>
        <time>2015-05-10T12:55:49Z</time>
      </trkpt>
      <trkpt lat="44.32591" lon="3.57294">
        <ele>1060.95</ele>
        <time>2015-05-10T12:56:12Z</time>
      </trkpt>
      <trkpt lat="44.32592" lon="3.57294">
        <ele>1060.95</ele>
        <time>2015-05-10T12:56:31Z</time>
      </trkpt>
      <trkpt lat="44.32592" lon="3.57294">
        <ele>1060.47</ele>
        <time>2015-05-10T12:57:02Z</time>
      </trkpt>
      <trkpt lat="44.32592" lon="3.57294">
        <ele>1061.43</ele>
        <time>2015-05-10T12:57:26Z</time>
      </trkpt>
      <trkpt lat="44.32595" lon="3.57292">
        <ele>1060.47</ele>
        <time>2015-05-10T12:57:41Z</time>
      </trkpt>
      <trkpt lat="44.326" lon="3.57289">
        <ele>1059.99</ele>
        <time>2015-05-10T12:57:54Z</time>
      </trkpt>
      <trkpt lat="44.3261" lon="3.57287">
        <ele>1058.55</ele>
        <time>2015-05-10T12:58:09Z</time>
      </trkpt>
      <trkpt lat="44.32617" lon="3.57288">
        <ele>1056.63</ele>
        <time>2015-05-10T12:58:21Z</time>
      </trkpt>
      <trkpt lat="44.32628" lon="3.57287">
        <ele>1053.74</ele>
        <time>2015-05-10T12:58:36Z</time>
      </trkpt>
      <trkpt lat="44.32631" lon="3.57293">
        <ele>1051.34</ele>
        <time>2015-05-10T12:58:48Z</time>
      </trkpt>
      <trkpt lat="44.32634" lon="3.57298">
        <ele>1048.45</ele>
        <time>2015-05-10T12:59:01Z</time>
      </trkpt>
      <trkpt lat="44.32634" lon="3.57305">
        <ele>1045.57</ele>
        <time>2015-05-10T12:59:14Z</time>
      </trkpt>
      <trkpt lat="44.32635" lon="3.57314">
        <ele>1042.69</ele>
        <time>2015-05-10T12:59:26Z</time>
      </trkpt>
      <trkpt lat="44.32636" lon="3.57324">
        <ele>1039.8</ele>
        <time>2015-05-10T12:59:39Z</time>
      </trkpt>
      <trkpt lat="44.32637" lon="3.57332">
        <ele>1036.44</ele>
        <time>2015-05-10T12:59:52Z</time>
      </trkpt>
      <trkpt lat="44.32638" lon="3.57337">
        <ele>1035</ele>
        <time>2015-05-10T13:00:08Z</time>
      </trkpt>
      <trkpt lat="44.32639" lon="3.57343">
        <ele>1032.59</ele>
        <time>2015-05-10T13:00:21Z</time>
      </trkpt>
      <trkpt lat="44.32638" lon="3.57347">
        <ele>1030.67</ele>
        <time>2015-05-10T13:00:31Z</time>
      </trkpt>
      <trkpt lat="44.32639" lon="3.57352">
        <ele>1028.27</ele>
        <time>2015-05-10T13:00:41Z</time>
      </trkpt>
      <trkpt lat="44.3264" lon="3.57355">
        <ele>1027.31</ele>
        <time>2015-05-10T13:00:47Z</time>
      </trkpt>
      <trkpt lat="44.32641" lon="3.57368">
        <ele>1029.23</ele>
        <time>2015-05-10T13:01:00Z</time>
      </trkpt>
      <trkpt lat="44.32641" lon="3.5737">
        <ele>1029.71</ele>
        <time>2015-05-10T13:01:02Z</time>
      </trkpt>
      <trkpt lat="44.32642" lon="3.57377">
        <ele>1030.19</ele>
        <time>2015-05-10T13:01:14Z</time>
      </trkpt>
      <trkpt lat="44.32638" lon="3.57385">
        <ele>1028.75</ele>
        <time>2015-05-10T13:01:21Z</time>
      </trkpt>
      <trkpt lat="44.32631" lon="3.57388">
        <ele>1030.19</ele>
        <time>2015-05-10T13:01:36Z</time>
      </trkpt>
      <trkpt lat="44.32631" lon="3.57392">
        <ele>1031.15</ele>
        <time>2015-05-10T13:01:51Z</time>
      </trkpt>
      <trkpt lat="44.32631" lon="3.57391">
        <ele>1031.15</ele>
        <time>2015-05-10T13:02:13Z</time>
      </trkpt>
      <trkpt lat="44.3263" lon="3.57392">
        <ele>1030.67</ele>
        <time>2015-05-10T13:02:29Z</time>
      </trkpt>
      <trkpt lat="44.3263" lon="3.57391">
        <ele>1032.11</ele>
        <time>2015-05-10T13:02:47Z</time>
      </trkpt>
      <trkpt lat="44.3263" lon="3.57391">
        <ele>1031.15</ele>
        <time>2015-05-10T13:03:01Z</time>
      </trkpt>
      <trkpt lat="44.3263" lon="3.57391">
        <ele>1031.15</ele>
        <time>2015-05-10T13:03:20Z</time>
      </trkpt>
      <trkpt lat="44.3263" lon="3.5739">
        <ele>1031.63</ele>
        <time>2015-05-10T13:03:43Z</time>
      </trkpt>
      <trkpt lat="44.32631" lon="3.5739">
        <ele>1031.15</ele>
        <time>2015-05-10T13:04:09Z</time>
      </trkpt>
      <trkpt lat="44.32631" lon="3.57389">
        <ele>1031.15</ele>
        <time>2015-05-10T13:04:26Z</time>
      </trkpt>
      <trkpt lat="44.32631" lon="3.57389">
        <ele>1029.23</ele>
        <time>2015-05-10T13:04:40Z</time>
      </trkpt>
      <trkpt lat="44.32634" lon="3.57392">
        <ele>1028.27</ele>
        <time>2015-05-10T13:04:49Z</time>
      </trkpt>
      <trkpt lat="44.32637" lon="3.57396">
        <ele>1027.79</ele>
        <time>2015-05-10T13:05:03Z</time>
      </trkpt>
      <trkpt lat="44.32636" lon="3.57391">
        <ele>1027.31</ele>
        <time>2015-05-10T13:05:18Z</time>
      </trkpt>
      <trkpt lat="44.32636" lon="3.57389">
        <ele>1028.27</ele>
        <time>2015-05-10T13:05:35Z</time>
      </trkpt>
      <trkpt lat="44.32636" lon="3.57389">
        <ele>1027.79</ele>
        <time>2015-05-10T13:05:49Z</time>
      </trkpt>
      <trkpt lat="44.32636" lon="3.57389">
        <ele>1027.31</ele>
        <time>2015-05-10T13:05:50Z</time>
      </trkpt>
      <trkpt lat="44.32639" lon="3.57394">
        <ele>1028.27</ele>
        <time>2015-05-10T13:06:06Z</time>
      </trkpt>
      <trkpt lat="44.32637" lon="3.57391">
        <ele>1027.79</ele>
        <time>2015-05-10T13:06:17Z</time>
      </trkpt>
      <trkpt lat="44.32637" lon="3.57386">
        <ele>1028.27</ele>
        <time>2015-05-10T13:06:22Z</time>
      </trkpt>
      <trkpt lat="44.32643" lon="3.57377">
        <ele>1029.23</ele>
        <time>2015-05-10T13:06:35Z</time>
      </trkpt>
      <trkpt lat="44.32642" lon="3.57372">
        <ele>1029.23</ele>
        <time>2015-05-10T13:06:49Z</time>
      </trkpt>
      <trkpt lat="44.32642" lon="3.57363">
        <ele>1026.34</ele>
        <time>2015-05-10T13:07:03Z</time>
      </trkpt>
      <trkpt lat="44.32636" lon="3.57359">
        <ele>1026.34</ele>
        <time>2015-05-10T13:07:17Z</time>
      </trkpt>
      <trkpt lat="44.32633" lon="3.5736">
        <ele>1025.38</ele>
        <time>2015-05-10T13:07:21Z</time>
      </trkpt>
      <trkpt lat="44.3263" lon="3.57355">
        <ele>1024.42</ele>
        <time>2015-05-10T13:07:34Z</time>
      </trkpt>
      <trkpt lat="44.32623" lon="3.57349">
        <ele>1023.94</ele>
        <time>2015-05-10T13:07:48Z</time>
      </trkpt>
      <trkpt lat="44.32619" lon="3.57349">
        <ele>1022.98</ele>
        <time>2015-05-10T13:08:02Z</time>
      </trkpt>
      <trkpt lat="44.3261" lon="3.57352">
        <ele>1023.46</ele>
        <time>2015-05-10T13:08:15Z</time>
      </trkpt>
      <trkpt lat="44.32604" lon="3.57352">
        <ele>1025.38</ele>
        <time>2015-05-10T13:08:25Z</time>
      </trkpt>
      <trkpt lat="44.32594" lon="3.57356">
        <ele>1027.79</ele>
        <time>2015-05-10T13:08:40Z</time>
      </trkpt>
      <trkpt lat="44.32587" lon="3.57359">
        <ele>1029.23</ele>
        <time>2015-05-10T13:08:54Z</time>
      </trkpt>
      <trkpt lat="44.32586" lon="3.57359">
        <ele>1030.19</ele>
        <time>2015-05-10T13:09:09Z</time>
      </trkpt>
      <trkpt lat="44.32582" lon="3.57361">
        <ele>1031.63</ele>
        <time>2015-05-10T13:09:25Z</time>
      </trkpt>
      <trkpt lat="44.32576" lon="3.57363">
        <ele>1033.55</ele>
        <time>2015-05-10T13:09:40Z</time>
      </trkpt>
      <trkpt lat="44.32574" lon="3.57364">
        <ele>1034.04</ele>
        <time>2015-05-10T13:10:00Z</time>
      </trkpt>
      <trkpt lat="44.32572" lon="3.57365">
        <ele>1034.52</ele>
        <time>2015-05-10T13:10:26Z</time>
      </trkpt>
      <trkpt lat="44.32571" lon="3.57365">
        <ele>1035</ele>
        <time>2015-05-10T13:10:42Z</time>
      </trkpt>
      <trkpt lat="44.32571" lon="3.57365">
        <ele>1035.96</ele>
        <time>2015-05-10T13:11:02Z</time>
      </trkpt>
      <trkpt lat="44.3257" lon="3.57365">
        <ele>1036.44</ele>
        <time>2015-05-10T13:11:26Z</time>
      </trkpt>
      <trkpt lat="44.3257" lon="3.57364">
        <ele>1036.92</ele>
        <time>2015-05-10T13:11:42Z</time>
      </trkpt>
      <trkpt lat="44.32571" lon="3.57362">
        <ele>1035.96</ele>
        <time>2015-05-10T13:12:03Z</time>
      </trkpt>
      <trkpt lat="44.32571" lon="3.57363">
        <ele>1035.48</ele>
        <time>2015-05-10T13:12:21Z</time>
      </trkpt>
      <trkpt lat="44.32571" lon="3.57362">
        <ele>1034.52</ele>
        <time>2015-05-10T13:12:36Z</time>
      </trkpt>
      <trkpt lat="44.32573" lon="3.57361">
        <ele>1033.55</ele>
        <time>2015-05-10T13:12:52Z</time>
      </trkpt>
      <trkpt lat="44.32575" lon="3.57358">
        <ele>1032.11</ele>
        <time>2015-05-10T13:13:08Z</time>
      </trkpt>
      <trkpt lat="44.32585" lon="3.57357">
        <ele>1030.19</ele>
        <time>2015-05-10T13:13:24Z</time>
      </trkpt>
      <trkpt lat="44.32585" lon="3.57367">
        <ele>1030.19</ele>
        <time>2015-05-10T13:13:35Z</time>
      </trkpt>
      <trkpt lat="44.32579" lon="3.57373">
        <ele>1033.07</ele>
        <time>2015-05-10T13:13:50Z</time>
      </trkpt>
      <trkpt lat="44.32575" lon="3.57384">
        <ele>1032.59</ele>
        <time>2015-05-10T13:14:02Z</time>
      </trkpt>
      <trkpt lat="44.32573" lon="3.57387">
        <ele>1032.59</ele>
        <time>2015-05-10T13:14:06Z</time>
      </trkpt>
      <trkpt lat="44.32567" lon="3.57393">
        <ele>1032.11</ele>
        <time>2015-05-10T13:14:12Z</time>
      </trkpt>
      <trkpt lat="44.3256" lon="3.574">
        <ele>1029.71</ele>
        <time>2015-05-10T13:14:25Z</time>
      </trkpt>
      <trkpt lat="44.32556" lon="3.57409">
        <ele>1027.79</ele>
        <time>2015-05-10T13:14:33Z</time>
      </trkpt>
      <trkpt lat="44.32553" lon="3.57422">
        <ele>1029.23</ele>
        <time>2015-05-10T13:14:48Z</time>
      </trkpt>
      <trkpt lat="44.32547" lon="3.57434">
        <ele>1027.79</ele>
        <time>2015-05-10T13:14:59Z</time>
      </trkpt>
      <trkpt lat="44.32533" lon="3.57448">
        <ele>1025.86</ele>
        <time>2015-05-10T13:15:15Z</time>
      </trkpt>
      <trkpt lat="44.32532" lon="3.57448">
        <ele>1025.86</ele>
        <time>2015-05-10T13:15:16Z</time>
      </trkpt>
      <trkpt lat="44.32527" lon="3.57447">
        <ele>1026.34</ele>
        <time>2015-05-10T13:15:21Z</time>
      </trkpt>
      <trkpt lat="44.32519" lon="3.57449">
        <ele>1025.38</ele>
        <time>2015-05-10T13:15:29Z</time>
      </trkpt>
      <trkpt lat="44.32515" lon="3.57451">
        <ele>1025.38</ele>
        <time>2015-05-10T13:15:33Z</time>
      </trkpt>
      <trkpt lat="44.32511" lon="3.57451">
        <ele>1025.86</ele>
        <time>2015-05-10T13:15:37Z</time>
      </trkpt>
      <trkpt lat="44.32504" lon="3.57457">
        <ele>1024.9</ele>
        <time>2015-05-10T13:15:46Z</time>
      </trkpt>
      <trkpt lat="44.32501" lon="3.57461">
        <ele>1024.42</ele>
        <time>2015-05-10T13:15:49Z</time>
      </trkpt>
      <trkpt lat="44.32497" lon="3.57469">
        <ele>1023.46</ele>
        <time>2015-05-10T13:16:02Z</time>
      </trkpt>
      <trkpt lat="44.32495" lon="3.57468">
        <ele>1023.46</ele>
        <time>2015-05-10T13:16:19Z</time>
      </trkpt>
      <trkpt lat="44.32495" lon="3.57466">
        <ele>1023.46</ele>
        <time>2015-05-10T13:16:34Z</time>
      </trkpt>
      <trkpt lat="44.32495" lon="3.57467">
        <ele>1023.46</ele>
        <time>2015-05-10T13:17:03Z</time>
      </trkpt>
      <trkpt lat="44.32494" lon="3.57472">
        <ele>1022.5</ele>
        <time>2015-05-10T13:17:15Z</time>
      </trkpt>
      <trkpt lat="44.32491" lon="3.57481">
        <ele>1022.5</ele>
        <time>2015-05-10T13:17:22Z</time>
      </trkpt>
      <trkpt lat="44.3249" lon="3.57486">
        <ele>1022.5</ele>
        <time>2015-05-10T13:17:25Z</time>
      </trkpt>
      <trkpt lat="44.32486" lon="3.575">
        <ele>1022.02</ele>
        <time>2015-05-10T13:17:38Z</time>
      </trkpt>
      <trkpt lat="44.32485" lon="3.57503">
        <ele>1022.02</ele>
        <time>2015-05-10T13:17:40Z</time>
      </trkpt>
      <trkpt lat="44.32485" lon="3.57507">
        <ele>1022.02</ele>
        <time>2015-05-10T13:17:43Z</time>
      </trkpt>
      <trkpt lat="44.32485" lon="3.57512">
        <ele>1022.5</ele>
        <time>2015-05-10T13:17:47Z</time>
      </trkpt>
      <trkpt lat="44.32485" lon="3.57515">
        <ele>1022.98</ele>
        <time>2015-05-10T13:17:49Z</time>
      </trkpt>
      <trkpt lat="44.32487" lon="3.57535">
        <ele>1022.98</ele>
        <time>2015-05-10T13:18:02Z</time>
      </trkpt>
      <trkpt lat="44.32488" lon="3.57537">
        <ele>1022.98</ele>
        <time>2015-05-10T13:18:04Z</time>
      </trkpt>
      <trkpt lat="44.3249" lon="3.57558">
        <ele>1023.94</ele>
        <time>2015-05-10T13:18:18Z</time>
      </trkpt>
      <trkpt lat="44.32486" lon="3.57573">
        <ele>1023.46</ele>
        <time>2015-05-10T13:18:29Z</time>
      </trkpt>
      <trkpt lat="44.32482" lon="3.57582">
        <ele>1021.54</ele>
        <time>2015-05-10T13:18:36Z</time>
      </trkpt>
      <trkpt lat="44.3247" lon="3.57585">
        <ele>1020.1</ele>
        <time>2015-05-10T13:18:47Z</time>
      </trkpt>
      <trkpt lat="44.32464" lon="3.57587">
        <ele>1019.62</ele>
        <time>2015-05-10T13:18:53Z</time>
      </trkpt>
      <trkpt lat="44.3246" lon="3.57586">
        <ele>1019.62</ele>
        <time>2015-05-10T13:18:57Z</time>
      </trkpt>
      <trkpt lat="44.32454" lon="3.57589">
        <ele>1019.62</ele>
        <time>2015-05-10T13:19:03Z</time>
      </trkpt>
      <trkpt lat="44.3245" lon="3.57592">
        <ele>1018.65</ele>
        <time>2015-05-10T13:19:06Z</time>
      </trkpt>
      <trkpt lat="44.32444" lon="3.57591">
        <ele>1018.65</ele>
        <time>2015-05-10T13:19:12Z</time>
      </trkpt>
      <trkpt lat="44.32442" lon="3.57589">
        <ele>1018.17</ele>
        <time>2015-05-10T13:19:15Z</time>
      </trkpt>
      <trkpt lat="44.32437" lon="3.5759">
        <ele>1018.17</ele>
        <time>2015-05-10T13:19:19Z</time>
      </trkpt>
      <trkpt lat="44.32423" lon="3.5759">
        <ele>1015.77</ele>
        <time>2015-05-10T13:19:32Z</time>
      </trkpt>
      <trkpt lat="44.32414" lon="3.57583">
        <ele>1013.85</ele>
        <time>2015-05-10T13:19:42Z</time>
      </trkpt>
      <trkpt lat="44.32405" lon="3.57576">
        <ele>1012.89</ele>
        <time>2015-05-10T13:19:52Z</time>
      </trkpt>
      <trkpt lat="44.32397" lon="3.57577">
        <ele>1011.93</ele>
        <time>2015-05-10T13:20:00Z</time>
      </trkpt>
      <trkpt lat="44.32391" lon="3.57578">
        <ele>1011.44</ele>
        <time>2015-05-10T13:20:05Z</time>
      </trkpt>
      <trkpt lat="44.32382" lon="3.57585">
        <ele>1011.44</ele>
        <time>2015-05-10T13:20:17Z</time>
      </trkpt>
      <trkpt lat="44.32374" lon="3.57592">
        <ele>1010</ele>
        <time>2015-05-10T13:20:26Z</time>
      </trkpt>
      <trkpt lat="44.32368" lon="3.57595">
        <ele>1010</ele>
        <time>2015-05-10T13:20:32Z</time>
      </trkpt>
      <trkpt lat="44.32359" lon="3.57613">
        <ele>1008.08</ele>
        <time>2015-05-10T13:20:47Z</time>
      </trkpt>
      <trkpt lat="44.32353" lon="3.57627">
        <ele>1006.64</ele>
        <time>2015-05-10T13:20:59Z</time>
      </trkpt>
      <trkpt lat="44.32352" lon="3.57628">
        <ele>1007.12</ele>
        <time>2015-05-10T13:21:02Z</time>
      </trkpt>
      <trkpt lat="44.32351" lon="3.57633">
        <ele>1006.64</ele>
        <time>2015-05-10T13:21:06Z</time>
      </trkpt>
      <trkpt lat="44.32346" lon="3.57645">
        <ele>1004.23</ele>
        <time>2015-05-10T13:21:16Z</time>
      </trkpt>
      <trkpt lat="44.32343" lon="3.57648">
        <ele>1004.72</ele>
        <time>2015-05-10T13:21:19Z</time>
      </trkpt>
      <trkpt lat="44.32342" lon="3.57651">
        <ele>1004.72</ele>
        <time>2015-05-10T13:21:21Z</time>
      </trkpt>
      <trkpt lat="44.32337" lon="3.5766">
        <ele>1003.75</ele>
        <time>2015-05-10T13:21:35Z</time>
      </trkpt>
      <trkpt lat="44.32334" lon="3.57674">
        <ele>1003.27</ele>
        <time>2015-05-10T13:21:47Z</time>
      </trkpt>
      <trkpt lat="44.32333" lon="3.57681">
        <ele>1002.31</ele>
        <time>2015-05-10T13:21:54Z</time>
      </trkpt>
      <trkpt lat="44.32332" lon="3.57685">
        <ele>1001.83</ele>
        <time>2015-05-10T13:21:56Z</time>
      </trkpt>
      <trkpt lat="44.32329" lon="3.57697">
        <ele>1001.35</ele>
        <time>2015-05-10T13:22:05Z</time>
      </trkpt>
      <trkpt lat="44.32326" lon="3.57706">
        <ele>1001.83</ele>
        <time>2015-05-10T13:22:18Z</time>
      </trkpt>
      <trkpt lat="44.32326" lon="3.57709">
        <ele>1001.83</ele>
        <time>2015-05-10T13:22:21Z</time>
      </trkpt>
      <trkpt lat="44.32325" lon="3.57729">
        <ele>1002.79</ele>
        <time>2015-05-10T13:22:36Z</time>
      </trkpt>
      <trkpt lat="44.32324" lon="3.57746">
        <ele>1003.27</ele>
        <time>2015-05-10T13:22:49Z</time>
      </trkpt>
      <trkpt lat="44.3232" lon="3.57757">
        <ele>1001.35</ele>
        <time>2015-05-10T13:23:01Z</time>
      </trkpt>
      <trkpt lat="44.3232" lon="3.57758">
        <ele>1001.35</ele>
        <time>2015-05-10T13:23:02Z</time>
      </trkpt>
      <trkpt lat="44.32315" lon="3.57763">
        <ele>1001.35</ele>
        <time>2015-05-10T13:23:09Z</time>
      </trkpt>
      <trkpt lat="44.32304" lon="3.57772">
        <ele>1000.39</ele>
        <time>2015-05-10T13:23:22Z</time>
      </trkpt>
      <trkpt lat="44.32303" lon="3.57772">
        <ele>1000.39</ele>
        <time>2015-05-10T13:23:23Z</time>
      </trkpt>
      <trkpt lat="44.323" lon="3.57773">
        <ele>1000.87</ele>
        <time>2015-05-10T13:23:26Z</time>
      </trkpt>
      <trkpt lat="44.32295" lon="3.57778">
        <ele>1001.35</ele>
        <time>2015-05-10T13:23:33Z</time>
      </trkpt>
      <trkpt lat="44.32292" lon="3.57783">
        <ele>1000.87</ele>
        <time>2015-05-10T13:23:37Z</time>
      </trkpt>
      <trkpt lat="44.32287" lon="3.5779">
        <ele>1001.35</ele>
        <time>2015-05-10T13:23:44Z</time>
      </trkpt>
      <trkpt lat="44.32276" lon="3.57793">
        <ele>1001.83</ele>
        <time>2015-05-10T13:23:55Z</time>
      </trkpt>
      <trkpt lat="44.32275" lon="3.57797">
        <ele>1000.87</ele>
        <time>2015-05-10T13:23:59Z</time>
      </trkpt>
      <trkpt lat="44.32265" lon="3.57808">
        <ele>1000.87</ele>
        <time>2015-05-10T13:24:14Z</time>
      </trkpt>
      <trkpt lat="44.32255" lon="3.57819">
        <ele>999.91</ele>
        <time>2015-05-10T13:24:28Z</time>
      </trkpt>
      <trkpt lat="44.32245" lon="3.5783">
        <ele>1001.83</ele>
        <time>2015-05-10T13:24:42Z</time>
      </trkpt>
      <trkpt lat="44.32237" lon="3.57841">
        <ele>1003.27</ele>
        <time>2015-05-10T13:24:55Z</time>
      </trkpt>
      <trkpt lat="44.32232" lon="3.57846">
        <ele>1004.23</ele>
        <time>2015-05-10T13:25:01Z</time>
      </trkpt>
      <trkpt lat="44.32229" lon="3.5785">
        <ele>1004.23</ele>
        <time>2015-05-10T13:25:05Z</time>
      </trkpt>
      <trkpt lat="44.32217" lon="3.5786">
        <ele>1006.16</ele>
        <time>2015-05-10T13:25:21Z</time>
      </trkpt>
      <trkpt lat="44.32209" lon="3.5787">
        <ele>1008.08</ele>
        <time>2015-05-10T13:25:35Z</time>
      </trkpt>
      <trkpt lat="44.32205" lon="3.57873">
        <ele>1009.52</ele>
        <time>2015-05-10T13:25:40Z</time>
      </trkpt>
      <trkpt lat="44.32201" lon="3.57877">
        <ele>1009.52</ele>
        <time>2015-05-10T13:25:45Z</time>
      </trkpt>
      <trkpt lat="44.32196" lon="3.57885">
        <ele>1010</ele>
        <time>2015-05-10T13:25:52Z</time>
      </trkpt>
      <trkpt lat="44.32192" lon="3.57888">
        <ele>1010</ele>
        <time>2015-05-10T13:25:57Z</time>
      </trkpt>
      <trkpt lat="44.32181" lon="3.57888">
        <ele>1011.44</ele>
        <time>2015-05-10T13:26:09Z</time>
      </trkpt>
      <trkpt lat="44.32171" lon="3.57887">
        <ele>1011.44</ele>
        <time>2015-05-10T13:26:23Z</time>
      </trkpt>
      <trkpt lat="44.32171" lon="3.57887">
        <ele>1011.44</ele>
        <time>2015-05-10T13:26:30Z</time>
      </trkpt>
      <trkpt lat="44.32159" lon="3.57898">
        <ele>1010.96</ele>
        <time>2015-05-10T13:26:42Z</time>
      </trkpt>
      <trkpt lat="44.32156" lon="3.579">
        <ele>1010.96</ele>
        <time>2015-05-10T13:26:46Z</time>
      </trkpt>
      <trkpt lat="44.32154" lon="3.57902">
        <ele>1010.48</ele>
        <time>2015-05-10T13:26:48Z</time>
      </trkpt>
      <trkpt lat="44.3215" lon="3.57905">
        <ele>1010.96</ele>
        <time>2015-05-10T13:26:52Z</time>
      </trkpt>
      <trkpt lat="44.32137" lon="3.57914">
        <ele>1012.41</ele>
        <time>2015-05-10T13:27:06Z</time>
      </trkpt>
      <trkpt lat="44.32126" lon="3.57928">
        <ele>1012.89</ele>
        <time>2015-05-10T13:27:19Z</time>
      </trkpt>
      <trkpt lat="44.32113" lon="3.57939">
        <ele>1013.85</ele>
        <time>2015-05-10T13:27:33Z</time>
      </trkpt>
      <trkpt lat="44.32106" lon="3.57949">
        <ele>1013.85</ele>
        <time>2015-05-10T13:27:42Z</time>
      </trkpt>
      <trkpt lat="44.32089" lon="3.5796">
        <ele>1014.33</ele>
        <time>2015-05-10T13:27:59Z</time>
      </trkpt>
      <trkpt lat="44.32079" lon="3.57964">
        <ele>1015.29</ele>
        <time>2015-05-10T13:28:14Z</time>
      </trkpt>
      <trkpt lat="44.32072" lon="3.57971">
        <ele>1016.25</ele>
        <time>2015-05-10T13:28:25Z</time>
      </trkpt>
      <trkpt lat="44.32068" lon="3.57978">
        <ele>1016.25</ele>
        <time>2015-05-10T13:28:32Z</time>
      </trkpt>
      <trkpt lat="44.32066" lon="3.5798">
        <ele>1016.25</ele>
        <time>2015-05-10T13:28:34Z</time>
      </trkpt>
      <trkpt lat="44.32058" lon="3.57989">
        <ele>1017.21</ele>
        <time>2015-05-10T13:28:45Z</time>
      </trkpt>
      <trkpt lat="44.32056" lon="3.57991">
        <ele>1017.21</ele>
        <time>2015-05-10T13:28:47Z</time>
      </trkpt>
      <trkpt lat="44.32053" lon="3.57995">
        <ele>1016.73</ele>
        <time>2015-05-10T13:28:51Z</time>
      </trkpt>
      <trkpt lat="44.3205" lon="3.57996">
        <ele>1017.21</ele>
        <time>2015-05-10T13:28:54Z</time>
      </trkpt>
      <trkpt lat="44.32039" lon="3.57999">
        <ele>1017.21</ele>
        <time>2015-05-10T13:29:07Z</time>
      </trkpt>
      <trkpt lat="44.32037" lon="3.58001">
        <ele>1017.21</ele>
        <time>2015-05-10T13:29:12Z</time>
      </trkpt>
      <trkpt lat="44.32028" lon="3.58009">
        <ele>1018.65</ele>
        <time>2015-05-10T13:29:24Z</time>
      </trkpt>
      <trkpt lat="44.32023" lon="3.58013">
        <ele>1018.65</ele>
        <time>2015-05-10T13:29:30Z</time>
      </trkpt>
      <trkpt lat="44.32019" lon="3.58016">
        <ele>1018.65</ele>
        <time>2015-05-10T13:29:34Z</time>
      </trkpt>
      <trkpt lat="44.32012" lon="3.58018">
        <ele>1018.17</ele>
        <time>2015-05-10T13:29:41Z</time>
      </trkpt>
      <trkpt lat="44.31999" lon="3.58023">
        <ele>1016.73</ele>
        <time>2015-05-10T13:29:53Z</time>
      </trkpt>
      <trkpt lat="44.31996" lon="3.58022">
        <ele>1016.73</ele>
        <time>2015-05-10T13:29:56Z</time>
      </trkpt>
      <trkpt lat="44.31992" lon="3.58025">
        <ele>1017.21</ele>
        <time>2015-05-10T13:30:00Z</time>
      </trkpt>
      <trkpt lat="44.31984" lon="3.58036">
        <ele>1016.25</ele>
        <time>2015-05-10T13:30:15Z</time>
      </trkpt>
      <trkpt lat="44.31983" lon="3.58035">
        <ele>1016.25</ele>
        <time>2015-05-10T13:30:32Z</time>
      </trkpt>
      <trkpt lat="44.31983" lon="3.58034">
        <ele>1015.77</ele>
        <time>2015-05-10T13:30:59Z</time>
      </trkpt>
      <trkpt lat="44.31982" lon="3.58033">
        <ele>1015.29</ele>
        <time>2015-05-10T13:31:29Z</time>
      </trkpt>
      <trkpt lat="44.31982" lon="3.58032">
        <ele>1016.25</ele>
        <time>2015-05-10T13:31:58Z</time>
      </trkpt>
      <trkpt lat="44.31981" lon="3.58033">
        <ele>1016.25</ele>
        <time>2015-05-10T13:32:19Z</time>
      </trkpt>
      <trkpt lat="44.31981" lon="3.58033">
        <ele>1016.73</ele>
        <time>2015-05-10T13:32:42Z</time>
      </trkpt>
      <trkpt lat="44.31981" lon="3.58033">
        <ele>1016.25</ele>
        <time>2015-05-10T13:33:05Z</time>
      </trkpt>
      <trkpt lat="44.31982" lon="3.58033">
        <ele>1016.73</ele>
        <time>2015-05-10T13:33:29Z</time>
      </trkpt>
      <trkpt lat="44.31981" lon="3.58033">
        <ele>1016.73</ele>
        <time>2015-05-10T13:33:55Z</time>
      </trkpt>
      <trkpt lat="44.3198" lon="3.58037">
        <ele>1017.69</ele>
        <time>2015-05-10T13:34:11Z</time>
      </trkpt>
      <trkpt lat="44.31974" lon="3.58046">
        <ele>1020.1</ele>
        <time>2015-05-10T13:34:25Z</time>
      </trkpt>
      <trkpt lat="44.31973" lon="3.58049">
        <ele>1020.58</ele>
        <time>2015-05-10T13:34:28Z</time>
      </trkpt>
      <trkpt lat="44.31973" lon="3.58063">
        <ele>1020.1</ele>
        <time>2015-05-10T13:34:42Z</time>
      </trkpt>
      <trkpt lat="44.31972" lon="3.58065">
        <ele>1020.1</ele>
        <time>2015-05-10T13:34:44Z</time>
      </trkpt>
      <trkpt lat="44.31973" lon="3.58081">
        <ele>1019.62</ele>
        <time>2015-05-10T13:34:56Z</time>
      </trkpt>
      <trkpt lat="44.31974" lon="3.58086">
        <ele>1019.13</ele>
        <time>2015-05-10T13:35:03Z</time>
      </trkpt>
      <trkpt lat="44.31973" lon="3.58097">
        <ele>1019.62</ele>
        <time>2015-05-10T13:35:18Z</time>
      </trkpt>
      <trkpt lat="44.31973" lon="3.58098">
        <ele>1019.62</ele>
        <time>2015-05-10T13:35:37Z</time>
      </trkpt>
      <trkpt lat="44.3197" lon="3.58105">
        <ele>1020.1</ele>
        <time>2015-05-10T13:35:50Z</time>
      </trkpt>
      <trkpt lat="44.31968" lon="3.58108">
        <ele>1019.62</ele>
        <time>2015-05-10T13:35:53Z</time>
      </trkpt>
      <trkpt lat="44.31957" lon="3.58121">
        <ele>1020.1</ele>
        <time>2015-05-10T13:36:08Z</time>
      </trkpt>
      <trkpt lat="44.31948" lon="3.58135">
        <ele>1019.13</ele>
        <time>2015-05-10T13:36:21Z</time>
      </trkpt>
      <trkpt lat="44.31942" lon="3.5814">
        <ele>1019.62</ele>
        <time>2015-05-10T13:36:38Z</time>
      </trkpt>
      <trkpt lat="44.31937" lon="3.58142">
        <ele>1020.1</ele>
        <time>2015-05-10T13:36:44Z</time>
      </trkpt>
      <trkpt lat="44.31925" lon="3.58157">
        <ele>1018.65</ele>
        <time>2015-05-10T13:36:58Z</time>
      </trkpt>
      <trkpt lat="44.31914" lon="3.58168">
        <ele>1018.65</ele>
        <time>2015-05-10T13:37:11Z</time>
      </trkpt>
      <trkpt lat="44.31906" lon="3.58178">
        <ele>1018.65</ele>
        <time>2015-05-10T13:37:23Z</time>
      </trkpt>
      <trkpt lat="44.31904" lon="3.58181">
        <ele>1018.65</ele>
        <time>2015-05-10T13:37:26Z</time>
      </trkpt>
      <trkpt lat="44.31896" lon="3.58189">
        <ele>1018.65</ele>
        <time>2015-05-10T13:37:37Z</time>
      </trkpt>
      <trkpt lat="44.31894" lon="3.58192">
        <ele>1019.13</ele>
        <time>2015-05-10T13:37:40Z</time>
      </trkpt>
      <trkpt lat="44.31889" lon="3.58199">
        <ele>1019.13</ele>
        <time>2015-05-10T13:37:48Z</time>
      </trkpt>
      <trkpt lat="44.31885" lon="3.58205">
        <ele>1019.62</ele>
        <time>2015-05-10T13:37:53Z</time>
      </trkpt>
      <trkpt lat="44.31878" lon="3.58214">
        <ele>1019.62</ele>
        <time>2015-05-10T13:38:01Z</time>
      </trkpt>
      <trkpt lat="44.31873" lon="3.58223">
        <ele>1020.1</ele>
        <time>2015-05-10T13:38:09Z</time>
      </trkpt>
      <trkpt lat="44.31867" lon="3.58234">
        <ele>1020.1</ele>
        <time>2015-05-10T13:38:18Z</time>
      </trkpt>
      <trkpt lat="44.3186" lon="3.58249">
        <ele>1020.1</ele>
        <time>2015-05-10T13:38:30Z</time>
      </trkpt>
      <trkpt lat="44.31856" lon="3.58256">
        <ele>1020.1</ele>
        <time>2015-05-10T13:38:35Z</time>
      </trkpt>
      <trkpt lat="44.31855" lon="3.58262">
        <ele>1020.1</ele>
        <time>2015-05-10T13:38:39Z</time>
      </trkpt>
      <trkpt lat="44.31847" lon="3.58282">
        <ele>1019.62</ele>
        <time>2015-05-10T13:38:52Z</time>
      </trkpt>
      <trkpt lat="44.31837" lon="3.58299">
        <ele>1020.1</ele>
        <time>2015-05-10T13:39:06Z</time>
      </trkpt>
      <trkpt lat="44.31824" lon="3.58309">
        <ele>1018.65</ele>
        <time>2015-05-10T13:39:20Z</time>
      </trkpt>
      <trkpt lat="44.31819" lon="3.58317">
        <ele>1017.69</ele>
        <time>2015-05-10T13:39:27Z</time>
      </trkpt>
      <trkpt lat="44.31811" lon="3.5833">
        <ele>1017.69</ele>
        <time>2015-05-10T13:39:41Z</time>
      </trkpt>
      <trkpt lat="44.31811" lon="3.58331">
        <ele>1016.25</ele>
        <time>2015-05-10T13:39:47Z</time>
      </trkpt>
      <trkpt lat="44.31805" lon="3.58344">
        <ele>1017.69</ele>
        <time>2015-05-10T13:39:59Z</time>
      </trkpt>
      <trkpt lat="44.31805" lon="3.58352">
        <ele>1016.73</ele>
        <time>2015-05-10T13:40:05Z</time>
      </trkpt>
      <trkpt lat="44.31804" lon="3.58369">
        <ele>1017.21</ele>
        <time>2015-05-10T13:40:18Z</time>
      </trkpt>
      <trkpt lat="44.31804" lon="3.58382">
        <ele>1019.13</ele>
        <time>2015-05-10T13:40:30Z</time>
      </trkpt>
      <trkpt lat="44.31805" lon="3.58386">
        <ele>1019.13</ele>
        <time>2015-05-10T13:40:33Z</time>
      </trkpt>
      <trkpt lat="44.31804" lon="3.58393">
        <ele>1019.62</ele>
        <time>2015-05-10T13:40:38Z</time>
      </trkpt>
      <trkpt lat="44.31802" lon="3.58402">
        <ele>1019.13</ele>
        <time>2015-05-10T13:40:52Z</time>
      </trkpt>
      <trkpt lat="44.31797" lon="3.58409">
        <ele>1019.62</ele>
        <time>2015-05-10T13:41:06Z</time>
      </trkpt>
      <trkpt lat="44.3179" lon="3.58408">
        <ele>1019.62</ele>
        <time>2015-05-10T13:41:19Z</time>
      </trkpt>
      <trkpt lat="44.31786" lon="3.58409">
        <ele>1018.65</ele>
        <time>2015-05-10T13:41:23Z</time>
      </trkpt>
      <trkpt lat="44.31776" lon="3.58415">
        <ele>1018.65</ele>
        <time>2015-05-10T13:41:31Z</time>
      </trkpt>
      <trkpt lat="44.3177" lon="3.58425">
        <ele>1018.65</ele>
        <time>2015-05-10T13:41:39Z</time>
      </trkpt>
      <trkpt lat="44.3177" lon="3.58446">
        <ele>1017.69</ele>
        <time>2015-05-10T13:41:52Z</time>
      </trkpt>
      <trkpt lat="44.31761" lon="3.58465">
        <ele>1017.69</ele>
        <time>2015-05-10T13:42:07Z</time>
      </trkpt>
      <trkpt lat="44.31758" lon="3.5847">
        <ele>1018.17</ele>
        <time>2015-05-10T13:42:21Z</time>
      </trkpt>
      <trkpt lat="44.31756" lon="3.58473">
        <ele>1020.58</ele>
        <time>2015-05-10T13:42:39Z</time>
      </trkpt>
      <trkpt lat="44.31751" lon="3.58479">
        <ele>1019.62</ele>
        <time>2015-05-10T13:42:45Z</time>
      </trkpt>
      <trkpt lat="44.31746" lon="3.58486">
        <ele>1020.58</ele>
        <time>2015-05-10T13:42:52Z</time>
      </trkpt>
      <trkpt lat="44.31745" lon="3.5849">
        <ele>1020.58</ele>
        <time>2015-05-10T13:42:55Z</time>
      </trkpt>
      <trkpt lat="44.31743" lon="3.58493">
        <ele>1020.1</ele>
        <time>2015-05-10T13:42:58Z</time>
      </trkpt>
      <trkpt lat="44.3174" lon="3.58496">
        <ele>1020.1</ele>
        <time>2015-05-10T13:43:14Z</time>
      </trkpt>
      <trkpt lat="44.31739" lon="3.58496">
        <ele>1020.1</ele>
        <time>2015-05-10T13:43:35Z</time>
      </trkpt>
      <trkpt lat="44.31735" lon="3.58496">
        <ele>1020.1</ele>
        <time>2015-05-10T13:43:51Z</time>
      </trkpt>
      <trkpt lat="44.31733" lon="3.58498">
        <ele>1020.58</ele>
        <time>2015-05-10T13:44:06Z</time>
      </trkpt>
      <trkpt lat="44.31726" lon="3.58497">
        <ele>1021.06</ele>
        <time>2015-05-10T13:44:18Z</time>
      </trkpt>
      <trkpt lat="44.31716" lon="3.58499">
        <ele>1021.54</ele>
        <time>2015-05-10T13:44:28Z</time>
      </trkpt>
      <trkpt lat="44.31704" lon="3.58515">
        <ele>1021.06</ele>
        <time>2015-05-10T13:44:42Z</time>
      </trkpt>
      <trkpt lat="44.31699" lon="3.58521">
        <ele>1021.54</ele>
        <time>2015-05-10T13:44:48Z</time>
      </trkpt>
      <trkpt lat="44.31689" lon="3.58534">
        <ele>1023.46</ele>
        <time>2015-05-10T13:45:02Z</time>
      </trkpt>
      <trkpt lat="44.31675" lon="3.58535">
        <ele>1023.46</ele>
        <time>2015-05-10T13:45:16Z</time>
      </trkpt>
      <trkpt lat="44.31672" lon="3.58537">
        <ele>1024.9</ele>
        <time>2015-05-10T13:45:30Z</time>
      </trkpt>
      <trkpt lat="44.3167" lon="3.58537">
        <ele>1024.42</ele>
        <time>2015-05-10T13:45:59Z</time>
      </trkpt>
      <trkpt lat="44.3167" lon="3.58536">
        <ele>1024.42</ele>
        <time>2015-05-10T13:46:18Z</time>
      </trkpt>
      <trkpt lat="44.31663" lon="3.58542">
        <ele>1024.42</ele>
        <time>2015-05-10T13:46:28Z</time>
      </trkpt>
      <trkpt lat="44.3166" lon="3.58545">
        <ele>1023.94</ele>
        <time>2015-05-10T13:46:32Z</time>
      </trkpt>
      <trkpt lat="44.3165" lon="3.58559">
        <ele>1025.86</ele>
        <time>2015-05-10T13:46:47Z</time>
      </trkpt>
      <trkpt lat="44.31641" lon="3.5857">
        <ele>1027.31</ele>
        <time>2015-05-10T13:46:58Z</time>
      </trkpt>
      <trkpt lat="44.31639" lon="3.58572">
        <ele>1027.31</ele>
        <time>2015-05-10T13:47:01Z</time>
      </trkpt>
      <trkpt lat="44.3163" lon="3.5859">
        <ele>1026.83</ele>
        <time>2015-05-10T13:47:16Z</time>
      </trkpt>
      <trkpt lat="44.3163" lon="3.58592">
        <ele>1027.31</ele>
        <time>2015-05-10T13:47:18Z</time>
      </trkpt>
      <trkpt lat="44.31627" lon="3.58604">
        <ele>1027.79</ele>
        <time>2015-05-10T13:47:26Z</time>
      </trkpt>
      <trkpt lat="44.31625" lon="3.58607">
        <ele>1028.27</ele>
        <time>2015-05-10T13:47:29Z</time>
      </trkpt>
      <trkpt lat="44.31621" lon="3.58619">
        <ele>1029.23</ele>
        <time>2015-05-10T13:47:38Z</time>
      </trkpt>
      <trkpt lat="44.31622" lon="3.58637">
        <ele>1028.75</ele>
        <time>2015-05-10T13:47:51Z</time>
      </trkpt>
      <trkpt lat="44.31624" lon="3.58641">
        <ele>1028.75</ele>
        <time>2015-05-10T13:47:54Z</time>
      </trkpt>
      <trkpt lat="44.31627" lon="3.58648">
        <ele>1028.75</ele>
        <time>2015-05-10T13:48:00Z</time>
      </trkpt>
      <trkpt lat="44.3163" lon="3.58659">
        <ele>1029.71</ele>
        <time>2015-05-10T13:48:14Z</time>
      </trkpt>
      <trkpt lat="44.3163" lon="3.5866">
        <ele>1030.19</ele>
        <time>2015-05-10T13:48:36Z</time>
      </trkpt>
      <trkpt lat="44.31632" lon="3.58662">
        <ele>1029.71</ele>
        <time>2015-05-10T13:48:43Z</time>
      </trkpt>
      <trkpt lat="44.31634" lon="3.58664">
        <ele>1029.71</ele>
        <time>2015-05-10T13:48:46Z</time>
      </trkpt>
      <trkpt lat="44.31639" lon="3.58667">
        <ele>1029.71</ele>
        <time>2015-05-10T13:48:51Z</time>
      </trkpt>
      <trkpt lat="44.31641" lon="3.58668">
        <ele>1030.19</ele>
        <time>2015-05-10T13:48:54Z</time>
      </trkpt>
      <trkpt lat="44.3165" lon="3.58669">
        <ele>1029.23</ele>
        <time>2015-05-10T13:49:04Z</time>
      </trkpt>
      <trkpt lat="44.31665" lon="3.58667">
        <ele>1027.31</ele>
        <time>2015-05-10T13:49:19Z</time>
      </trkpt>
      <trkpt lat="44.31675" lon="3.58667">
        <ele>1025.86</ele>
        <time>2015-05-10T13:49:28Z</time>
      </trkpt>
      <trkpt lat="44.31688" lon="3.58662">
        <ele>1025.38</ele>
        <time>2015-05-10T13:49:42Z</time>
      </trkpt>
      <trkpt lat="44.31692" lon="3.58668">
        <ele>1023.94</ele>
        <time>2015-05-10T13:49:55Z</time>
      </trkpt>
      <trkpt lat="44.31694" lon="3.58668">
        <ele>1022.98</ele>
        <time>2015-05-10T13:50:08Z</time>
      </trkpt>
      <trkpt lat="44.31698" lon="3.58664">
        <ele>1023.94</ele>
        <time>2015-05-10T13:50:13Z</time>
      </trkpt>
      <trkpt lat="44.31698" lon="3.5865">
        <ele>1023.46</ele>
        <time>2015-05-10T13:50:29Z</time>
      </trkpt>
      <trkpt lat="44.31699" lon="3.58651">
        <ele>1023.94</ele>
        <time>2015-05-10T13:50:55Z</time>
      </trkpt>
      <trkpt lat="44.317" lon="3.58653">
        <ele>1023.46</ele>
        <time>2015-05-10T13:51:02Z</time>
      </trkpt>
      <trkpt lat="44.31703" lon="3.58657">
        <ele>1023.94</ele>
        <time>2015-05-10T13:51:06Z</time>
      </trkpt>
      <trkpt lat="44.31713" lon="3.58661">
        <ele>1023.46</ele>
        <time>2015-05-10T13:51:16Z</time>
      </trkpt>
      <trkpt lat="44.31717" lon="3.58664">
        <ele>1022.98</ele>
        <time>2015-05-10T13:51:21Z</time>
      </trkpt>
      <trkpt lat="44.31719" lon="3.58667">
        <ele>1022.5</ele>
        <time>2015-05-10T13:51:36Z</time>
      </trkpt>
      <trkpt lat="44.3172" lon="3.58666">
        <ele>1022.5</ele>
        <time>2015-05-10T13:51:49Z</time>
      </trkpt>
      <trkpt lat="44.3172" lon="3.58665">
        <ele>1021.54</ele>
        <time>2015-05-10T13:52:05Z</time>
      </trkpt>
      <trkpt lat="44.3172" lon="3.58665">
        <ele>1021.54</ele>
        <time>2015-05-10T13:52:34Z</time>
      </trkpt>
      <trkpt lat="44.3172" lon="3.58665">
        <ele>1021.54</ele>
        <time>2015-05-10T13:53:08Z</time>
      </trkpt>
      <trkpt lat="44.31721" lon="3.58665">
        <ele>1021.54</ele>
        <time>2015-05-10T13:53:37Z</time>
      </trkpt>
      <trkpt lat="44.31721" lon="3.58665">
        <ele>1022.02</ele>
        <time>2015-05-10T13:54:11Z</time>
      </trkpt>
      <trkpt lat="44.31721" lon="3.58665">
        <ele>1021.54</ele>
        <time>2015-05-10T13:54:42Z</time>
      </trkpt>
      <trkpt lat="44.3172" lon="3.58665">
        <ele>1021.54</ele>
        <time>2015-05-10T13:55:14Z</time>
      </trkpt>
      <trkpt lat="44.3172" lon="3.58665">
        <ele>1021.06</ele>
        <time>2015-05-10T13:55:43Z</time>
      </trkpt>
      <trkpt lat="44.3172" lon="3.58665">
        <ele>1021.06</ele>
        <time>2015-05-10T13:56:10Z</time>
      </trkpt>
      <trkpt lat="44.3172" lon="3.58664">
        <ele>1021.06</ele>
        <time>2015-05-10T13:56:39Z</time>
      </trkpt>
      <trkpt lat="44.3172" lon="3.58664">
        <ele>1021.06</ele>
        <time>2015-05-10T13:57:05Z</time>
      </trkpt>
      <trkpt lat="44.3172" lon="3.58664">
        <ele>1021.06</ele>
        <time>2015-05-10T13:57:32Z</time>
      </trkpt>
      <trkpt lat="44.3172" lon="3.58664">
        <ele>1021.06</ele>
        <time>2015-05-10T13:57:56Z</time>
      </trkpt>
      <trkpt lat="44.31721" lon="3.58665">
        <ele>1021.54</ele>
        <time>2015-05-10T13:58:08Z</time>
      </trkpt>
      <trkpt lat="44.31721" lon="3.58665">
        <ele>1022.02</ele>
        <time>2015-05-10T13:58:30Z</time>
      </trkpt>
      <trkpt lat="44.3172" lon="3.58667">
        <ele>1022.02</ele>
        <time>2015-05-10T13:58:52Z</time>
      </trkpt>
      <trkpt lat="44.31719" lon="3.58668">
        <ele>1022.98</ele>
        <time>2015-05-10T13:59:09Z</time>
      </trkpt>
      <trkpt lat="44.31717" lon="3.58669">
        <ele>1023.46</ele>
        <time>2015-05-10T13:59:11Z</time>
      </trkpt>
      <trkpt lat="44.31701" lon="3.58671">
        <ele>1023.46</ele>
        <time>2015-05-10T13:59:25Z</time>
      </trkpt>
      <trkpt lat="44.31697" lon="3.58672">
        <ele>1022.5</ele>
        <time>2015-05-10T13:59:32Z</time>
      </trkpt>
      <trkpt lat="44.31695" lon="3.58672">
        <ele>1022.5</ele>
        <time>2015-05-10T13:59:34Z</time>
      </trkpt>
      <trkpt lat="44.3169" lon="3.58666">
        <ele>1025.38</ele>
        <time>2015-05-10T13:59:44Z</time>
      </trkpt>
      <trkpt lat="44.31686" lon="3.58666">
        <ele>1025.38</ele>
        <time>2015-05-10T13:59:48Z</time>
      </trkpt>
      <trkpt lat="44.31674" lon="3.58669">
        <ele>1025.86</ele>
        <time>2015-05-10T13:59:59Z</time>
      </trkpt>
      <trkpt lat="44.31658" lon="3.58669">
        <ele>1027.79</ele>
        <time>2015-05-10T14:00:15Z</time>
      </trkpt>
      <trkpt lat="44.31648" lon="3.5867">
        <ele>1028.75</ele>
        <time>2015-05-10T14:00:23Z</time>
      </trkpt>
      <trkpt lat="44.31646" lon="3.5867">
        <ele>1029.23</ele>
        <time>2015-05-10T14:00:25Z</time>
      </trkpt>
      <trkpt lat="44.31642" lon="3.58671">
        <ele>1029.71</ele>
        <time>2015-05-10T14:00:29Z</time>
      </trkpt>
      <trkpt lat="44.31627" lon="3.58661">
        <ele>1029.71</ele>
        <time>2015-05-10T14:00:43Z</time>
      </trkpt>
      <trkpt lat="44.31624" lon="3.5866">
        <ele>1029.71</ele>
        <time>2015-05-10T14:00:46Z</time>
      </trkpt>
      <trkpt lat="44.31613" lon="3.58655">
        <ele>1029.71</ele>
        <time>2015-05-10T14:00:59Z</time>
      </trkpt>
      <trkpt lat="44.31605" lon="3.58654">
        <ele>1030.19</ele>
        <time>2015-05-10T14:01:08Z</time>
      </trkpt>
      <trkpt lat="44.31594" lon="3.58655">
        <ele>1031.15</ele>
        <time>2015-05-10T14:01:22Z</time>
      </trkpt>
      <trkpt lat="44.31583" lon="3.58653">
        <ele>1033.55</ele>
        <time>2015-05-10T14:01:37Z</time>
      </trkpt>
      <trkpt lat="44.31578" lon="3.58648">
        <ele>1035.48</ele>
        <time>2015-05-10T14:01:50Z</time>
      </trkpt>
      <trkpt lat="44.31577" lon="3.58645">
        <ele>1036.44</ele>
        <time>2015-05-10T14:02:04Z</time>
      </trkpt>
      <trkpt lat="44.31577" lon="3.58646">
        <ele>1036.44</ele>
        <time>2015-05-10T14:02:20Z</time>
      </trkpt>
      <trkpt lat="44.31574" lon="3.58637">
        <ele>1038.84</ele>
        <time>2015-05-10T14:02:36Z</time>
      </trkpt>
      <trkpt lat="44.31568" lon="3.58628">
        <ele>1042.21</ele>
        <time>2015-05-10T14:02:48Z</time>
      </trkpt>
      <trkpt lat="44.31563" lon="3.58614">
        <ele>1045.57</ele>
        <time>2015-05-10T14:03:03Z</time>
      </trkpt>
      <trkpt lat="44.31558" lon="3.58598">
        <ele>1047.49</ele>
        <time>2015-05-10T14:03:18Z</time>
      </trkpt>
      <trkpt lat="44.31558" lon="3.58598">
        <ele>1048.45</ele>
        <time>2015-05-10T14:03:20Z</time>
      </trkpt>
      <trkpt lat="44.31559" lon="3.58591">
        <ele>1050.38</ele>
        <time>2015-05-10T14:03:26Z</time>
      </trkpt>
      <trkpt lat="44.31557" lon="3.58581">
        <ele>1052.3</ele>
        <time>2015-05-10T14:03:40Z</time>
      </trkpt>
      <trkpt lat="44.31555" lon="3.58569">
        <ele>1054.7</ele>
        <time>2015-05-10T14:03:54Z</time>
      </trkpt>
      <trkpt lat="44.31555" lon="3.58566">
        <ele>1055.67</ele>
        <time>2015-05-10T14:04:10Z</time>
      </trkpt>
      <trkpt lat="44.31555" lon="3.58566">
        <ele>1056.15</ele>
        <time>2015-05-10T14:04:25Z</time>
      </trkpt>
      <trkpt lat="44.31555" lon="3.58565">
        <ele>1055.67</ele>
        <time>2015-05-10T14:04:50Z</time>
      </trkpt>
      <trkpt lat="44.31555" lon="3.58565">
        <ele>1055.67</ele>
        <time>2015-05-10T14:05:24Z</time>
      </trkpt>
      <trkpt lat="44.31555" lon="3.58565">
        <ele>1056.15</ele>
        <time>2015-05-10T14:06:00Z</time>
      </trkpt>
      <trkpt lat="44.31555" lon="3.58566">
        <ele>1056.15</ele>
        <time>2015-05-10T14:06:27Z</time>
      </trkpt>
      <trkpt lat="44.3156" lon="3.58578">
        <ele>1054.22</ele>
        <time>2015-05-10T14:06:39Z</time>
      </trkpt>
      <trkpt lat="44.31561" lon="3.58591">
        <ele>1051.34</ele>
        <time>2015-05-10T14:06:53Z</time>
      </trkpt>
      <trkpt lat="44.31563" lon="3.58602">
        <ele>1048.45</ele>
        <time>2015-05-10T14:07:07Z</time>
      </trkpt>
      <trkpt lat="44.31568" lon="3.58615">
        <ele>1045.09</ele>
        <time>2015-05-10T14:07:21Z</time>
      </trkpt>
      <trkpt lat="44.31572" lon="3.58627">
        <ele>1041.73</ele>
        <time>2015-05-10T14:07:33Z</time>
      </trkpt>
      <trkpt lat="44.31572" lon="3.58628">
        <ele>1041.73</ele>
        <time>2015-05-10T14:07:34Z</time>
      </trkpt>
      <trkpt lat="44.31576" lon="3.5864">
        <ele>1038.36</ele>
        <time>2015-05-10T14:07:45Z</time>
      </trkpt>
      <trkpt lat="44.3158" lon="3.5865">
        <ele>1035.96</ele>
        <time>2015-05-10T14:08:00Z</time>
      </trkpt>
      <trkpt lat="44.3158" lon="3.5866">
        <ele>1032.59</ele>
        <time>2015-05-10T14:08:11Z</time>
      </trkpt>
      <trkpt lat="44.31578" lon="3.58672">
        <ele>1031.15</ele>
        <time>2015-05-10T14:08:22Z</time>
      </trkpt>
      <trkpt lat="44.31581" lon="3.5868">
        <ele>1030.19</ele>
        <time>2015-05-10T14:08:35Z</time>
      </trkpt>
      <trkpt lat="44.31574" lon="3.5868">
        <ele>1030.19</ele>
        <time>2015-05-10T14:08:50Z</time>
      </trkpt>
      <trkpt lat="44.31571" lon="3.5868">
        <ele>1029.71</ele>
        <time>2015-05-10T14:08:56Z</time>
      </trkpt>
      <trkpt lat="44.31563" lon="3.58677">
        <ele>1027.79</ele>
        <time>2015-05-10T14:09:08Z</time>
      </trkpt>
      <trkpt lat="44.31561" lon="3.58676">
        <ele>1026.83</ele>
        <time>2015-05-10T14:09:25Z</time>
      </trkpt>
      <trkpt lat="44.31554" lon="3.58672">
        <ele>1025.38</ele>
        <time>2015-05-10T14:09:38Z</time>
      </trkpt>
      <trkpt lat="44.31553" lon="3.58671">
        <ele>1025.38</ele>
        <time>2015-05-10T14:09:39Z</time>
      </trkpt>
      <trkpt lat="44.31549" lon="3.58665">
        <ele>1024.42</ele>
        <time>2015-05-10T14:09:44Z</time>
      </trkpt>
      <trkpt lat="44.31541" lon="3.58653">
        <ele>1025.38</ele>
        <time>2015-05-10T14:09:59Z</time>
      </trkpt>
      <trkpt lat="44.31531" lon="3.58639">
        <ele>1027.79</ele>
        <time>2015-05-10T14:10:15Z</time>
      </trkpt>
      <trkpt lat="44.3153" lon="3.58638">
        <ele>1027.79</ele>
        <time>2015-05-10T14:10:16Z</time>
      </trkpt>
      <trkpt lat="44.31526" lon="3.58623">
        <ele>1028.27</ele>
        <time>2015-05-10T14:10:28Z</time>
      </trkpt>
      <trkpt lat="44.31519" lon="3.58615">
        <ele>1026.34</ele>
        <time>2015-05-10T14:10:37Z</time>
      </trkpt>
      <trkpt lat="44.31515" lon="3.5861">
        <ele>1025.86</ele>
        <time>2015-05-10T14:10:42Z</time>
      </trkpt>
      <trkpt lat="44.31509" lon="3.58602">
        <ele>1026.34</ele>
        <time>2015-05-10T14:10:50Z</time>
      </trkpt>
      <trkpt lat="44.31505" lon="3.58597">
        <ele>1026.83</ele>
        <time>2015-05-10T14:10:56Z</time>
      </trkpt>
      <trkpt lat="44.31493" lon="3.58589">
        <ele>1028.27</ele>
        <time>2015-05-10T14:11:09Z</time>
      </trkpt>
      <trkpt lat="44.31485" lon="3.58586">
        <ele>1027.79</ele>
        <time>2015-05-10T14:11:17Z</time>
      </trkpt>
      <trkpt lat="44.31483" lon="3.58585">
        <ele>1027.79</ele>
        <time>2015-05-10T14:11:19Z</time>
      </trkpt>
      <trkpt lat="44.3148" lon="3.58577">
        <ele>1027.79</ele>
        <time>2015-05-10T14:11:31Z</time>
      </trkpt>
      <trkpt lat="44.31481" lon="3.58574">
        <ele>1028.27</ele>
        <time>2015-05-10T14:11:53Z</time>
      </trkpt>
      <trkpt lat="44.31482" lon="3.58575">
        <ele>1028.27</ele>
        <time>2015-05-10T14:12:25Z</time>
      </trkpt>
      <trkpt lat="44.31483" lon="3.58575">
        <ele>1027.79</ele>
        <time>2015-05-10T14:12:55Z</time>
      </trkpt>
      <trkpt lat="44.31482" lon="3.58575">
        <ele>1027.79</ele>
        <time>2015-05-10T14:13:12Z</time>
      </trkpt>
      <trkpt lat="44.31476" lon="3.58564">
        <ele>1025.86</ele>
        <time>2015-05-10T14:13:24Z</time>
      </trkpt>
      <trkpt lat="44.31474" lon="3.58561">
        <ele>1025.38</ele>
        <time>2015-05-10T14:13:26Z</time>
      </trkpt>
      <trkpt lat="44.31469" lon="3.58553">
        <ele>1026.83</ele>
        <time>2015-05-10T14:13:36Z</time>
      </trkpt>
      <trkpt lat="44.31458" lon="3.58543">
        <ele>1027.79</ele>
        <time>2015-05-10T14:13:50Z</time>
      </trkpt>
      <trkpt lat="44.31458" lon="3.58542">
        <ele>1027.79</ele>
        <time>2015-05-10T14:13:51Z</time>
      </trkpt>
      <trkpt lat="44.31453" lon="3.58541">
        <ele>1027.31</ele>
        <time>2015-05-10T14:13:55Z</time>
      </trkpt>
      <trkpt lat="44.31447" lon="3.58538">
        <ele>1027.79</ele>
        <time>2015-05-10T14:14:01Z</time>
      </trkpt>
      <trkpt lat="44.31442" lon="3.58538">
        <ele>1027.31</ele>
        <time>2015-05-10T14:14:06Z</time>
      </trkpt>
      <trkpt lat="44.31426" lon="3.58532">
        <ele>1025.86</ele>
        <time>2015-05-10T14:14:21Z</time>
      </trkpt>
      <trkpt lat="44.31424" lon="3.58532">
        <ele>1025.38</ele>
        <time>2015-05-10T14:14:23Z</time>
      </trkpt>
      <trkpt lat="44.31422" lon="3.5853">
        <ele>1024.9</ele>
        <time>2015-05-10T14:14:25Z</time>
      </trkpt>
      <trkpt lat="44.3142" lon="3.58528">
        <ele>1024.42</ele>
        <time>2015-05-10T14:14:27Z</time>
      </trkpt>
      <trkpt lat="44.31419" lon="3.58527">
        <ele>1023.94</ele>
        <time>2015-05-10T14:14:29Z</time>
      </trkpt>
      <trkpt lat="44.31411" lon="3.58522">
        <ele>1024.9</ele>
        <time>2015-05-10T14:14:38Z</time>
      </trkpt>
      <trkpt lat="44.31404" lon="3.58525">
        <ele>1025.86</ele>
        <time>2015-05-10T14:14:47Z</time>
      </trkpt>
      <trkpt lat="44.31403" lon="3.58527">
        <ele>1026.34</ele>
        <time>2015-05-10T14:14:49Z</time>
      </trkpt>
      <trkpt lat="44.31385" lon="3.5853">
        <ele>1026.34</ele>
        <time>2015-05-10T14:15:06Z</time>
      </trkpt>
      <trkpt lat="44.31376" lon="3.58524">
        <ele>1025.86</ele>
        <time>2015-05-10T14:15:20Z</time>
      </trkpt>
      <trkpt lat="44.31374" lon="3.58522">
        <ele>1025.38</ele>
        <time>2015-05-10T14:15:22Z</time>
      </trkpt>
      <trkpt lat="44.31358" lon="3.58515">
        <ele>1024.9</ele>
        <time>2015-05-10T14:15:38Z</time>
      </trkpt>
      <trkpt lat="44.31356" lon="3.58514">
        <ele>1024.9</ele>
        <time>2015-05-10T14:15:40Z</time>
      </trkpt>
      <trkpt lat="44.31342" lon="3.58506">
        <ele>1022.98</ele>
        <time>2015-05-10T14:15:54Z</time>
      </trkpt>
      <trkpt lat="44.3134" lon="3.58505">
        <ele>1022.5</ele>
        <time>2015-05-10T14:15:56Z</time>
      </trkpt>
      <trkpt lat="44.31331" lon="3.58505">
        <ele>1022.02</ele>
        <time>2015-05-10T14:16:05Z</time>
      </trkpt>
      <trkpt lat="44.31318" lon="3.58512">
        <ele>1021.54</ele>
        <time>2015-05-10T14:16:20Z</time>
      </trkpt>
      <trkpt lat="44.31309" lon="3.58513">
        <ele>1020.58</ele>
        <time>2015-05-10T14:16:28Z</time>
      </trkpt>
      <trkpt lat="44.31305" lon="3.58509">
        <ele>1020.1</ele>
        <time>2015-05-10T14:16:32Z</time>
      </trkpt>
      <trkpt lat="44.31291" lon="3.58501">
        <ele>1018.17</ele>
        <time>2015-05-10T14:16:45Z</time>
      </trkpt>
      <trkpt lat="44.31279" lon="3.58488">
        <ele>1017.21</ele>
        <time>2015-05-10T14:16:59Z</time>
      </trkpt>
      <trkpt lat="44.31278" lon="3.58487">
        <ele>1016.73</ele>
        <time>2015-05-10T14:17:00Z</time>
      </trkpt>
      <trkpt lat="44.31263" lon="3.58485">
        <ele>1016.25</ele>
        <time>2015-05-10T14:17:15Z</time>
      </trkpt>
      <trkpt lat="44.31261" lon="3.58485">
        <ele>1016.25</ele>
        <time>2015-05-10T14:17:17Z</time>
      </trkpt>
      <trkpt lat="44.3125" lon="3.58483">
        <ele>1015.77</ele>
        <time>2015-05-10T14:17:26Z</time>
      </trkpt>
      <trkpt lat="44.31246" lon="3.58481">
        <ele>1015.77</ele>
        <time>2015-05-10T14:17:30Z</time>
      </trkpt>
      <trkpt lat="44.31231" lon="3.58481">
        <ele>1016.73</ele>
        <time>2015-05-10T14:17:44Z</time>
      </trkpt>
      <trkpt lat="44.31222" lon="3.58484">
        <ele>1016.25</ele>
        <time>2015-05-10T14:17:52Z</time>
      </trkpt>
      <trkpt lat="44.31208" lon="3.58478">
        <ele>1015.77</ele>
        <time>2015-05-10T14:18:06Z</time>
      </trkpt>
      <trkpt lat="44.31205" lon="3.58477">
        <ele>1016.25</ele>
        <time>2015-05-10T14:18:09Z</time>
      </trkpt>
      <trkpt lat="44.31197" lon="3.58473">
        <ele>1015.77</ele>
        <time>2015-05-10T14:18:22Z</time>
      </trkpt>
      <trkpt lat="44.31194" lon="3.58472">
        <ele>1015.29</ele>
        <time>2015-05-10T14:18:26Z</time>
      </trkpt>
      <trkpt lat="44.31191" lon="3.58474">
        <ele>1015.29</ele>
        <time>2015-05-10T14:18:29Z</time>
      </trkpt>
      <trkpt lat="44.3119" lon="3.58477">
        <ele>1015.29</ele>
        <time>2015-05-10T14:18:33Z</time>
      </trkpt>
      <trkpt lat="44.31189" lon="3.58485">
        <ele>1014.33</ele>
        <time>2015-05-10T14:18:38Z</time>
      </trkpt>
      <trkpt lat="44.31183" lon="3.58492">
        <ele>1015.77</ele>
        <time>2015-05-10T14:18:50Z</time>
      </trkpt>
      <trkpt lat="44.31177" lon="3.58501">
        <ele>1014.81</ele>
        <time>2015-05-10T14:18:59Z</time>
      </trkpt>
      <trkpt lat="44.31176" lon="3.58504">
        <ele>1014.81</ele>
        <time>2015-05-10T14:19:02Z</time>
      </trkpt>
      <trkpt lat="44.31173" lon="3.58507">
        <ele>1014.81</ele>
        <time>2015-05-10T14:19:05Z</time>
      </trkpt>
      <trkpt lat="44.31169" lon="3.58509">
        <ele>1014.33</ele>
        <time>2015-05-10T14:19:09Z</time>
      </trkpt>
      <trkpt lat="44.31157" lon="3.58518">
        <ele>1015.77</ele>
        <time>2015-05-10T14:19:24Z</time>
      </trkpt>
      <trkpt lat="44.31155" lon="3.58519">
        <ele>1016.25</ele>
        <time>2015-05-10T14:19:43Z</time>
      </trkpt>
      <trkpt lat="44.3115" lon="3.58522">
        <ele>1016.73</ele>
        <time>2015-05-10T14:19:57Z</time>
      </trkpt>
      <trkpt lat="44.31141" lon="3.58531">
        <ele>1017.21</ele>
        <time>2015-05-10T14:20:11Z</time>
      </trkpt>
      <trkpt lat="44.31136" lon="3.58532">
        <ele>1017.69</ele>
        <time>2015-05-10T14:20:16Z</time>
      </trkpt>
      <trkpt lat="44.31129" lon="3.58535">
        <ele>1018.17</ele>
        <time>2015-05-10T14:20:24Z</time>
      </trkpt>
      <trkpt lat="44.31119" lon="3.5854">
        <ele>1019.62</ele>
        <time>2015-05-10T14:20:36Z</time>
      </trkpt>
      <trkpt lat="44.31111" lon="3.58541">
        <ele>1020.58</ele>
        <time>2015-05-10T14:20:44Z</time>
      </trkpt>
      <trkpt lat="44.31106" lon="3.58544">
        <ele>1020.1</ele>
        <time>2015-05-10T14:20:49Z</time>
      </trkpt>
      <trkpt lat="44.311" lon="3.58545">
        <ele>1021.54</ele>
        <time>2015-05-10T14:20:54Z</time>
      </trkpt>
      <trkpt lat="44.31098" lon="3.58545">
        <ele>1021.54</ele>
        <time>2015-05-10T14:20:56Z</time>
      </trkpt>
      <trkpt lat="44.31091" lon="3.58538">
        <ele>1022.02</ele>
        <time>2015-05-10T14:21:03Z</time>
      </trkpt>
      <trkpt lat="44.31086" lon="3.58527">
        <ele>1022.02</ele>
        <time>2015-05-10T14:21:17Z</time>
      </trkpt>
      <trkpt lat="44.31087" lon="3.58527">
        <ele>1022.5</ele>
        <time>2015-05-10T14:21:35Z</time>
      </trkpt>
      <trkpt lat="44.31088" lon="3.58525">
        <ele>1022.02</ele>
        <time>2015-05-10T14:22:06Z</time>
      </trkpt>
      <trkpt lat="44.31088" lon="3.58525">
        <ele>1022.02</ele>
        <time>2015-05-10T14:22:10Z</time>
      </trkpt>
      <trkpt lat="44.31085" lon="3.58523">
        <ele>1022.02</ele>
        <time>2015-05-10T14:22:13Z</time>
      </trkpt>
      <trkpt lat="44.3108" lon="3.58518">
        <ele>1022.5</ele>
        <time>2015-05-10T14:22:19Z</time>
      </trkpt>
      <trkpt lat="44.31076" lon="3.5851">
        <ele>1022.5</ele>
        <time>2015-05-10T14:22:25Z</time>
      </trkpt>
      <trkpt lat="44.31073" lon="3.58505">
        <ele>1022.5</ele>
        <time>2015-05-10T14:22:31Z</time>
      </trkpt>
      <trkpt lat="44.31066" lon="3.58499">
        <ele>1022.02</ele>
        <time>2015-05-10T14:22:42Z</time>
      </trkpt>
      <trkpt lat="44.31057" lon="3.585">
        <ele>1022.5</ele>
        <time>2015-05-10T14:22:52Z</time>
      </trkpt>
      <trkpt lat="44.31048" lon="3.58491">
        <ele>1021.54</ele>
        <time>2015-05-10T14:23:01Z</time>
      </trkpt>
      <trkpt lat="44.31037" lon="3.58488">
        <ele>1022.98</ele>
        <time>2015-05-10T14:23:12Z</time>
      </trkpt>
      <trkpt lat="44.31027" lon="3.58492">
        <ele>1023.94</ele>
        <time>2015-05-10T14:23:26Z</time>
      </trkpt>
      <trkpt lat="44.31026" lon="3.58493">
        <ele>1023.94</ele>
        <time>2015-05-10T14:23:28Z</time>
      </trkpt>
      <trkpt lat="44.31021" lon="3.58501">
        <ele>1023.46</ele>
        <time>2015-05-10T14:23:34Z</time>
      </trkpt>
      <trkpt lat="44.31021" lon="3.58504">
        <ele>1023.46</ele>
        <time>2015-05-10T14:23:37Z</time>
      </trkpt>
      <trkpt lat="44.31019" lon="3.5851">
        <ele>1022.5</ele>
        <time>2015-05-10T14:23:41Z</time>
      </trkpt>
      <trkpt lat="44.31015" lon="3.58514">
        <ele>1022.98</ele>
        <time>2015-05-10T14:23:45Z</time>
      </trkpt>
      <trkpt lat="44.31012" lon="3.5852">
        <ele>1022.5</ele>
        <time>2015-05-10T14:23:50Z</time>
      </trkpt>
      <trkpt lat="44.31005" lon="3.5852">
        <ele>1022.02</ele>
        <time>2015-05-10T14:23:56Z</time>
      </trkpt>
      <trkpt lat="44.31" lon="3.58515">
        <ele>1021.54</ele>
        <time>2015-05-10T14:24:00Z</time>
      </trkpt>
      <trkpt lat="44.30993" lon="3.58509">
        <ele>1022.02</ele>
        <time>2015-05-10T14:24:08Z</time>
      </trkpt>
      <trkpt lat="44.3099" lon="3.58508">
        <ele>1021.54</ele>
        <time>2015-05-10T14:24:11Z</time>
      </trkpt>
      <trkpt lat="44.30984" lon="3.58509">
        <ele>1021.54</ele>
        <time>2015-05-10T14:24:16Z</time>
      </trkpt>
      <trkpt lat="44.30974" lon="3.5852">
        <ele>1021.54</ele>
        <time>2015-05-10T14:24:28Z</time>
      </trkpt>
      <trkpt lat="44.30968" lon="3.58528">
        <ele>1021.54</ele>
        <time>2015-05-10T14:24:37Z</time>
      </trkpt>
      <trkpt lat="44.3096" lon="3.58532">
        <ele>1021.54</ele>
        <time>2015-05-10T14:24:50Z</time>
      </trkpt>
      <trkpt lat="44.30962" lon="3.58531">
        <ele>1021.06</ele>
        <time>2015-05-10T14:25:11Z</time>
      </trkpt>
      <trkpt lat="44.30959" lon="3.58531">
        <ele>1021.06</ele>
        <time>2015-05-10T14:25:19Z</time>
      </trkpt>
      <trkpt lat="44.30948" lon="3.58532">
        <ele>1019.62</ele>
        <time>2015-05-10T14:25:31Z</time>
      </trkpt>
      <trkpt lat="44.30941" lon="3.58516">
        <ele>1017.69</ele>
        <time>2015-05-10T14:25:44Z</time>
      </trkpt>
      <trkpt lat="44.3094" lon="3.58512">
        <ele>1017.69</ele>
        <time>2015-05-10T14:25:47Z</time>
      </trkpt>
      <trkpt lat="44.30935" lon="3.58506">
        <ele>1015.77</ele>
        <time>2015-05-10T14:25:58Z</time>
      </trkpt>
      <trkpt lat="44.30931" lon="3.58504">
        <ele>1015.29</ele>
        <time>2015-05-10T14:26:03Z</time>
      </trkpt>
      <trkpt lat="44.30928" lon="3.58503">
        <ele>1013.85</ele>
        <time>2015-05-10T14:26:06Z</time>
      </trkpt>
      <trkpt lat="44.30926" lon="3.58502">
        <ele>1013.85</ele>
        <time>2015-05-10T14:26:09Z</time>
      </trkpt>
      <trkpt lat="44.30916" lon="3.58502">
        <ele>1013.37</ele>
        <time>2015-05-10T14:26:19Z</time>
      </trkpt>
      <trkpt lat="44.3091" lon="3.58505">
        <ele>1015.77</ele>
        <time>2015-05-10T14:26:31Z</time>
      </trkpt>
      <trkpt lat="44.30898" lon="3.58508">
        <ele>1016.25</ele>
        <time>2015-05-10T14:26:43Z</time>
      </trkpt>
      <trkpt lat="44.30891" lon="3.58505">
        <ele>1015.29</ele>
        <time>2015-05-10T14:26:49Z</time>
      </trkpt>
      <trkpt lat="44.30886" lon="3.58493">
        <ele>1017.21</ele>
        <time>2015-05-10T14:27:01Z</time>
      </trkpt>
      <trkpt lat="44.30885" lon="3.58492">
        <ele>1017.21</ele>
        <time>2015-05-10T14:27:02Z</time>
      </trkpt>
      <trkpt lat="44.30883" lon="3.58491">
        <ele>1017.21</ele>
        <time>2015-05-10T14:27:05Z</time>
      </trkpt>
      <trkpt lat="44.30878" lon="3.58486">
        <ele>1017.21</ele>
        <time>2015-05-10T14:27:11Z</time>
      </trkpt>
      <trkpt lat="44.30867" lon="3.58481">
        <ele>1017.21</ele>
        <time>2015-05-10T14:27:22Z</time>
      </trkpt>
      <trkpt lat="44.30859" lon="3.58478">
        <ele>1016.73</ele>
        <time>2015-05-10T14:27:29Z</time>
      </trkpt>
      <trkpt lat="44.30852" lon="3.58477">
        <ele>1015.77</ele>
        <time>2015-05-10T14:27:35Z</time>
      </trkpt>
      <trkpt lat="44.30847" lon="3.58475">
        <ele>1016.25</ele>
        <time>2015-05-10T14:27:41Z</time>
      </trkpt>
      <trkpt lat="44.30837" lon="3.58473">
        <ele>1015.29</ele>
        <time>2015-05-10T14:27:52Z</time>
      </trkpt>
      <trkpt lat="44.30833" lon="3.58474">
        <ele>1014.81</ele>
        <time>2015-05-10T14:27:55Z</time>
      </trkpt>
      <trkpt lat="44.30824" lon="3.58478">
        <ele>1013.37</ele>
        <time>2015-05-10T14:28:09Z</time>
      </trkpt>
      <trkpt lat="44.30819" lon="3.58488">
        <ele>1010.96</ele>
        <time>2015-05-10T14:28:18Z</time>
      </trkpt>
      <trkpt lat="44.30815" lon="3.58492">
        <ele>1010.48</ele>
        <time>2015-05-10T14:28:22Z</time>
      </trkpt>
      <trkpt lat="44.30809" lon="3.58495">
        <ele>1010.48</ele>
        <time>2015-05-10T14:28:28Z</time>
      </trkpt>
      <trkpt lat="44.30807" lon="3.58497">
        <ele>1010.96</ele>
        <time>2015-05-10T14:28:31Z</time>
      </trkpt>
      <trkpt lat="44.30801" lon="3.585">
        <ele>1011.93</ele>
        <time>2015-05-10T14:28:39Z</time>
      </trkpt>
      <trkpt lat="44.30796" lon="3.58509">
        <ele>1012.89</ele>
        <time>2015-05-10T14:28:51Z</time>
      </trkpt>
      <trkpt lat="44.30789" lon="3.58512">
        <ele>1012.89</ele>
        <time>2015-05-10T14:28:57Z</time>
      </trkpt>
      <trkpt lat="44.30783" lon="3.58515">
        <ele>1013.37</ele>
        <time>2015-05-10T14:29:05Z</time>
      </trkpt>
      <trkpt lat="44.30769" lon="3.58519">
        <ele>1014.81</ele>
        <time>2015-05-10T14:29:20Z</time>
      </trkpt>
      <trkpt lat="44.30762" lon="3.58525">
        <ele>1015.29</ele>
        <time>2015-05-10T14:29:31Z</time>
      </trkpt>
      <trkpt lat="44.30753" lon="3.58532">
        <ele>1016.25</ele>
        <time>2015-05-10T14:29:45Z</time>
      </trkpt>
      <trkpt lat="44.3075" lon="3.58542">
        <ele>1015.77</ele>
        <time>2015-05-10T14:29:52Z</time>
      </trkpt>
      <trkpt lat="44.30747" lon="3.58545">
        <ele>1016.25</ele>
        <time>2015-05-10T14:29:56Z</time>
      </trkpt>
      <trkpt lat="44.30744" lon="3.58546">
        <ele>1016.25</ele>
        <time>2015-05-10T14:29:58Z</time>
      </trkpt>
      <trkpt lat="44.30724" lon="3.58552">
        <ele>1015.29</ele>
        <time>2015-05-10T14:30:15Z</time>
      </trkpt>
      <trkpt lat="44.30709" lon="3.58545">
        <ele>1014.33</ele>
        <time>2015-05-10T14:30:28Z</time>
      </trkpt>
      <trkpt lat="44.30707" lon="3.58544">
        <ele>1013.37</ele>
        <time>2015-05-10T14:30:31Z</time>
      </trkpt>
      <trkpt lat="44.30702" lon="3.58544">
        <ele>1011.93</ele>
        <time>2015-05-10T14:30:38Z</time>
      </trkpt>
      <trkpt lat="44.30696" lon="3.58551">
        <ele>1013.37</ele>
        <time>2015-05-10T14:30:50Z</time>
      </trkpt>
      <trkpt lat="44.30694" lon="3.58554">
        <ele>1013.85</ele>
        <time>2015-05-10T14:30:53Z</time>
      </trkpt>
      <trkpt lat="44.30692" lon="3.58559">
        <ele>1013.85</ele>
        <time>2015-05-10T14:30:58Z</time>
      </trkpt>
      <trkpt lat="44.30687" lon="3.58566">
        <ele>1013.85</ele>
        <time>2015-05-10T14:31:05Z</time>
      </trkpt>
      <trkpt lat="44.30683" lon="3.58569">
        <ele>1013.85</ele>
        <time>2015-05-10T14:31:19Z</time>
      </trkpt>
      <trkpt lat="44.30682" lon="3.58569">
        <ele>1013.37</ele>
        <time>2015-05-10T14:31:35Z</time>
      </trkpt>
      <trkpt lat="44.30681" lon="3.58568">
        <ele>1013.37</ele>
        <time>2015-05-10T14:32:05Z</time>
      </trkpt>
      <trkpt lat="44.30681" lon="3.58568">
        <ele>1012.89</ele>
        <time>2015-05-10T14:32:30Z</time>
      </trkpt>
      <trkpt lat="44.30681" lon="3.58569">
        <ele>1013.37</ele>
        <time>2015-05-10T14:32:52Z</time>
      </trkpt>
      <trkpt lat="44.30681" lon="3.5857">
        <ele>1013.85</ele>
        <time>2015-05-10T14:33:27Z</time>
      </trkpt>
      <trkpt lat="44.30681" lon="3.5857">
        <ele>1013.85</ele>
        <time>2015-05-10T14:33:52Z</time>
      </trkpt>
      <trkpt lat="44.30674" lon="3.58573">
        <ele>1014.33</ele>
        <time>2015-05-10T14:34:05Z</time>
      </trkpt>
      <trkpt lat="44.30673" lon="3.58574">
        <ele>1014.33</ele>
        <time>2015-05-10T14:34:06Z</time>
      </trkpt>
      <trkpt lat="44.30666" lon="3.5858">
        <ele>1012.41</ele>
        <time>2015-05-10T14:34:14Z</time>
      </trkpt>
      <trkpt lat="44.30662" lon="3.58581">
        <ele>1012.41</ele>
        <time>2015-05-10T14:34:17Z</time>
      </trkpt>
      <trkpt lat="44.30646" lon="3.58582">
        <ele>1012.41</ele>
        <time>2015-05-10T14:34:33Z</time>
      </trkpt>
      <trkpt lat="44.30633" lon="3.58584">
        <ele>1013.37</ele>
        <time>2015-05-10T14:34:49Z</time>
      </trkpt>
      <trkpt lat="44.3062" lon="3.58586">
        <ele>1013.37</ele>
        <time>2015-05-10T14:35:01Z</time>
      </trkpt>
      <trkpt lat="44.30609" lon="3.58581">
        <ele>1014.81</ele>
        <time>2015-05-10T14:35:12Z</time>
      </trkpt>
      <trkpt lat="44.30602" lon="3.58577">
        <ele>1015.29</ele>
        <time>2015-05-10T14:35:19Z</time>
      </trkpt>
      <trkpt lat="44.30592" lon="3.58572">
        <ele>1013.85</ele>
        <time>2015-05-10T14:35:29Z</time>
      </trkpt>
      <trkpt lat="44.30582" lon="3.58572">
        <ele>1013.85</ele>
        <time>2015-05-10T14:35:42Z</time>
      </trkpt>
      <trkpt lat="44.30579" lon="3.58574">
        <ele>1014.33</ele>
        <time>2015-05-10T14:35:46Z</time>
      </trkpt>
      <trkpt lat="44.30575" lon="3.58576">
        <ele>1015.29</ele>
        <time>2015-05-10T14:35:50Z</time>
      </trkpt>
      <trkpt lat="44.30568" lon="3.58571">
        <ele>1014.81</ele>
        <time>2015-05-10T14:35:56Z</time>
      </trkpt>
      <trkpt lat="44.30558" lon="3.58561">
        <ele>1015.29</ele>
        <time>2015-05-10T14:36:06Z</time>
      </trkpt>
      <trkpt lat="44.30541" lon="3.58552">
        <ele>1015.77</ele>
        <time>2015-05-10T14:36:21Z</time>
      </trkpt>
      <trkpt lat="44.30531" lon="3.58543">
        <ele>1017.69</ele>
        <time>2015-05-10T14:36:34Z</time>
      </trkpt>
      <trkpt lat="44.30526" lon="3.5854">
        <ele>1018.65</ele>
        <time>2015-05-10T14:36:40Z</time>
      </trkpt>
      <trkpt lat="44.30516" lon="3.58539">
        <ele>1020.1</ele>
        <time>2015-05-10T14:36:53Z</time>
      </trkpt>
      <trkpt lat="44.30514" lon="3.58539">
        <ele>1020.1</ele>
        <time>2015-05-10T14:36:56Z</time>
      </trkpt>
      <trkpt lat="44.30507" lon="3.58544">
        <ele>1020.1</ele>
        <time>2015-05-10T14:37:04Z</time>
      </trkpt>
      <trkpt lat="44.30506" lon="3.58546">
        <ele>1019.13</ele>
        <time>2015-05-10T14:37:06Z</time>
      </trkpt>
      <trkpt lat="44.30493" lon="3.58544">
        <ele>1018.65</ele>
        <time>2015-05-10T14:37:19Z</time>
      </trkpt>
      <trkpt lat="44.3048" lon="3.58544">
        <ele>1019.13</ele>
        <time>2015-05-10T14:37:32Z</time>
      </trkpt>
      <trkpt lat="44.30479" lon="3.58544">
        <ele>1019.13</ele>
        <time>2015-05-10T14:37:33Z</time>
      </trkpt>
      <trkpt lat="44.30473" lon="3.58547">
        <ele>1019.13</ele>
        <time>2015-05-10T14:37:38Z</time>
      </trkpt>
      <trkpt lat="44.30456" lon="3.5854">
        <ele>1019.13</ele>
        <time>2015-05-10T14:37:54Z</time>
      </trkpt>
      <trkpt lat="44.30446" lon="3.58535">
        <ele>1019.13</ele>
        <time>2015-05-10T14:38:07Z</time>
      </trkpt>
      <trkpt lat="44.3044" lon="3.58536">
        <ele>1018.17</ele>
        <time>2015-05-10T14:38:13Z</time>
      </trkpt>
      <trkpt lat="44.30434" lon="3.58535">
        <ele>1017.69</ele>
        <time>2015-05-10T14:38:18Z</time>
      </trkpt>
      <trkpt lat="44.30423" lon="3.58535">
        <ele>1016.73</ele>
        <time>2015-05-10T14:38:29Z</time>
      </trkpt>
      <trkpt lat="44.30421" lon="3.58535">
        <ele>1015.77</ele>
        <time>2015-05-10T14:38:31Z</time>
      </trkpt>
      <trkpt lat="44.30416" lon="3.58537">
        <ele>1014.81</ele>
        <time>2015-05-10T14:38:36Z</time>
      </trkpt>
      <trkpt lat="44.30415" lon="3.58539">
        <ele>1013.85</ele>
        <time>2015-05-10T14:38:53Z</time>
      </trkpt>
      <trkpt lat="44.30413" lon="3.58536">
        <ele>1013.85</ele>
        <time>2015-05-10T14:39:14Z</time>
      </trkpt>
      <trkpt lat="44.30413" lon="3.58536">
        <ele>1013.85</ele>
        <time>2015-05-10T14:39:38Z</time>
      </trkpt>
      <trkpt lat="44.30404" lon="3.58537">
        <ele>1013.37</ele>
        <time>2015-05-10T14:39:51Z</time>
      </trkpt>
      <trkpt lat="44.30397" lon="3.58538">
        <ele>1013.37</ele>
        <time>2015-05-10T14:40:00Z</time>
      </trkpt>
      <trkpt lat="44.30387" lon="3.58542">
        <ele>1014.81</ele>
        <time>2015-05-10T14:40:13Z</time>
      </trkpt>
      <trkpt lat="44.30382" lon="3.58543">
        <ele>1013.85</ele>
        <time>2015-05-10T14:40:18Z</time>
      </trkpt>
      <trkpt lat="44.3037" lon="3.5854">
        <ele>1012.89</ele>
        <time>2015-05-10T14:40:31Z</time>
      </trkpt>
      <trkpt lat="44.30368" lon="3.58539">
        <ele>1012.41</ele>
        <time>2015-05-10T14:40:39Z</time>
      </trkpt>
      <trkpt lat="44.30357" lon="3.58534">
        <ele>1010.48</ele>
        <time>2015-05-10T14:40:50Z</time>
      </trkpt>
      <trkpt lat="44.30348" lon="3.58536">
        <ele>1010</ele>
        <time>2015-05-10T14:41:04Z</time>
      </trkpt>
      <trkpt lat="44.30344" lon="3.58537">
        <ele>1010.96</ele>
        <time>2015-05-10T14:41:10Z</time>
      </trkpt>
      <trkpt lat="44.30336" lon="3.58539">
        <ele>1011.93</ele>
        <time>2015-05-10T14:41:19Z</time>
      </trkpt>
      <trkpt lat="44.30331" lon="3.58542">
        <ele>1011.44</ele>
        <time>2015-05-10T14:41:25Z</time>
      </trkpt>
      <trkpt lat="44.30325" lon="3.58546">
        <ele>1010.96</ele>
        <time>2015-05-10T14:41:32Z</time>
      </trkpt>
      <trkpt lat="44.30314" lon="3.58552">
        <ele>1011.93</ele>
        <time>2015-05-10T14:41:45Z</time>
      </trkpt>
      <trkpt lat="44.30313" lon="3.58552">
        <ele>1011.93</ele>
        <time>2015-05-10T14:41:46Z</time>
      </trkpt>
      <trkpt lat="44.30311" lon="3.58552">
        <ele>1012.89</ele>
        <time>2015-05-10T14:41:48Z</time>
      </trkpt>
      <trkpt lat="44.30304" lon="3.58554">
        <ele>1012.41</ele>
        <time>2015-05-10T14:41:53Z</time>
      </trkpt>
      <trkpt lat="44.30296" lon="3.58555">
        <ele>1011.44</ele>
        <time>2015-05-10T14:42:03Z</time>
      </trkpt>
      <trkpt lat="44.30278" lon="3.58554">
        <ele>1010.48</ele>
        <time>2015-05-10T14:42:18Z</time>
      </trkpt>
      <trkpt lat="44.30275" lon="3.58553">
        <ele>1010</ele>
        <time>2015-05-10T14:42:20Z</time>
      </trkpt>
      <trkpt lat="44.30264" lon="3.58556">
        <ele>1009.04</ele>
        <time>2015-05-10T14:42:35Z</time>
      </trkpt>
      <trkpt lat="44.30262" lon="3.58556">
        <ele>1008.08</ele>
        <time>2015-05-10T14:42:38Z</time>
      </trkpt>
      <trkpt lat="44.30256" lon="3.58558">
        <ele>1006.64</ele>
        <time>2015-05-10T14:42:46Z</time>
      </trkpt>
      <trkpt lat="44.30254" lon="3.5856">
        <ele>1006.16</ele>
        <time>2015-05-10T14:42:48Z</time>
      </trkpt>
      <trkpt lat="44.30244" lon="3.58566">
        <ele>1003.75</ele>
        <time>2015-05-10T14:43:01Z</time>
      </trkpt>
      <trkpt lat="44.30242" lon="3.58568">
        <ele>1004.23</ele>
        <time>2015-05-10T14:43:03Z</time>
      </trkpt>
      <trkpt lat="44.30233" lon="3.58578">
        <ele>1003.27</ele>
        <time>2015-05-10T14:43:17Z</time>
      </trkpt>
      <trkpt lat="44.30231" lon="3.58577">
        <ele>1003.27</ele>
        <time>2015-05-10T14:43:41Z</time>
      </trkpt>
      <trkpt lat="44.30227" lon="3.58576">
        <ele>1004.23</ele>
        <time>2015-05-10T14:44:06Z</time>
      </trkpt>
      <trkpt lat="44.30221" lon="3.58579">
        <ele>1006.16</ele>
        <time>2015-05-10T14:44:21Z</time>
      </trkpt>
      <trkpt lat="44.30214" lon="3.58583">
        <ele>1008.08</ele>
        <time>2015-05-10T14:44:34Z</time>
      </trkpt>
      <trkpt lat="44.30204" lon="3.58588">
        <ele>1007.12</ele>
        <time>2015-05-10T14:44:48Z</time>
      </trkpt>
      <trkpt lat="44.30196" lon="3.58594">
        <ele>1006.16</ele>
        <time>2015-05-10T14:45:00Z</time>
      </trkpt>
      <trkpt lat="44.30185" lon="3.58603">
        <ele>1004.23</ele>
        <time>2015-05-10T14:45:13Z</time>
      </trkpt>
      <trkpt lat="44.3018" lon="3.58617">
        <ele>1004.72</ele>
        <time>2015-05-10T14:45:25Z</time>
      </trkpt>
      <trkpt lat="44.30176" lon="3.58629">
        <ele>1006.16</ele>
        <time>2015-05-10T14:45:39Z</time>
      </trkpt>
      <trkpt lat="44.30168" lon="3.5864">
        <ele>1006.16</ele>
        <time>2015-05-10T14:45:52Z</time>
      </trkpt>
      <trkpt lat="44.3016" lon="3.58644">
        <ele>1007.12</ele>
        <time>2015-05-10T14:46:00Z</time>
      </trkpt>
      <trkpt lat="44.30147" lon="3.58648">
        <ele>1007.12</ele>
        <time>2015-05-10T14:46:14Z</time>
      </trkpt>
      <trkpt lat="44.30144" lon="3.5865">
        <ele>1007.6</ele>
        <time>2015-05-10T14:46:17Z</time>
      </trkpt>
      <trkpt lat="44.30131" lon="3.58661">
        <ele>1009.52</ele>
        <time>2015-05-10T14:46:32Z</time>
      </trkpt>
      <trkpt lat="44.30126" lon="3.58668">
        <ele>1009.04</ele>
        <time>2015-05-10T14:46:41Z</time>
      </trkpt>
      <trkpt lat="44.30124" lon="3.58677">
        <ele>1009.04</ele>
        <time>2015-05-10T14:46:48Z</time>
      </trkpt>
      <trkpt lat="44.30123" lon="3.5869">
        <ele>1009.04</ele>
        <time>2015-05-10T14:46:59Z</time>
      </trkpt>
      <trkpt lat="44.30123" lon="3.58705">
        <ele>1008.56</ele>
        <time>2015-05-10T14:47:11Z</time>
      </trkpt>
      <trkpt lat="44.30121" lon="3.5871">
        <ele>1009.04</ele>
        <time>2015-05-10T14:47:14Z</time>
      </trkpt>
      <trkpt lat="44.30114" lon="3.58729">
        <ele>1007.6</ele>
        <time>2015-05-10T14:47:25Z</time>
      </trkpt>
      <trkpt lat="44.30111" lon="3.5873">
        <ele>1008.08</ele>
        <time>2015-05-10T14:47:27Z</time>
      </trkpt>
      <trkpt lat="44.30104" lon="3.5874">
        <ele>1009.04</ele>
        <time>2015-05-10T14:47:36Z</time>
      </trkpt>
      <trkpt lat="44.30093" lon="3.58756">
        <ele>1010.96</ele>
        <time>2015-05-10T14:47:50Z</time>
      </trkpt>
      <trkpt lat="44.30089" lon="3.58764">
        <ele>1013.85</ele>
        <time>2015-05-10T14:48:05Z</time>
      </trkpt>
      <trkpt lat="44.30084" lon="3.58776">
        <ele>1017.21</ele>
        <time>2015-05-10T14:48:21Z</time>
      </trkpt>
      <trkpt lat="44.30083" lon="3.58782">
        <ele>1018.17</ele>
        <time>2015-05-10T14:48:28Z</time>
      </trkpt>
      <trkpt lat="44.30076" lon="3.58794">
        <ele>1020.58</ele>
        <time>2015-05-10T14:48:41Z</time>
      </trkpt>
      <trkpt lat="44.30069" lon="3.58801">
        <ele>1020.58</ele>
        <time>2015-05-10T14:48:48Z</time>
      </trkpt>
      <trkpt lat="44.3006" lon="3.58815">
        <ele>1022.5</ele>
        <time>2015-05-10T14:49:03Z</time>
      </trkpt>
      <trkpt lat="44.30056" lon="3.58825">
        <ele>1024.9</ele>
        <time>2015-05-10T14:49:16Z</time>
      </trkpt>
      <trkpt lat="44.30055" lon="3.58826">
        <ele>1025.38</ele>
        <time>2015-05-10T14:49:17Z</time>
      </trkpt>
      <trkpt lat="44.3005" lon="3.58832">
        <ele>1026.34</ele>
        <time>2015-05-10T14:49:23Z</time>
      </trkpt>
      <trkpt lat="44.30042" lon="3.58839">
        <ele>1029.23</ele>
        <time>2015-05-10T14:49:37Z</time>
      </trkpt>
      <trkpt lat="44.30031" lon="3.58843">
        <ele>1029.71</ele>
        <time>2015-05-10T14:49:49Z</time>
      </trkpt>
      <trkpt lat="44.30016" lon="3.58835">
        <ele>1030.19</ele>
        <time>2015-05-10T14:50:02Z</time>
      </trkpt>
      <trkpt lat="44.30007" lon="3.58837">
        <ele>1031.15</ele>
        <time>2015-05-10T14:50:11Z</time>
      </trkpt>
      <trkpt lat="44.29999" lon="3.58843">
        <ele>1031.15</ele>
        <time>2015-05-10T14:50:24Z</time>
      </trkpt>
      <trkpt lat="44.29998" lon="3.58844">
        <ele>1031.15</ele>
        <time>2015-05-10T14:50:26Z</time>
      </trkpt>
      <trkpt lat="44.29989" lon="3.58859">
        <ele>1032.11</ele>
        <time>2015-05-10T14:50:40Z</time>
      </trkpt>
      <trkpt lat="44.29988" lon="3.58861">
        <ele>1032.11</ele>
        <time>2015-05-10T14:50:42Z</time>
      </trkpt>
      <trkpt lat="44.29979" lon="3.58866">
        <ele>1032.59</ele>
        <time>2015-05-10T14:50:50Z</time>
      </trkpt>
      <trkpt lat="44.29972" lon="3.58868">
        <ele>1032.11</ele>
        <time>2015-05-10T14:50:56Z</time>
      </trkpt>
      <trkpt lat="44.29966" lon="3.5887">
        <ele>1033.55</ele>
        <time>2015-05-10T14:51:03Z</time>
      </trkpt>
      <trkpt lat="44.29964" lon="3.58874">
        <ele>1033.07</ele>
        <time>2015-05-10T14:51:06Z</time>
      </trkpt>
      <trkpt lat="44.29953" lon="3.58876">
        <ele>1035.48</ele>
        <time>2015-05-10T14:51:18Z</time>
      </trkpt>
      <trkpt lat="44.29949" lon="3.58874">
        <ele>1035.96</ele>
        <time>2015-05-10T14:51:23Z</time>
      </trkpt>
      <trkpt lat="44.2994" lon="3.58872">
        <ele>1035</ele>
        <time>2015-05-10T14:51:32Z</time>
      </trkpt>
      <trkpt lat="44.29936" lon="3.58872">
        <ele>1033.55</ele>
        <time>2015-05-10T14:51:36Z</time>
      </trkpt>
      <trkpt lat="44.29929" lon="3.58871">
        <ele>1032.11</ele>
        <time>2015-05-10T14:51:52Z</time>
      </trkpt>
      <trkpt lat="44.29929" lon="3.58871">
        <ele>1032.11</ele>
        <time>2015-05-10T14:52:11Z</time>
      </trkpt>
      <trkpt lat="44.29926" lon="3.58869">
        <ele>1032.11</ele>
        <time>2015-05-10T14:52:14Z</time>
      </trkpt>
      <trkpt lat="44.29915" lon="3.58861">
        <ele>1031.63</ele>
        <time>2015-05-10T14:52:27Z</time>
      </trkpt>
      <trkpt lat="44.29908" lon="3.58857">
        <ele>1030.67</ele>
        <time>2015-05-10T14:52:33Z</time>
      </trkpt>
      <trkpt lat="44.29899" lon="3.58842">
        <ele>1030.19</ele>
        <time>2015-05-10T14:52:48Z</time>
      </trkpt>
      <trkpt lat="44.29892" lon="3.58832">
        <ele>1027.31</ele>
        <time>2015-05-10T14:53:01Z</time>
      </trkpt>
      <trkpt lat="44.29884" lon="3.58825">
        <ele>1024.9</ele>
        <time>2015-05-10T14:53:11Z</time>
      </trkpt>
      <trkpt lat="44.29873" lon="3.58819">
        <ele>1022.5</ele>
        <time>2015-05-10T14:53:23Z</time>
      </trkpt>
      <trkpt lat="44.29872" lon="3.58819">
        <ele>1022.02</ele>
        <time>2015-05-10T14:53:25Z</time>
      </trkpt>
      <trkpt lat="44.29872" lon="3.58821">
        <ele>1021.54</ele>
        <time>2015-05-10T14:53:28Z</time>
      </trkpt>
      <trkpt lat="44.29878" lon="3.58833">
        <ele>1018.17</ele>
        <time>2015-05-10T14:53:40Z</time>
      </trkpt>
      <trkpt lat="44.29879" lon="3.58844">
        <ele>1016.25</ele>
        <time>2015-05-10T14:53:56Z</time>
      </trkpt>
      <trkpt lat="44.29877" lon="3.58844">
        <ele>1015.29</ele>
        <time>2015-05-10T14:54:11Z</time>
      </trkpt>
      <trkpt lat="44.29876" lon="3.58843">
        <ele>1014.81</ele>
        <time>2015-05-10T14:54:24Z</time>
      </trkpt>
      <trkpt lat="44.29875" lon="3.58844">
        <ele>1014.81</ele>
        <time>2015-05-10T14:54:39Z</time>
      </trkpt>
      <trkpt lat="44.29875" lon="3.58844">
        <ele>1013.85</ele>
        <time>2015-05-10T14:54:58Z</time>
      </trkpt>
      <trkpt lat="44.29875" lon="3.58843">
        <ele>1014.33</ele>
        <time>2015-05-10T14:55:22Z</time>
      </trkpt>
      <trkpt lat="44.29875" lon="3.58845">
        <ele>1013.85</ele>
        <time>2015-05-10T14:55:56Z</time>
      </trkpt>
      <trkpt lat="44.29876" lon="3.58845">
        <ele>1013.85</ele>
        <time>2015-05-10T14:56:29Z</time>
      </trkpt>
      <trkpt lat="44.29875" lon="3.58844">
        <ele>1013.85</ele>
        <time>2015-05-10T14:57:08Z</time>
      </trkpt>
      <trkpt lat="44.29875" lon="3.58844">
        <ele>1013.85</ele>
        <time>2015-05-10T14:57:43Z</time>
      </trkpt>
      <trkpt lat="44.29875" lon="3.58845">
        <ele>1013.85</ele>
        <time>2015-05-10T14:58:19Z</time>
      </trkpt>
      <trkpt lat="44.29876" lon="3.58846">
        <ele>1014.33</ele>
        <time>2015-05-10T14:59:01Z</time>
      </trkpt>
      <trkpt lat="44.29876" lon="3.58845">
        <ele>1013.85</ele>
        <time>2015-05-10T14:59:35Z</time>
      </trkpt>
      <trkpt lat="44.29875" lon="3.58845">
        <ele>1014.81</ele>
        <time>2015-05-10T14:59:51Z</time>
      </trkpt>
      <trkpt lat="44.29875" lon="3.58845">
        <ele>1014.81</ele>
        <time>2015-05-10T15:00:09Z</time>
      </trkpt>
      <trkpt lat="44.29875" lon="3.58845">
        <ele>1014.33</ele>
        <time>2015-05-10T15:00:29Z</time>
      </trkpt>
      <trkpt lat="44.29871" lon="3.58843">
        <ele>1013.85</ele>
        <time>2015-05-10T15:00:50Z</time>
      </trkpt>
      <trkpt lat="44.29866" lon="3.58839">
        <ele>1012.41</ele>
        <time>2015-05-10T15:00:57Z</time>
      </trkpt>
      <trkpt lat="44.29858" lon="3.58837">
        <ele>1010</ele>
        <time>2015-05-10T15:01:05Z</time>
      </trkpt>
      <trkpt lat="44.29855" lon="3.58838">
        <ele>1009.52</ele>
        <time>2015-05-10T15:01:08Z</time>
      </trkpt>
      <trkpt lat="44.29846" lon="3.58837">
        <ele>1007.6</ele>
        <time>2015-05-10T15:01:17Z</time>
      </trkpt>
      <trkpt lat="44.29844" lon="3.58837">
        <ele>1007.12</ele>
        <time>2015-05-10T15:01:19Z</time>
      </trkpt>
      <trkpt lat="44.29835" lon="3.58838">
        <ele>1005.2</ele>
        <time>2015-05-10T15:01:28Z</time>
      </trkpt>
      <trkpt lat="44.29832" lon="3.58836">
        <ele>1004.23</ele>
        <time>2015-05-10T15:01:31Z</time>
      </trkpt>
      <trkpt lat="44.29821" lon="3.58835">
        <ele>1002.31</ele>
        <time>2015-05-10T15:01:42Z</time>
      </trkpt>
      <trkpt lat="44.29807" lon="3.58839">
        <ele>999.43</ele>
        <time>2015-05-10T15:01:55Z</time>
      </trkpt>
      <trkpt lat="44.29803" lon="3.58839">
        <ele>998.47</ele>
        <time>2015-05-10T15:01:59Z</time>
      </trkpt>
      <trkpt lat="44.29801" lon="3.58842">
        <ele>997.99</ele>
        <time>2015-05-10T15:02:04Z</time>
      </trkpt>
      <trkpt lat="44.29805" lon="3.58844">
        <ele>997.02</ele>
        <time>2015-05-10T15:02:09Z</time>
      </trkpt>
      <trkpt lat="44.29815" lon="3.58848">
        <ele>994.62</ele>
        <time>2015-05-10T15:02:21Z</time>
      </trkpt>
      <trkpt lat="44.29829" lon="3.58858">
        <ele>991.74</ele>
        <time>2015-05-10T15:02:36Z</time>
      </trkpt>
      <trkpt lat="44.29838" lon="3.58871">
        <ele>987.89</ele>
        <time>2015-05-10T15:02:50Z</time>
      </trkpt>
      <trkpt lat="44.29842" lon="3.58874">
        <ele>986.93</ele>
        <time>2015-05-10T15:02:54Z</time>
      </trkpt>
      <trkpt lat="44.29842" lon="3.58879">
        <ele>986.45</ele>
        <time>2015-05-10T15:02:58Z</time>
      </trkpt>
      <trkpt lat="44.29834" lon="3.58879">
        <ele>984.53</ele>
        <time>2015-05-10T15:03:07Z</time>
      </trkpt>
      <trkpt lat="44.2982" lon="3.58881">
        <ele>981.16</ele>
        <time>2015-05-10T15:03:19Z</time>
      </trkpt>
      <trkpt lat="44.29819" lon="3.58881">
        <ele>981.16</ele>
        <time>2015-05-10T15:03:20Z</time>
      </trkpt>
      <trkpt lat="44.29812" lon="3.58883">
        <ele>979.24</ele>
        <time>2015-05-10T15:03:28Z</time>
      </trkpt>
      <trkpt lat="44.29805" lon="3.58884">
        <ele>977.32</ele>
        <time>2015-05-10T15:03:34Z</time>
      </trkpt>
      <trkpt lat="44.29802" lon="3.58886">
        <ele>976.84</ele>
        <time>2015-05-10T15:03:37Z</time>
      </trkpt>
      <trkpt lat="44.29792" lon="3.5889">
        <ele>974.91</ele>
        <time>2015-05-10T15:03:47Z</time>
      </trkpt>
      <trkpt lat="44.29789" lon="3.58893">
        <ele>973.95</ele>
        <time>2015-05-10T15:03:52Z</time>
      </trkpt>
      <trkpt lat="44.29784" lon="3.58892">
        <ele>972.99</ele>
        <time>2015-05-10T15:03:56Z</time>
      </trkpt>
      <trkpt lat="44.29768" lon="3.58895">
        <ele>970.11</ele>
        <time>2015-05-10T15:04:11Z</time>
      </trkpt>
      <trkpt lat="44.29758" lon="3.58898">
        <ele>969.15</ele>
        <time>2015-05-10T15:04:19Z</time>
      </trkpt>
      <trkpt lat="44.29752" lon="3.58895">
        <ele>968.18</ele>
        <time>2015-05-10T15:04:24Z</time>
      </trkpt>
      <trkpt lat="44.29749" lon="3.58893">
        <ele>967.22</ele>
        <time>2015-05-10T15:04:27Z</time>
      </trkpt>
      <trkpt lat="44.2974" lon="3.58891">
        <ele>966.26</ele>
        <time>2015-05-10T15:04:34Z</time>
      </trkpt>
      <trkpt lat="44.29729" lon="3.58895">
        <ele>964.82</ele>
        <time>2015-05-10T15:04:46Z</time>
      </trkpt>
      <trkpt lat="44.29721" lon="3.58913">
        <ele>962.42</ele>
        <time>2015-05-10T15:05:01Z</time>
      </trkpt>
      <trkpt lat="44.29714" lon="3.58932">
        <ele>960.49</ele>
        <time>2015-05-10T15:05:14Z</time>
      </trkpt>
      <trkpt lat="44.29711" lon="3.58937">
        <ele>960.01</ele>
        <time>2015-05-10T15:05:17Z</time>
      </trkpt>
      <trkpt lat="44.29707" lon="3.58939">
        <ele>959.53</ele>
        <time>2015-05-10T15:05:27Z</time>
      </trkpt>
      <trkpt lat="44.29704" lon="3.5894">
        <ele>959.53</ele>
        <time>2015-05-10T15:05:43Z</time>
      </trkpt>
      <trkpt lat="44.29703" lon="3.58939">
        <ele>959.05</ele>
        <time>2015-05-10T15:06:04Z</time>
      </trkpt>
      <trkpt lat="44.29701" lon="3.58939">
        <ele>958.57</ele>
        <time>2015-05-10T15:06:23Z</time>
      </trkpt>
      <trkpt lat="44.29692" lon="3.58945">
        <ele>955.69</ele>
        <time>2015-05-10T15:06:37Z</time>
      </trkpt>
      <trkpt lat="44.29686" lon="3.58946">
        <ele>953.77</ele>
        <time>2015-05-10T15:06:43Z</time>
      </trkpt>
      <trkpt lat="44.29684" lon="3.58945">
        <ele>953.28</ele>
        <time>2015-05-10T15:06:45Z</time>
      </trkpt>
      <trkpt lat="44.29674" lon="3.58952">
        <ele>950.88</ele>
        <time>2015-05-10T15:06:57Z</time>
      </trkpt>
      <trkpt lat="44.29666" lon="3.58953">
        <ele>949.44</ele>
        <time>2015-05-10T15:07:05Z</time>
      </trkpt>
      <trkpt lat="44.29659" lon="3.58957">
        <ele>947.52</ele>
        <time>2015-05-10T15:07:14Z</time>
      </trkpt>
      <trkpt lat="44.29655" lon="3.58958">
        <ele>947.04</ele>
        <time>2015-05-10T15:07:18Z</time>
      </trkpt>
      <trkpt lat="44.29652" lon="3.58964">
        <ele>945.59</ele>
        <time>2015-05-10T15:07:23Z</time>
      </trkpt>
      <trkpt lat="44.29644" lon="3.58964">
        <ele>943.67</ele>
        <time>2015-05-10T15:07:34Z</time>
      </trkpt>
      <trkpt lat="44.29634" lon="3.58955">
        <ele>941.27</ele>
        <time>2015-05-10T15:07:48Z</time>
      </trkpt>
      <trkpt lat="44.29633" lon="3.58959">
        <ele>940.31</ele>
        <time>2015-05-10T15:07:52Z</time>
      </trkpt>
      <trkpt lat="44.29629" lon="3.58968">
        <ele>937.42</ele>
        <time>2015-05-10T15:08:07Z</time>
      </trkpt>
      <trkpt lat="44.29622" lon="3.58962">
        <ele>934.54</ele>
        <time>2015-05-10T15:08:19Z</time>
      </trkpt>
      <trkpt lat="44.29617" lon="3.58961">
        <ele>933.58</ele>
        <time>2015-05-10T15:08:22Z</time>
      </trkpt>
      <trkpt lat="44.29609" lon="3.58962">
        <ele>931.17</ele>
        <time>2015-05-10T15:08:31Z</time>
      </trkpt>
      <trkpt lat="44.29604" lon="3.58961">
        <ele>929.73</ele>
        <time>2015-05-10T15:08:39Z</time>
      </trkpt>
      <trkpt lat="44.29602" lon="3.58962">
        <ele>929.25</ele>
        <time>2015-05-10T15:08:41Z</time>
      </trkpt>
      <trkpt lat="44.29598" lon="3.58967">
        <ele>927.33</ele>
        <time>2015-05-10T15:08:53Z</time>
      </trkpt>
      <trkpt lat="44.29608" lon="3.58972">
        <ele>924.45</ele>
        <time>2015-05-10T15:09:07Z</time>
      </trkpt>
      <trkpt lat="44.29613" lon="3.5898">
        <ele>922.52</ele>
        <time>2015-05-10T15:09:18Z</time>
      </trkpt>
      <trkpt lat="44.29615" lon="3.58992">
        <ele>920.12</ele>
        <time>2015-05-10T15:09:31Z</time>
      </trkpt>
      <trkpt lat="44.29615" lon="3.58994">
        <ele>919.64</ele>
        <time>2015-05-10T15:09:33Z</time>
      </trkpt>
      <trkpt lat="44.29618" lon="3.59013">
        <ele>917.24</ele>
        <time>2015-05-10T15:09:47Z</time>
      </trkpt>
      <trkpt lat="44.29618" lon="3.59015">
        <ele>916.27</ele>
        <time>2015-05-10T15:10:07Z</time>
      </trkpt>
      <trkpt lat="44.29618" lon="3.59012">
        <ele>916.27</ele>
        <time>2015-05-10T15:10:31Z</time>
      </trkpt>
      <trkpt lat="44.29617" lon="3.59012">
        <ele>915.79</ele>
        <time>2015-05-10T15:10:36Z</time>
      </trkpt>
      <trkpt lat="44.29609" lon="3.59003">
        <ele>914.35</ele>
        <time>2015-05-10T15:10:48Z</time>
      </trkpt>
      <trkpt lat="44.29603" lon="3.58999">
        <ele>911.95</ele>
        <time>2015-05-10T15:10:55Z</time>
      </trkpt>
      <trkpt lat="44.29597" lon="3.58997">
        <ele>910.99</ele>
        <time>2015-05-10T15:11:00Z</time>
      </trkpt>
      <trkpt lat="44.29587" lon="3.58995">
        <ele>909.54</ele>
        <time>2015-05-10T15:11:10Z</time>
      </trkpt>
      <trkpt lat="44.29583" lon="3.58993">
        <ele>909.06</ele>
        <time>2015-05-10T15:11:14Z</time>
      </trkpt>
      <trkpt lat="44.29568" lon="3.58994">
        <ele>907.14</ele>
        <time>2015-05-10T15:11:27Z</time>
      </trkpt>
      <trkpt lat="44.29566" lon="3.58995">
        <ele>906.66</ele>
        <time>2015-05-10T15:11:29Z</time>
      </trkpt>
      <trkpt lat="44.2956" lon="3.58994">
        <ele>905.22</ele>
        <time>2015-05-10T15:11:38Z</time>
      </trkpt>
      <trkpt lat="44.29556" lon="3.58993">
        <ele>904.74</ele>
        <time>2015-05-10T15:11:42Z</time>
      </trkpt>
      <trkpt lat="44.29554" lon="3.58991">
        <ele>904.26</ele>
        <time>2015-05-10T15:11:44Z</time>
      </trkpt>
      <trkpt lat="44.29552" lon="3.5899">
        <ele>903.78</ele>
        <time>2015-05-10T15:11:48Z</time>
      </trkpt>
      <trkpt lat="44.29549" lon="3.58991">
        <ele>903.3</ele>
        <time>2015-05-10T15:11:51Z</time>
      </trkpt>
      <trkpt lat="44.29536" lon="3.58991">
        <ele>900.41</ele>
        <time>2015-05-10T15:12:07Z</time>
      </trkpt>
      <trkpt lat="44.29544" lon="3.58996">
        <ele>897.53</ele>
        <time>2015-05-10T15:12:20Z</time>
      </trkpt>
      <trkpt lat="44.29554" lon="3.59002">
        <ele>895.12</ele>
        <time>2015-05-10T15:12:35Z</time>
      </trkpt>
      <trkpt lat="44.29567" lon="3.59006">
        <ele>892.72</ele>
        <time>2015-05-10T15:12:49Z</time>
      </trkpt>
      <trkpt lat="44.29581" lon="3.59009">
        <ele>889.84</ele>
        <time>2015-05-10T15:13:05Z</time>
      </trkpt>
      <trkpt lat="44.29577" lon="3.59016">
        <ele>887.91</ele>
        <time>2015-05-10T15:13:13Z</time>
      </trkpt>
      <trkpt lat="44.29574" lon="3.59018">
        <ele>886.95</ele>
        <time>2015-05-10T15:13:16Z</time>
      </trkpt>
      <trkpt lat="44.29559" lon="3.59021">
        <ele>884.07</ele>
        <time>2015-05-10T15:13:29Z</time>
      </trkpt>
      <trkpt lat="44.29548" lon="3.59023">
        <ele>882.15</ele>
        <time>2015-05-10T15:13:40Z</time>
      </trkpt>
      <trkpt lat="44.29544" lon="3.59022">
        <ele>881.19</ele>
        <time>2015-05-10T15:13:44Z</time>
      </trkpt>
      <trkpt lat="44.2954" lon="3.59021">
        <ele>880.22</ele>
        <time>2015-05-10T15:13:49Z</time>
      </trkpt>
      <trkpt lat="44.29532" lon="3.59024">
        <ele>877.82</ele>
        <time>2015-05-10T15:13:58Z</time>
      </trkpt>
      <trkpt lat="44.29529" lon="3.59028">
        <ele>876.86</ele>
        <time>2015-05-10T15:14:02Z</time>
      </trkpt>
      <trkpt lat="44.29519" lon="3.59031">
        <ele>873.98</ele>
        <time>2015-05-10T15:14:16Z</time>
      </trkpt>
      <trkpt lat="44.29508" lon="3.59036">
        <ele>871.57</ele>
        <time>2015-05-10T15:14:29Z</time>
      </trkpt>
      <trkpt lat="44.29503" lon="3.59038">
        <ele>870.61</ele>
        <time>2015-05-10T15:14:35Z</time>
      </trkpt>
      <trkpt lat="44.295" lon="3.59038">
        <ele>870.13</ele>
        <time>2015-05-10T15:14:38Z</time>
      </trkpt>
      <trkpt lat="44.29493" lon="3.59042">
        <ele>868.21</ele>
        <time>2015-05-10T15:14:46Z</time>
      </trkpt>
      <trkpt lat="44.29479" lon="3.59045">
        <ele>866.77</ele>
        <time>2015-05-10T15:14:59Z</time>
      </trkpt>
      <trkpt lat="44.29467" lon="3.59044">
        <ele>864.36</ele>
        <time>2015-05-10T15:15:11Z</time>
      </trkpt>
      <trkpt lat="44.29461" lon="3.59047">
        <ele>862.92</ele>
        <time>2015-05-10T15:15:23Z</time>
      </trkpt>
      <trkpt lat="44.29454" lon="3.59047">
        <ele>861.96</ele>
        <time>2015-05-10T15:15:30Z</time>
      </trkpt>
      <trkpt lat="44.29441" lon="3.59047">
        <ele>859.08</ele>
        <time>2015-05-10T15:15:45Z</time>
      </trkpt>
      <trkpt lat="44.2943" lon="3.59052">
        <ele>856.67</ele>
        <time>2015-05-10T15:15:58Z</time>
      </trkpt>
      <trkpt lat="44.2943" lon="3.59052">
        <ele>856.19</ele>
        <time>2015-05-10T15:15:59Z</time>
      </trkpt>
      <trkpt lat="44.29416" lon="3.59054">
        <ele>852.83</ele>
        <time>2015-05-10T15:16:15Z</time>
      </trkpt>
      <trkpt lat="44.29406" lon="3.5906">
        <ele>849.46</ele>
        <time>2015-05-10T15:16:28Z</time>
      </trkpt>
      <trkpt lat="44.29401" lon="3.59058">
        <ele>848.02</ele>
        <time>2015-05-10T15:16:41Z</time>
      </trkpt>
      <trkpt lat="44.294" lon="3.59055">
        <ele>848.02</ele>
        <time>2015-05-10T15:17:23Z</time>
      </trkpt>
      <trkpt lat="44.29395" lon="3.59058">
        <ele>846.1</ele>
        <time>2015-05-10T15:17:38Z</time>
      </trkpt>
      <trkpt lat="44.29392" lon="3.59067">
        <ele>842.73</ele>
        <time>2015-05-10T15:17:51Z</time>
      </trkpt>
      <trkpt lat="44.29396" lon="3.59071">
        <ele>841.29</ele>
        <time>2015-05-10T15:17:58Z</time>
      </trkpt>
      <trkpt lat="44.29408" lon="3.59079">
        <ele>838.41</ele>
        <time>2015-05-10T15:18:14Z</time>
      </trkpt>
      <trkpt lat="44.29414" lon="3.59088">
        <ele>835.52</ele>
        <time>2015-05-10T15:18:28Z</time>
      </trkpt>
      <trkpt lat="44.29413" lon="3.59088">
        <ele>835.52</ele>
        <time>2015-05-10T15:18:29Z</time>
      </trkpt>
      <trkpt lat="44.29404" lon="3.59097">
        <ele>832.16</ele>
        <time>2015-05-10T15:18:41Z</time>
      </trkpt>
      <trkpt lat="44.29393" lon="3.59098">
        <ele>829.27</ele>
        <time>2015-05-10T15:18:54Z</time>
      </trkpt>
      <trkpt lat="44.294" lon="3.59107">
        <ele>826.87</ele>
        <time>2015-05-10T15:19:07Z</time>
      </trkpt>
      <trkpt lat="44.29401" lon="3.59108">
        <ele>826.87</ele>
        <time>2015-05-10T15:19:08Z</time>
      </trkpt>
      <trkpt lat="44.29404" lon="3.59109">
        <ele>826.39</ele>
        <time>2015-05-10T15:19:11Z</time>
      </trkpt>
      <trkpt lat="44.29421" lon="3.59125">
        <ele>823.03</ele>
        <time>2015-05-10T15:19:28Z</time>
      </trkpt>
      <trkpt lat="44.29426" lon="3.59131">
        <ele>822.06</ele>
        <time>2015-05-10T15:19:34Z</time>
      </trkpt>
      <trkpt lat="44.29436" lon="3.59141">
        <ele>820.62</ele>
        <time>2015-05-10T15:19:44Z</time>
      </trkpt>
      <trkpt lat="44.29442" lon="3.59149">
        <ele>819.66</ele>
        <time>2015-05-10T15:19:51Z</time>
      </trkpt>
      <trkpt lat="44.2945" lon="3.59169">
        <ele>817.26</ele>
        <time>2015-05-10T15:20:06Z</time>
      </trkpt>
      <trkpt lat="44.29458" lon="3.59176">
        <ele>815.82</ele>
        <time>2015-05-10T15:20:14Z</time>
      </trkpt>
      <trkpt lat="44.29467" lon="3.59175">
        <ele>815.82</ele>
        <time>2015-05-10T15:20:28Z</time>
      </trkpt>
      <trkpt lat="44.29474" lon="3.59174">
        <ele>816.3</ele>
        <time>2015-05-10T15:20:33Z</time>
      </trkpt>
      <trkpt lat="44.29481" lon="3.59172">
        <ele>816.3</ele>
        <time>2015-05-10T15:20:39Z</time>
      </trkpt>
      <trkpt lat="44.29484" lon="3.59171">
        <ele>816.78</ele>
        <time>2015-05-10T15:20:41Z</time>
      </trkpt>
      <trkpt lat="44.29499" lon="3.59155">
        <ele>816.78</ele>
        <time>2015-05-10T15:20:56Z</time>
      </trkpt>
      <trkpt lat="44.29511" lon="3.59144">
        <ele>817.74</ele>
        <time>2015-05-10T15:21:09Z</time>
      </trkpt>
      <trkpt lat="44.29529" lon="3.59135">
        <ele>818.7</ele>
        <time>2015-05-10T15:21:25Z</time>
      </trkpt>
      <trkpt lat="44.29542" lon="3.59137">
        <ele>818.22</ele>
        <time>2015-05-10T15:21:35Z</time>
      </trkpt>
      <trkpt lat="44.29556" lon="3.59147">
        <ele>817.26</ele>
        <time>2015-05-10T15:21:49Z</time>
      </trkpt>
      <trkpt lat="44.29558" lon="3.59148">
        <ele>817.26</ele>
        <time>2015-05-10T15:21:50Z</time>
      </trkpt>
      <trkpt lat="44.29569" lon="3.59159">
        <ele>816.78</ele>
        <time>2015-05-10T15:22:01Z</time>
      </trkpt>
      <trkpt lat="44.29584" lon="3.59172">
        <ele>816.3</ele>
        <time>2015-05-10T15:22:14Z</time>
      </trkpt>
      <trkpt lat="44.29595" lon="3.59182">
        <ele>814.37</ele>
        <time>2015-05-10T15:22:27Z</time>
      </trkpt>
      <trkpt lat="44.29604" lon="3.59197">
        <ele>812.93</ele>
        <time>2015-05-10T15:22:38Z</time>
      </trkpt>
      <trkpt lat="44.2961" lon="3.59204">
        <ele>811.97</ele>
        <time>2015-05-10T15:22:44Z</time>
      </trkpt>
      <trkpt lat="44.2962" lon="3.5921">
        <ele>810.05</ele>
        <time>2015-05-10T15:22:55Z</time>
      </trkpt>
      <trkpt lat="44.29641" lon="3.59208">
        <ele>808.61</ele>
        <time>2015-05-10T15:23:12Z</time>
      </trkpt>
      <trkpt lat="44.29656" lon="3.59202">
        <ele>806.68</ele>
        <time>2015-05-10T15:23:26Z</time>
      </trkpt>
      <trkpt lat="44.29676" lon="3.59194">
        <ele>803.8</ele>
        <time>2015-05-10T15:23:42Z</time>
      </trkpt>
      <trkpt lat="44.29695" lon="3.59191">
        <ele>800.92</ele>
        <time>2015-05-10T15:23:58Z</time>
      </trkpt>
      <trkpt lat="44.29712" lon="3.59196">
        <ele>797.55</ele>
        <time>2015-05-10T15:24:14Z</time>
      </trkpt>
      <trkpt lat="44.29718" lon="3.59205">
        <ele>796.11</ele>
        <time>2015-05-10T15:24:31Z</time>
      </trkpt>
      <trkpt lat="44.29718" lon="3.59205">
        <ele>796.11</ele>
        <time>2015-05-10T15:24:35Z</time>
      </trkpt>
      <trkpt lat="44.29731" lon="3.59213">
        <ele>795.15</ele>
        <time>2015-05-10T15:24:49Z</time>
      </trkpt>
      <trkpt lat="44.29732" lon="3.59214">
        <ele>795.63</ele>
        <time>2015-05-10T15:24:50Z</time>
      </trkpt>
      <trkpt lat="44.29744" lon="3.59224">
        <ele>793.71</ele>
        <time>2015-05-10T15:25:01Z</time>
      </trkpt>
      <trkpt lat="44.29751" lon="3.59234">
        <ele>792.74</ele>
        <time>2015-05-10T15:25:10Z</time>
      </trkpt>
      <trkpt lat="44.29763" lon="3.59243">
        <ele>792.26</ele>
        <time>2015-05-10T15:25:21Z</time>
      </trkpt>
      <trkpt lat="44.29763" lon="3.59246">
        <ele>792.26</ele>
        <time>2015-05-10T15:25:37Z</time>
      </trkpt>
      <trkpt lat="44.29763" lon="3.59246">
        <ele>792.26</ele>
        <time>2015-05-10T15:25:41Z</time>
      </trkpt>
      <trkpt lat="44.29767" lon="3.59246">
        <ele>792.26</ele>
        <time>2015-05-10T15:25:44Z</time>
      </trkpt>
      <trkpt lat="44.2978" lon="3.59256">
        <ele>794.19</ele>
        <time>2015-05-10T15:25:59Z</time>
      </trkpt>
      <trkpt lat="44.29785" lon="3.59258">
        <ele>795.63</ele>
        <time>2015-05-10T15:26:17Z</time>
      </trkpt>
      <trkpt lat="44.29787" lon="3.59262">
        <ele>796.11</ele>
        <time>2015-05-10T15:26:39Z</time>
      </trkpt>
      <trkpt lat="44.298" lon="3.59271">
        <ele>798.51</ele>
        <time>2015-05-10T15:26:53Z</time>
      </trkpt>
      <trkpt lat="44.29809" lon="3.5928">
        <ele>800.44</ele>
        <time>2015-05-10T15:27:06Z</time>
      </trkpt>
      <trkpt lat="44.29817" lon="3.59296">
        <ele>801.4</ele>
        <time>2015-05-10T15:27:21Z</time>
      </trkpt>
      <trkpt lat="44.29822" lon="3.59303">
        <ele>802.36</ele>
        <time>2015-05-10T15:27:28Z</time>
      </trkpt>
      <trkpt lat="44.29823" lon="3.59307">
        <ele>802.84</ele>
        <time>2015-05-10T15:27:31Z</time>
      </trkpt>
      <trkpt lat="44.29824" lon="3.59314">
        <ele>803.32</ele>
        <time>2015-05-10T15:27:35Z</time>
      </trkpt>
      <trkpt lat="44.29837" lon="3.59332">
        <ele>803.32</ele>
        <time>2015-05-10T15:27:49Z</time>
      </trkpt>
      <trkpt lat="44.29848" lon="3.59352">
        <ele>803.8</ele>
        <time>2015-05-10T15:28:02Z</time>
      </trkpt>
      <trkpt lat="44.29856" lon="3.59364">
        <ele>803.32</ele>
        <time>2015-05-10T15:28:11Z</time>
      </trkpt>
      <trkpt lat="44.2986" lon="3.5937">
        <ele>803.32</ele>
        <time>2015-05-10T15:28:16Z</time>
      </trkpt>
      <trkpt lat="44.29863" lon="3.59375">
        <ele>803.32</ele>
        <time>2015-05-10T15:28:21Z</time>
      </trkpt>
      <trkpt lat="44.29871" lon="3.59384">
        <ele>803.32</ele>
        <time>2015-05-10T15:28:29Z</time>
      </trkpt>
      <trkpt lat="44.29877" lon="3.59388">
        <ele>803.32</ele>
        <time>2015-05-10T15:28:35Z</time>
      </trkpt>
      <trkpt lat="44.29891" lon="3.594">
        <ele>802.36</ele>
        <time>2015-05-10T15:28:49Z</time>
      </trkpt>
      <trkpt lat="44.29911" lon="3.59402">
        <ele>799.95</ele>
        <time>2015-05-10T15:29:05Z</time>
      </trkpt>
      <trkpt lat="44.29916" lon="3.59403">
        <ele>799.47</ele>
        <time>2015-05-10T15:29:10Z</time>
      </trkpt>
      <trkpt lat="44.29919" lon="3.59403">
        <ele>798.99</ele>
        <time>2015-05-10T15:29:13Z</time>
      </trkpt>
      <trkpt lat="44.29939" lon="3.59403">
        <ele>798.03</ele>
        <time>2015-05-10T15:29:29Z</time>
      </trkpt>
      <trkpt lat="44.29956" lon="3.59403">
        <ele>796.11</ele>
        <time>2015-05-10T15:29:43Z</time>
      </trkpt>
      <trkpt lat="44.29957" lon="3.59403">
        <ele>796.11</ele>
        <time>2015-05-10T15:29:44Z</time>
      </trkpt>
      <trkpt lat="44.29967" lon="3.59404">
        <ele>795.15</ele>
        <time>2015-05-10T15:29:53Z</time>
      </trkpt>
      <trkpt lat="44.29983" lon="3.59414">
        <ele>793.22</ele>
        <time>2015-05-10T15:30:08Z</time>
      </trkpt>
      <trkpt lat="44.30001" lon="3.59417">
        <ele>791.3</ele>
        <time>2015-05-10T15:30:23Z</time>
      </trkpt>
      <trkpt lat="44.30012" lon="3.59413">
        <ele>790.34</ele>
        <time>2015-05-10T15:30:36Z</time>
      </trkpt>
      <trkpt lat="44.30024" lon="3.59407">
        <ele>788.42</ele>
        <time>2015-05-10T15:30:47Z</time>
      </trkpt>
      <trkpt lat="44.30041" lon="3.59395">
        <ele>786.98</ele>
        <time>2015-05-10T15:31:02Z</time>
      </trkpt>
      <trkpt lat="44.30056" lon="3.59383">
        <ele>786.02</ele>
        <time>2015-05-10T15:31:18Z</time>
      </trkpt>
      <trkpt lat="44.30063" lon="3.5938">
        <ele>785.53</ele>
        <time>2015-05-10T15:31:23Z</time>
      </trkpt>
      <trkpt lat="44.30084" lon="3.59365">
        <ele>781.69</ele>
        <time>2015-05-10T15:31:39Z</time>
      </trkpt>
      <trkpt lat="44.30097" lon="3.5935">
        <ele>780.25</ele>
        <time>2015-05-10T15:31:55Z</time>
      </trkpt>
      <trkpt lat="44.30107" lon="3.59336">
        <ele>778.32</ele>
        <time>2015-05-10T15:32:10Z</time>
      </trkpt>
      <trkpt lat="44.3011" lon="3.59328">
        <ele>777.36</ele>
        <time>2015-05-10T15:32:14Z</time>
      </trkpt>
      <trkpt lat="44.30117" lon="3.59308">
        <ele>775.92</ele>
        <time>2015-05-10T15:32:27Z</time>
      </trkpt>
      <trkpt lat="44.30119" lon="3.59293">
        <ele>777.36</ele>
        <time>2015-05-10T15:32:37Z</time>
      </trkpt>
      <trkpt lat="44.30119" lon="3.59283">
        <ele>777.84</ele>
        <time>2015-05-10T15:32:51Z</time>
      </trkpt>
      <trkpt lat="44.3012" lon="3.59273">
        <ele>776.88</ele>
        <time>2015-05-10T15:33:06Z</time>
      </trkpt>
      <trkpt lat="44.30131" lon="3.59256">
        <ele>773.52</ele>
        <time>2015-05-10T15:33:21Z</time>
      </trkpt>
      <trkpt lat="44.30146" lon="3.59245">
        <ele>770.63</ele>
        <time>2015-05-10T15:33:35Z</time>
      </trkpt>
      <trkpt lat="44.30158" lon="3.59233">
        <ele>768.71</ele>
        <time>2015-05-10T15:33:50Z</time>
      </trkpt>
      <trkpt lat="44.30171" lon="3.59216">
        <ele>768.71</ele>
        <time>2015-05-10T15:34:07Z</time>
      </trkpt>
      <trkpt lat="44.30186" lon="3.59214">
        <ele>766.31</ele>
        <time>2015-05-10T15:34:21Z</time>
      </trkpt>
      <trkpt lat="44.30191" lon="3.59213">
        <ele>763.9</ele>
        <time>2015-05-10T15:34:30Z</time>
      </trkpt>
      <trkpt lat="44.30195" lon="3.59206">
        <ele>762.46</ele>
        <time>2015-05-10T15:34:47Z</time>
      </trkpt>
      <trkpt lat="44.30196" lon="3.5921">
        <ele>762.46</ele>
        <time>2015-05-10T15:35:03Z</time>
      </trkpt>
      <trkpt lat="44.30209" lon="3.59202">
        <ele>761.02</ele>
        <time>2015-05-10T15:35:14Z</time>
      </trkpt>
      <trkpt lat="44.30234" lon="3.59187">
        <ele>759.58</ele>
        <time>2015-05-10T15:35:30Z</time>
      </trkpt>
      <trkpt lat="44.30239" lon="3.59189">
        <ele>759.58</ele>
        <time>2015-05-10T15:35:35Z</time>
      </trkpt>
      <trkpt lat="44.30256" lon="3.59189">
        <ele>759.58</ele>
        <time>2015-05-10T15:35:51Z</time>
      </trkpt>
      <trkpt lat="44.30261" lon="3.59189">
        <ele>759.58</ele>
        <time>2015-05-10T15:35:57Z</time>
      </trkpt>
      <trkpt lat="44.30275" lon="3.59192">
        <ele>758.62</ele>
        <time>2015-05-10T15:36:08Z</time>
      </trkpt>
      <trkpt lat="44.30297" lon="3.59185">
        <ele>757.66</ele>
        <time>2015-05-10T15:36:27Z</time>
      </trkpt>
      <trkpt lat="44.30306" lon="3.5917">
        <ele>758.62</ele>
        <time>2015-05-10T15:36:39Z</time>
      </trkpt>
      <trkpt lat="44.30315" lon="3.5915">
        <ele>759.1</ele>
        <time>2015-05-10T15:36:53Z</time>
      </trkpt>
      <trkpt lat="44.30327" lon="3.59127">
        <ele>760.06</ele>
        <time>2015-05-10T15:37:11Z</time>
      </trkpt>
      <trkpt lat="44.30332" lon="3.59111">
        <ele>760.54</ele>
        <time>2015-05-10T15:37:25Z</time>
      </trkpt>
      <trkpt lat="44.30333" lon="3.59109">
        <ele>760.54</ele>
        <time>2015-05-10T15:37:27Z</time>
      </trkpt>
      <trkpt lat="44.30337" lon="3.59091">
        <ele>761.5</ele>
        <time>2015-05-10T15:37:41Z</time>
      </trkpt>
      <trkpt lat="44.30341" lon="3.59084">
        <ele>761.5</ele>
        <time>2015-05-10T15:37:45Z</time>
      </trkpt>
      <trkpt lat="44.30357" lon="3.59068">
        <ele>759.58</ele>
        <time>2015-05-10T15:38:01Z</time>
      </trkpt>
      <trkpt lat="44.30373" lon="3.59053">
        <ele>758.14</ele>
        <time>2015-05-10T15:38:15Z</time>
      </trkpt>
      <trkpt lat="44.30385" lon="3.59043">
        <ele>756.69</ele>
        <time>2015-05-10T15:38:29Z</time>
      </trkpt>
      <trkpt lat="44.30391" lon="3.59038">
        <ele>755.73</ele>
        <time>2015-05-10T15:38:46Z</time>
      </trkpt>
      <trkpt lat="44.30393" lon="3.59038">
        <ele>755.25</ele>
        <time>2015-05-10T15:39:00Z</time>
      </trkpt>
      <trkpt lat="44.30396" lon="3.59033">
        <ele>754.77</ele>
        <time>2015-05-10T15:39:04Z</time>
      </trkpt>
      <trkpt lat="44.30398" lon="3.59029">
        <ele>754.29</ele>
        <time>2015-05-10T15:39:08Z</time>
      </trkpt>
      <trkpt lat="44.30399" lon="3.59027">
        <ele>753.81</ele>
        <time>2015-05-10T15:39:10Z</time>
      </trkpt>
      <trkpt lat="44.30419" lon="3.59018">
        <ele>751.89</ele>
        <time>2015-05-10T15:39:26Z</time>
      </trkpt>
      <trkpt lat="44.3044" lon="3.59016">
        <ele>751.41</ele>
        <time>2015-05-10T15:39:43Z</time>
      </trkpt>
      <trkpt lat="44.30464" lon="3.59034">
        <ele>752.37</ele>
        <time>2015-05-10T15:40:02Z</time>
      </trkpt>
      <trkpt lat="44.3047" lon="3.5904">
        <ele>752.37</ele>
        <time>2015-05-10T15:40:09Z</time>
      </trkpt>
      <trkpt lat="44.30474" lon="3.59047">
        <ele>752.37</ele>
        <time>2015-05-10T15:40:14Z</time>
      </trkpt>
      <trkpt lat="44.30483" lon="3.59059">
        <ele>753.33</ele>
        <time>2015-05-10T15:40:27Z</time>
      </trkpt>
      <trkpt lat="44.30487" lon="3.59065">
        <ele>752.85</ele>
        <time>2015-05-10T15:40:31Z</time>
      </trkpt>
      <trkpt lat="44.30488" lon="3.59071">
        <ele>752.85</ele>
        <time>2015-05-10T15:40:34Z</time>
      </trkpt>
      <trkpt lat="44.30491" lon="3.59076">
        <ele>752.37</ele>
        <time>2015-05-10T15:40:38Z</time>
      </trkpt>
      <trkpt lat="44.30493" lon="3.59081">
        <ele>752.85</ele>
        <time>2015-05-10T15:40:42Z</time>
      </trkpt>
      <trkpt lat="44.30503" lon="3.59091">
        <ele>753.81</ele>
        <time>2015-05-10T15:40:53Z</time>
      </trkpt>
      <trkpt lat="44.30505" lon="3.59096">
        <ele>753.81</ele>
        <time>2015-05-10T15:40:56Z</time>
      </trkpt>
      <trkpt lat="44.3051" lon="3.59103">
        <ele>754.29</ele>
        <time>2015-05-10T15:41:03Z</time>
      </trkpt>
      <trkpt lat="44.30516" lon="3.5911">
        <ele>754.77</ele>
        <time>2015-05-10T15:41:09Z</time>
      </trkpt>
      <trkpt lat="44.30522" lon="3.59115">
        <ele>755.73</ele>
        <time>2015-05-10T15:41:15Z</time>
      </trkpt>
      <trkpt lat="44.30529" lon="3.59122">
        <ele>755.73</ele>
        <time>2015-05-10T15:41:23Z</time>
      </trkpt>
      <trkpt lat="44.30532" lon="3.59132">
        <ele>756.21</ele>
        <time>2015-05-10T15:41:30Z</time>
      </trkpt>
      <trkpt lat="44.30533" lon="3.59137">
        <ele>756.21</ele>
        <time>2015-05-10T15:41:33Z</time>
      </trkpt>
      <trkpt lat="44.30538" lon="3.59149">
        <ele>755.25</ele>
        <time>2015-05-10T15:41:40Z</time>
      </trkpt>
      <trkpt lat="44.30544" lon="3.59157">
        <ele>755.25</ele>
        <time>2015-05-10T15:41:47Z</time>
      </trkpt>
      <trkpt lat="44.30546" lon="3.59163">
        <ele>754.77</ele>
        <time>2015-05-10T15:41:51Z</time>
      </trkpt>
      <trkpt lat="44.30557" lon="3.59183">
        <ele>754.77</ele>
        <time>2015-05-10T15:42:05Z</time>
      </trkpt>
      <trkpt lat="44.30565" lon="3.59194">
        <ele>754.77</ele>
        <time>2015-05-10T15:42:15Z</time>
      </trkpt>
      <trkpt lat="44.3057" lon="3.59202">
        <ele>755.25</ele>
        <time>2015-05-10T15:42:20Z</time>
      </trkpt>
      <trkpt lat="44.30583" lon="3.5922">
        <ele>754.77</ele>
        <time>2015-05-10T15:42:35Z</time>
      </trkpt>
      <trkpt lat="44.30588" lon="3.59225">
        <ele>754.77</ele>
        <time>2015-05-10T15:42:41Z</time>
      </trkpt>
      <trkpt lat="44.30598" lon="3.59243">
        <ele>754.77</ele>
        <time>2015-05-10T15:42:54Z</time>
      </trkpt>
      <trkpt lat="44.30601" lon="3.59248">
        <ele>754.77</ele>
        <time>2015-05-10T15:42:58Z</time>
      </trkpt>
      <trkpt lat="44.30604" lon="3.59254">
        <ele>755.73</ele>
        <time>2015-05-10T15:43:04Z</time>
      </trkpt>
      <trkpt lat="44.30608" lon="3.59262">
        <ele>756.21</ele>
        <time>2015-05-10T15:43:09Z</time>
      </trkpt>
      <trkpt lat="44.30609" lon="3.59265">
        <ele>756.21</ele>
        <time>2015-05-10T15:43:12Z</time>
      </trkpt>
      <trkpt lat="44.30619" lon="3.5928">
        <ele>756.69</ele>
        <time>2015-05-10T15:43:24Z</time>
      </trkpt>
      <trkpt lat="44.30626" lon="3.5929">
        <ele>756.69</ele>
        <time>2015-05-10T15:43:31Z</time>
      </trkpt>
      <trkpt lat="44.30634" lon="3.59306">
        <ele>756.21</ele>
        <time>2015-05-10T15:43:44Z</time>
      </trkpt>
      <trkpt lat="44.30639" lon="3.59316">
        <ele>755.25</ele>
        <time>2015-05-10T15:44:00Z</time>
      </trkpt>
      <trkpt lat="44.30639" lon="3.59317">
        <ele>754.77</ele>
        <time>2015-05-10T15:44:01Z</time>
      </trkpt>
      <trkpt lat="44.3065" lon="3.59322">
        <ele>754.29</ele>
        <time>2015-05-10T15:44:12Z</time>
      </trkpt>
      <trkpt lat="44.30669" lon="3.59316">
        <ele>753.33</ele>
        <time>2015-05-10T15:44:26Z</time>
      </trkpt>
      <trkpt lat="44.30683" lon="3.59311">
        <ele>751.89</ele>
        <time>2015-05-10T15:44:38Z</time>
      </trkpt>
      <trkpt lat="44.30702" lon="3.59309">
        <ele>749.97</ele>
        <time>2015-05-10T15:44:53Z</time>
      </trkpt>
      <trkpt lat="44.30722" lon="3.59307">
        <ele>748.04</ele>
        <time>2015-05-10T15:45:08Z</time>
      </trkpt>
      <trkpt lat="44.3073" lon="3.59308">
        <ele>747.08</ele>
        <time>2015-05-10T15:45:15Z</time>
      </trkpt>
      <trkpt lat="44.30747" lon="3.59309">
        <ele>744.68</ele>
        <time>2015-05-10T15:45:29Z</time>
      </trkpt>
      <trkpt lat="44.30764" lon="3.59307">
        <ele>743.72</ele>
        <time>2015-05-10T15:45:44Z</time>
      </trkpt>
      <trkpt lat="44.30769" lon="3.59307">
        <ele>743.24</ele>
        <time>2015-05-10T15:45:48Z</time>
      </trkpt>
      <trkpt lat="44.30778" lon="3.5931">
        <ele>742.28</ele>
        <time>2015-05-10T15:45:55Z</time>
      </trkpt>
      <trkpt lat="44.30794" lon="3.59313">
        <ele>739.39</ele>
        <time>2015-05-10T15:46:10Z</time>
      </trkpt>
      <trkpt lat="44.30815" lon="3.59316">
        <ele>736.51</ele>
        <time>2015-05-10T15:46:26Z</time>
      </trkpt>
      <trkpt lat="44.30823" lon="3.59315">
        <ele>734.58</ele>
        <time>2015-05-10T15:46:34Z</time>
      </trkpt>
      <trkpt lat="44.30817" lon="3.59333">
        <ele>733.14</ele>
        <time>2015-05-10T15:46:46Z</time>
      </trkpt>
      <trkpt lat="44.30803" lon="3.59343">
        <ele>730.74</ele>
        <time>2015-05-10T15:46:59Z</time>
      </trkpt>
      <trkpt lat="44.30802" lon="3.59344">
        <ele>730.74</ele>
        <time>2015-05-10T15:47:00Z</time>
      </trkpt>
      <trkpt lat="44.30801" lon="3.59347">
        <ele>729.3</ele>
        <time>2015-05-10T15:47:05Z</time>
      </trkpt>
      <trkpt lat="44.30803" lon="3.59346">
        <ele>728.82</ele>
        <time>2015-05-10T15:47:07Z</time>
      </trkpt>
      <trkpt lat="44.3082" lon="3.59343">
        <ele>727.86</ele>
        <time>2015-05-10T15:47:21Z</time>
      </trkpt>
      <trkpt lat="44.30825" lon="3.59344">
        <ele>727.37</ele>
        <time>2015-05-10T15:47:25Z</time>
      </trkpt>
      <trkpt lat="44.30841" lon="3.59337">
        <ele>724.01</ele>
        <time>2015-05-10T15:47:40Z</time>
      </trkpt>
      <trkpt lat="44.30848" lon="3.5933">
        <ele>722.57</ele>
        <time>2015-05-10T15:47:47Z</time>
      </trkpt>
      <trkpt lat="44.30851" lon="3.59334">
        <ele>721.61</ele>
        <time>2015-05-10T15:47:51Z</time>
      </trkpt>
      <trkpt lat="44.30851" lon="3.59345">
        <ele>720.65</ele>
        <time>2015-05-10T15:47:57Z</time>
      </trkpt>
      <trkpt lat="44.30847" lon="3.59367">
        <ele>719.68</ele>
        <time>2015-05-10T15:48:10Z</time>
      </trkpt>
      <trkpt lat="44.30837" lon="3.59382">
        <ele>717.76</ele>
        <time>2015-05-10T15:48:23Z</time>
      </trkpt>
      <trkpt lat="44.30832" lon="3.59387">
        <ele>717.28</ele>
        <time>2015-05-10T15:48:28Z</time>
      </trkpt>
      <trkpt lat="44.30814" lon="3.59396">
        <ele>716.8</ele>
        <time>2015-05-10T15:48:43Z</time>
      </trkpt>
      <trkpt lat="44.30811" lon="3.59398">
        <ele>715.84</ele>
        <time>2015-05-10T15:48:45Z</time>
      </trkpt>
      <trkpt lat="44.30805" lon="3.594">
        <ele>714.88</ele>
        <time>2015-05-10T15:48:50Z</time>
      </trkpt>
      <trkpt lat="44.30797" lon="3.59408">
        <ele>712.95</ele>
        <time>2015-05-10T15:49:02Z</time>
      </trkpt>
      <trkpt lat="44.30798" lon="3.59408">
        <ele>712.47</ele>
        <time>2015-05-10T15:49:03Z</time>
      </trkpt>
      <trkpt lat="44.30805" lon="3.59409">
        <ele>711.51</ele>
        <time>2015-05-10T15:49:09Z</time>
      </trkpt>
      <trkpt lat="44.30811" lon="3.59409">
        <ele>710.55</ele>
        <time>2015-05-10T15:49:13Z</time>
      </trkpt>
      <trkpt lat="44.30827" lon="3.59411">
        <ele>708.63</ele>
        <time>2015-05-10T15:49:27Z</time>
      </trkpt>
      <trkpt lat="44.30839" lon="3.59409">
        <ele>707.67</ele>
        <time>2015-05-10T15:49:37Z</time>
      </trkpt>
      <trkpt lat="44.30857" lon="3.59402">
        <ele>707.19</ele>
        <time>2015-05-10T15:49:51Z</time>
      </trkpt>
      <trkpt lat="44.30872" lon="3.59395">
        <ele>705.26</ele>
        <time>2015-05-10T15:50:04Z</time>
      </trkpt>
      <trkpt lat="44.30885" lon="3.59389">
        <ele>702.86</ele>
        <time>2015-05-10T15:50:17Z</time>
      </trkpt>
      <trkpt lat="44.30892" lon="3.59385">
        <ele>701.42</ele>
        <time>2015-05-10T15:50:25Z</time>
      </trkpt>
      <trkpt lat="44.30893" lon="3.5939">
        <ele>700.46</ele>
        <time>2015-05-10T15:50:28Z</time>
      </trkpt>
      <trkpt lat="44.30892" lon="3.59394">
        <ele>700.46</ele>
        <time>2015-05-10T15:50:31Z</time>
      </trkpt>
      <trkpt lat="44.3089" lon="3.59398">
        <ele>699.5</ele>
        <time>2015-05-10T15:50:34Z</time>
      </trkpt>
      <trkpt lat="44.30882" lon="3.59412">
        <ele>698.05</ele>
        <time>2015-05-10T15:50:45Z</time>
      </trkpt>
      <trkpt lat="44.30869" lon="3.59424">
        <ele>696.61</ele>
        <time>2015-05-10T15:50:58Z</time>
      </trkpt>
      <trkpt lat="44.30869" lon="3.59429">
        <ele>696.13</ele>
        <time>2015-05-10T15:51:02Z</time>
      </trkpt>
      <trkpt lat="44.30882" lon="3.59421">
        <ele>694.21</ele>
        <time>2015-05-10T15:51:15Z</time>
      </trkpt>
      <trkpt lat="44.30893" lon="3.59411">
        <ele>692.77</ele>
        <time>2015-05-10T15:51:27Z</time>
      </trkpt>
      <trkpt lat="44.30895" lon="3.59409">
        <ele>692.77</ele>
        <time>2015-05-10T15:51:29Z</time>
      </trkpt>
      <trkpt lat="44.30899" lon="3.59405">
        <ele>691.81</ele>
        <time>2015-05-10T15:51:33Z</time>
      </trkpt>
      <trkpt lat="44.30907" lon="3.59396">
        <ele>690.36</ele>
        <time>2015-05-10T15:51:42Z</time>
      </trkpt>
      <trkpt lat="44.30915" lon="3.59381">
        <ele>688.44</ele>
        <time>2015-05-10T15:51:56Z</time>
      </trkpt>
      <trkpt lat="44.3092" lon="3.59375">
        <ele>687</ele>
        <time>2015-05-10T15:52:05Z</time>
      </trkpt>
      <trkpt lat="44.30922" lon="3.59383">
        <ele>685.56</ele>
        <time>2015-05-10T15:52:10Z</time>
      </trkpt>
      <trkpt lat="44.30921" lon="3.59393">
        <ele>684.6</ele>
        <time>2015-05-10T15:52:17Z</time>
      </trkpt>
      <trkpt lat="44.3092" lon="3.59399">
        <ele>683.63</ele>
        <time>2015-05-10T15:52:21Z</time>
      </trkpt>
      <trkpt lat="44.30919" lon="3.59415">
        <ele>681.23</ele>
        <time>2015-05-10T15:52:33Z</time>
      </trkpt>
      <trkpt lat="44.30918" lon="3.59423">
        <ele>680.27</ele>
        <time>2015-05-10T15:52:39Z</time>
      </trkpt>
      <trkpt lat="44.30919" lon="3.59432">
        <ele>678.35</ele>
        <time>2015-05-10T15:52:46Z</time>
      </trkpt>
      <trkpt lat="44.30915" lon="3.59437">
        <ele>677.39</ele>
        <time>2015-05-10T15:52:51Z</time>
      </trkpt>
      <trkpt lat="44.30912" lon="3.59443">
        <ele>674.98</ele>
        <time>2015-05-10T15:53:03Z</time>
      </trkpt>
      <trkpt lat="44.30927" lon="3.59433">
        <ele>672.1</ele>
        <time>2015-05-10T15:53:18Z</time>
      </trkpt>
      <trkpt lat="44.3093" lon="3.59426">
        <ele>670.66</ele>
        <time>2015-05-10T15:53:24Z</time>
      </trkpt>
      <trkpt lat="44.30941" lon="3.59409">
        <ele>667.29</ele>
        <time>2015-05-10T15:53:38Z</time>
      </trkpt>
      <trkpt lat="44.30944" lon="3.59404">
        <ele>666.33</ele>
        <time>2015-05-10T15:53:43Z</time>
      </trkpt>
      <trkpt lat="44.30945" lon="3.59401">
        <ele>665.37</ele>
        <time>2015-05-10T15:53:45Z</time>
      </trkpt>
      <trkpt lat="44.30951" lon="3.59395">
        <ele>664.41</ele>
        <time>2015-05-10T15:53:50Z</time>
      </trkpt>
      <trkpt lat="44.30956" lon="3.59391">
        <ele>662.97</ele>
        <time>2015-05-10T15:53:56Z</time>
      </trkpt>
      <trkpt lat="44.3096" lon="3.59383">
        <ele>662.01</ele>
        <time>2015-05-10T15:54:02Z</time>
      </trkpt>
      <trkpt lat="44.30963" lon="3.59364">
        <ele>659.12</ele>
        <time>2015-05-10T15:54:16Z</time>
      </trkpt>
      <trkpt lat="44.30963" lon="3.59358">
        <ele>658.64</ele>
        <time>2015-05-10T15:54:30Z</time>
      </trkpt>
      <trkpt lat="44.30963" lon="3.59356">
        <ele>658.16</ele>
        <time>2015-05-10T15:54:59Z</time>
      </trkpt>
      <trkpt lat="44.30964" lon="3.59353">
        <ele>658.16</ele>
        <time>2015-05-10T15:55:04Z</time>
      </trkpt>
      <trkpt lat="44.30967" lon="3.59345">
        <ele>657.2</ele>
        <time>2015-05-10T15:55:10Z</time>
      </trkpt>
      <trkpt lat="44.30972" lon="3.59327">
        <ele>655.28</ele>
        <time>2015-05-10T15:55:24Z</time>
      </trkpt>
      <trkpt lat="44.30974" lon="3.59321">
        <ele>652.87</ele>
        <time>2015-05-10T15:55:38Z</time>
      </trkpt>
      <trkpt lat="44.30976" lon="3.59322">
        <ele>651.91</ele>
        <time>2015-05-10T15:55:42Z</time>
      </trkpt>
      <trkpt lat="44.30975" lon="3.59331">
        <ele>651.43</ele>
        <time>2015-05-10T15:55:48Z</time>
      </trkpt>
      <trkpt lat="44.30976" lon="3.59334">
        <ele>650.95</ele>
        <time>2015-05-10T15:55:51Z</time>
      </trkpt>
      <trkpt lat="44.30977" lon="3.59337">
        <ele>650.47</ele>
        <time>2015-05-10T15:55:53Z</time>
      </trkpt>
      <trkpt lat="44.30978" lon="3.59346">
        <ele>649.51</ele>
        <time>2015-05-10T15:55:57Z</time>
      </trkpt>
      <trkpt lat="44.30978" lon="3.59354">
        <ele>649.03</ele>
        <time>2015-05-10T15:56:02Z</time>
      </trkpt>
      <trkpt lat="44.30977" lon="3.59369">
        <ele>646.62</ele>
        <time>2015-05-10T15:56:14Z</time>
      </trkpt>
      <trkpt lat="44.3098" lon="3.59372">
        <ele>645.66</ele>
        <time>2015-05-10T15:56:27Z</time>
      </trkpt>
      <trkpt lat="44.30981" lon="3.59371">
        <ele>645.66</ele>
        <time>2015-05-10T15:56:28Z</time>
      </trkpt>
      <trkpt lat="44.30987" lon="3.5936">
        <ele>644.22</ele>
        <time>2015-05-10T15:56:37Z</time>
      </trkpt>
      <trkpt lat="44.30995" lon="3.59357">
        <ele>641.34</ele>
        <time>2015-05-10T15:56:51Z</time>
      </trkpt>
      <trkpt lat="44.30996" lon="3.5936">
        <ele>641.34</ele>
        <time>2015-05-10T15:56:56Z</time>
      </trkpt>
      <trkpt lat="44.30997" lon="3.59363">
        <ele>640.86</ele>
        <time>2015-05-10T15:56:58Z</time>
      </trkpt>
      <trkpt lat="44.30999" lon="3.59367">
        <ele>639.89</ele>
        <time>2015-05-10T15:57:02Z</time>
      </trkpt>
      <trkpt lat="44.31002" lon="3.59375">
        <ele>638.93</ele>
        <time>2015-05-10T15:57:07Z</time>
      </trkpt>
      <trkpt lat="44.31005" lon="3.5938">
        <ele>637.97</ele>
        <time>2015-05-10T15:57:11Z</time>
      </trkpt>
      <trkpt lat="44.31012" lon="3.59398">
        <ele>635.09</ele>
        <time>2015-05-10T15:57:25Z</time>
      </trkpt>
      <trkpt lat="44.31013" lon="3.59415">
        <ele>631.72</ele>
        <time>2015-05-10T15:57:40Z</time>
      </trkpt>
      <trkpt lat="44.31014" lon="3.59418">
        <ele>630.28</ele>
        <time>2015-05-10T15:57:49Z</time>
      </trkpt>
      <trkpt lat="44.31025" lon="3.59409">
        <ele>631.24</ele>
        <time>2015-05-10T15:58:02Z</time>
      </trkpt>
      <trkpt lat="44.31034" lon="3.59406">
        <ele>632.68</ele>
        <time>2015-05-10T15:58:15Z</time>
      </trkpt>
      <trkpt lat="44.31044" lon="3.59406">
        <ele>634.13</ele>
        <time>2015-05-10T15:58:21Z</time>
      </trkpt>
      <trkpt lat="44.31062" lon="3.59412">
        <ele>637.01</ele>
        <time>2015-05-10T15:58:38Z</time>
      </trkpt>
      <trkpt lat="44.31074" lon="3.59421">
        <ele>639.89</ele>
        <time>2015-05-10T15:58:53Z</time>
      </trkpt>
      <trkpt lat="44.31086" lon="3.59431">
        <ele>640.38</ele>
        <time>2015-05-10T15:59:07Z</time>
      </trkpt>
      <trkpt lat="44.311" lon="3.59442">
        <ele>641.82</ele>
        <time>2015-05-10T15:59:22Z</time>
      </trkpt>
      <trkpt lat="44.31113" lon="3.5945">
        <ele>644.22</ele>
        <time>2015-05-10T15:59:38Z</time>
      </trkpt>
      <trkpt lat="44.31123" lon="3.59459">
        <ele>645.18</ele>
        <time>2015-05-10T15:59:51Z</time>
      </trkpt>
      <trkpt lat="44.31133" lon="3.59458">
        <ele>644.7</ele>
        <time>2015-05-10T16:00:08Z</time>
      </trkpt>
      <trkpt lat="44.31138" lon="3.59455">
        <ele>644.7</ele>
        <time>2015-05-10T16:00:22Z</time>
      </trkpt>
      <trkpt lat="44.31138" lon="3.59455">
        <ele>644.7</ele>
        <time>2015-05-10T16:00:50Z</time>
      </trkpt>
      <trkpt lat="44.31149" lon="3.59446">
        <ele>645.18</ele>
        <time>2015-05-10T16:01:01Z</time>
      </trkpt>
      <trkpt lat="44.31155" lon="3.59431">
        <ele>646.14</ele>
        <time>2015-05-10T16:01:16Z</time>
      </trkpt>
      <trkpt lat="44.31169" lon="3.59418">
        <ele>644.22</ele>
        <time>2015-05-10T16:01:31Z</time>
      </trkpt>
      <trkpt lat="44.31178" lon="3.59408">
        <ele>641.82</ele>
        <time>2015-05-10T16:01:45Z</time>
      </trkpt>
      <trkpt lat="44.31192" lon="3.59393">
        <ele>639.41</ele>
        <time>2015-05-10T16:02:01Z</time>
      </trkpt>
      <trkpt lat="44.31199" lon="3.59383">
        <ele>636.05</ele>
        <time>2015-05-10T16:02:14Z</time>
      </trkpt>
      <trkpt lat="44.31204" lon="3.59378">
        <ele>633.65</ele>
        <time>2015-05-10T16:02:28Z</time>
      </trkpt>
      <trkpt lat="44.31212" lon="3.59385">
        <ele>633.17</ele>
        <time>2015-05-10T16:02:38Z</time>
      </trkpt>
      <trkpt lat="44.31221" lon="3.59401">
        <ele>633.65</ele>
        <time>2015-05-10T16:02:50Z</time>
      </trkpt>
      <trkpt lat="44.31229" lon="3.59412">
        <ele>633.65</ele>
        <time>2015-05-10T16:02:57Z</time>
      </trkpt>
      <trkpt lat="44.31236" lon="3.59422">
        <ele>634.13</ele>
        <time>2015-05-10T16:03:04Z</time>
      </trkpt>
      <trkpt lat="44.31238" lon="3.59425">
        <ele>634.61</ele>
        <time>2015-05-10T16:03:06Z</time>
      </trkpt>
      <trkpt lat="44.31248" lon="3.5944">
        <ele>635.09</ele>
        <time>2015-05-10T16:03:20Z</time>
      </trkpt>
      <trkpt lat="44.3126" lon="3.59456">
        <ele>636.05</ele>
        <time>2015-05-10T16:03:36Z</time>
      </trkpt>
      <trkpt lat="44.31274" lon="3.59475">
        <ele>635.57</ele>
        <time>2015-05-10T16:03:54Z</time>
      </trkpt>
      <trkpt lat="44.31282" lon="3.59488">
        <ele>634.13</ele>
        <time>2015-05-10T16:04:06Z</time>
      </trkpt>
      <trkpt lat="44.31286" lon="3.59492">
        <ele>632.2</ele>
        <time>2015-05-10T16:04:11Z</time>
      </trkpt>
      <trkpt lat="44.31294" lon="3.59496">
        <ele>631.72</ele>
        <time>2015-05-10T16:04:17Z</time>
      </trkpt>
      <trkpt lat="44.31298" lon="3.59503">
        <ele>629.8</ele>
        <time>2015-05-10T16:04:24Z</time>
      </trkpt>
      <trkpt lat="44.31303" lon="3.59512">
        <ele>627.88</ele>
        <time>2015-05-10T16:04:35Z</time>
      </trkpt>
      <trkpt lat="44.31316" lon="3.59528">
        <ele>627.4</ele>
        <time>2015-05-10T16:04:53Z</time>
      </trkpt>
      <trkpt lat="44.31319" lon="3.59526">
        <ele>626.92</ele>
        <time>2015-05-10T16:05:09Z</time>
      </trkpt>
      <trkpt lat="44.3132" lon="3.59524">
        <ele>627.4</ele>
        <time>2015-05-10T16:05:36Z</time>
      </trkpt>
      <trkpt lat="44.3132" lon="3.59524">
        <ele>626.92</ele>
        <time>2015-05-10T16:06:00Z</time>
      </trkpt>
      <trkpt lat="44.31323" lon="3.59527">
        <ele>627.88</ele>
        <time>2015-05-10T16:06:23Z</time>
      </trkpt>
      <trkpt lat="44.31333" lon="3.59538">
        <ele>627.88</ele>
        <time>2015-05-10T16:06:31Z</time>
      </trkpt>
      <trkpt lat="44.31347" lon="3.59551">
        <ele>625.47</ele>
        <time>2015-05-10T16:06:49Z</time>
      </trkpt>
      <trkpt lat="44.31365" lon="3.59551">
        <ele>626.44</ele>
        <time>2015-05-10T16:07:05Z</time>
      </trkpt>
      <trkpt lat="44.31379" lon="3.59559">
        <ele>624.51</ele>
        <time>2015-05-10T16:07:20Z</time>
      </trkpt>
      <trkpt lat="44.31388" lon="3.59568">
        <ele>622.59</ele>
        <time>2015-05-10T16:07:35Z</time>
      </trkpt>
      <trkpt lat="44.31394" lon="3.59573">
        <ele>620.19</ele>
        <time>2015-05-10T16:07:53Z</time>
      </trkpt>
      <trkpt lat="44.31402" lon="3.5958">
        <ele>616.82</ele>
        <time>2015-05-10T16:08:10Z</time>
      </trkpt>
      <trkpt lat="44.31413" lon="3.5959">
        <ele>613.46</ele>
        <time>2015-05-10T16:08:24Z</time>
      </trkpt>
      <trkpt lat="44.31427" lon="3.59599">
        <ele>610.57</ele>
        <time>2015-05-10T16:08:39Z</time>
      </trkpt>
      <trkpt lat="44.31439" lon="3.59616">
        <ele>608.17</ele>
        <time>2015-05-10T16:08:54Z</time>
      </trkpt>
      <trkpt lat="44.31445" lon="3.59618">
        <ele>607.21</ele>
        <time>2015-05-10T16:08:58Z</time>
      </trkpt>
      <trkpt lat="44.31448" lon="3.59619">
        <ele>606.73</ele>
        <time>2015-05-10T16:09:00Z</time>
      </trkpt>
      <trkpt lat="44.31465" lon="3.59624">
        <ele>604.33</ele>
        <time>2015-05-10T16:09:16Z</time>
      </trkpt>
      <trkpt lat="44.31477" lon="3.59622">
        <ele>601.92</ele>
        <time>2015-05-10T16:09:31Z</time>
      </trkpt>
      <trkpt lat="44.31485" lon="3.59636">
        <ele>599.04</ele>
        <time>2015-05-10T16:09:42Z</time>
      </trkpt>
      <trkpt lat="44.31491" lon="3.59647">
        <ele>598.08</ele>
        <time>2015-05-10T16:09:52Z</time>
      </trkpt>
      <trkpt lat="44.31494" lon="3.59651">
        <ele>599.04</ele>
        <time>2015-05-10T16:09:58Z</time>
      </trkpt>
      <trkpt lat="44.31507" lon="3.5967">
        <ele>600.96</ele>
        <time>2015-05-10T16:10:12Z</time>
      </trkpt>
      <trkpt lat="44.3151" lon="3.59679">
        <ele>600.96</ele>
        <time>2015-05-10T16:10:19Z</time>
      </trkpt>
      <trkpt lat="44.31511" lon="3.59685">
        <ele>601.44</ele>
        <time>2015-05-10T16:10:24Z</time>
      </trkpt>
      <trkpt lat="44.31513" lon="3.59696">
        <ele>600.48</ele>
        <time>2015-05-10T16:10:31Z</time>
      </trkpt>
      <trkpt lat="44.31513" lon="3.59703">
        <ele>600</ele>
        <time>2015-05-10T16:10:35Z</time>
      </trkpt>
      <trkpt lat="44.31521" lon="3.5971">
        <ele>599.04</ele>
        <time>2015-05-10T16:10:45Z</time>
      </trkpt>
      <trkpt lat="44.31539" lon="3.59708">
        <ele>596.15</ele>
        <time>2015-05-10T16:11:01Z</time>
      </trkpt>
      <trkpt lat="44.31544" lon="3.59709">
        <ele>592.79</ele>
        <time>2015-05-10T16:11:12Z</time>
      </trkpt>
      <trkpt lat="44.31551" lon="3.59712">
        <ele>590.87</ele>
        <time>2015-05-10T16:11:22Z</time>
      </trkpt>
      <trkpt lat="44.31563" lon="3.59717">
        <ele>589.43</ele>
        <time>2015-05-10T16:11:33Z</time>
      </trkpt>
      <trkpt lat="44.31569" lon="3.59725">
        <ele>588.46</ele>
        <time>2015-05-10T16:11:40Z</time>
      </trkpt>
      <trkpt lat="44.31572" lon="3.59727">
        <ele>587.98</ele>
        <time>2015-05-10T16:11:42Z</time>
      </trkpt>
      <trkpt lat="44.31582" lon="3.59747">
        <ele>585.58</ele>
        <time>2015-05-10T16:11:57Z</time>
      </trkpt>
      <trkpt lat="44.31586" lon="3.59758">
        <ele>582.7</ele>
        <time>2015-05-10T16:12:09Z</time>
      </trkpt>
      <trkpt lat="44.31593" lon="3.59769">
        <ele>579.81</ele>
        <time>2015-05-10T16:12:22Z</time>
      </trkpt>
      <trkpt lat="44.31597" lon="3.59772">
        <ele>577.89</ele>
        <time>2015-05-10T16:12:28Z</time>
      </trkpt>
      <trkpt lat="44.31609" lon="3.59777">
        <ele>575.01</ele>
        <time>2015-05-10T16:12:40Z</time>
      </trkpt>
      <trkpt lat="44.31616" lon="3.59781">
        <ele>573.08</ele>
        <time>2015-05-10T16:12:50Z</time>
      </trkpt>
      <trkpt lat="44.31622" lon="3.59784">
        <ele>573.08</ele>
        <time>2015-05-10T16:12:55Z</time>
      </trkpt>
      <trkpt lat="44.3163" lon="3.59789">
        <ele>570.68</ele>
        <time>2015-05-10T16:13:03Z</time>
      </trkpt>
      <trkpt lat="44.31642" lon="3.59795">
        <ele>566.83</ele>
        <time>2015-05-10T16:13:17Z</time>
      </trkpt>
      <trkpt lat="44.31644" lon="3.59797">
        <ele>566.83</ele>
        <time>2015-05-10T16:13:20Z</time>
      </trkpt>
      <trkpt lat="44.31646" lon="3.59798">
        <ele>565.87</ele>
        <time>2015-05-10T16:13:22Z</time>
      </trkpt>
      <trkpt lat="44.31655" lon="3.59805">
        <ele>562.51</ele>
        <time>2015-05-10T16:13:38Z</time>
      </trkpt>
      <trkpt lat="44.31657" lon="3.59808">
        <ele>562.03</ele>
        <time>2015-05-10T16:13:41Z</time>
      </trkpt>
      <trkpt lat="44.31666" lon="3.59809">
        <ele>561.07</ele>
        <time>2015-05-10T16:13:48Z</time>
      </trkpt>
      <trkpt lat="44.31673" lon="3.5981">
        <ele>561.07</ele>
        <time>2015-05-10T16:13:55Z</time>
      </trkpt>
      <trkpt lat="44.31687" lon="3.59813">
        <ele>561.07</ele>
        <time>2015-05-10T16:14:09Z</time>
      </trkpt>
      <trkpt lat="44.31701" lon="3.59817">
        <ele>559.62</ele>
        <time>2015-05-10T16:14:24Z</time>
      </trkpt>
      <trkpt lat="44.31714" lon="3.59819">
        <ele>559.14</ele>
        <time>2015-05-10T16:14:36Z</time>
      </trkpt>
      <trkpt lat="44.31721" lon="3.59818">
        <ele>559.14</ele>
        <time>2015-05-10T16:14:44Z</time>
      </trkpt>
      <trkpt lat="44.31737" lon="3.59815">
        <ele>559.14</ele>
        <time>2015-05-10T16:14:58Z</time>
      </trkpt>
      <trkpt lat="44.3175" lon="3.59812">
        <ele>559.14</ele>
        <time>2015-05-10T16:15:12Z</time>
      </trkpt>
      <trkpt lat="44.31763" lon="3.5981">
        <ele>559.14</ele>
        <time>2015-05-10T16:15:26Z</time>
      </trkpt>
      <trkpt lat="44.31778" lon="3.59806">
        <ele>561.07</ele>
        <time>2015-05-10T16:15:40Z</time>
      </trkpt>
      <trkpt lat="44.318" lon="3.59806">
        <ele>560.59</ele>
        <time>2015-05-10T16:15:55Z</time>
      </trkpt>
      <trkpt lat="44.31818" lon="3.598">
        <ele>560.59</ele>
        <time>2015-05-10T16:16:12Z</time>
      </trkpt>
      <trkpt lat="44.31842" lon="3.59792">
        <ele>560.11</ele>
        <time>2015-05-10T16:16:28Z</time>
      </trkpt>
      <trkpt lat="44.31851" lon="3.59791">
        <ele>559.62</ele>
        <time>2015-05-10T16:16:36Z</time>
      </trkpt>
      <trkpt lat="44.31854" lon="3.5979">
        <ele>560.11</ele>
        <time>2015-05-10T16:16:39Z</time>
      </trkpt>
      <trkpt lat="44.31871" lon="3.59785">
        <ele>559.62</ele>
        <time>2015-05-10T16:16:56Z</time>
      </trkpt>
      <trkpt lat="44.31888" lon="3.59793">
        <ele>560.11</ele>
        <time>2015-05-10T16:17:11Z</time>
      </trkpt>
      <trkpt lat="44.31892" lon="3.59791">
        <ele>559.62</ele>
        <time>2015-05-10T16:17:17Z</time>
      </trkpt>
      <trkpt lat="44.31896" lon="3.59785">
        <ele>559.14</ele>
        <time>2015-05-10T16:17:22Z</time>
      </trkpt>
      <trkpt lat="44.31902" lon="3.59779">
        <ele>559.14</ele>
        <time>2015-05-10T16:17:28Z</time>
      </trkpt>
      <trkpt lat="44.31919" lon="3.59764">
        <ele>558.18</ele>
        <time>2015-05-10T16:17:44Z</time>
      </trkpt>
      <trkpt lat="44.3193" lon="3.59756">
        <ele>558.66</ele>
        <time>2015-05-10T16:17:54Z</time>
      </trkpt>
      <trkpt lat="44.3195" lon="3.59749">
        <ele>558.18</ele>
        <time>2015-05-10T16:18:11Z</time>
      </trkpt>
      <trkpt lat="44.3197" lon="3.59741">
        <ele>557.7</ele>
        <time>2015-05-10T16:18:27Z</time>
      </trkpt>
      <trkpt lat="44.31987" lon="3.5973">
        <ele>558.18</ele>
        <time>2015-05-10T16:18:41Z</time>
      </trkpt>
      <trkpt lat="44.31993" lon="3.59725">
        <ele>558.18</ele>
        <time>2015-05-10T16:18:49Z</time>
      </trkpt>
      <trkpt lat="44.32008" lon="3.59717">
        <ele>557.7</ele>
        <time>2015-05-10T16:19:02Z</time>
      </trkpt>
      <trkpt lat="44.3202" lon="3.59711">
        <ele>557.7</ele>
        <time>2015-05-10T16:19:12Z</time>
      </trkpt>
      <trkpt lat="44.32034" lon="3.59698">
        <ele>557.22</ele>
        <time>2015-05-10T16:19:27Z</time>
      </trkpt>
      <trkpt lat="44.32046" lon="3.59686">
        <ele>557.22</ele>
        <time>2015-05-10T16:19:41Z</time>
      </trkpt>
      <trkpt lat="44.32059" lon="3.59685">
        <ele>557.22</ele>
        <time>2015-05-10T16:19:49Z</time>
      </trkpt>
      <trkpt lat="44.32072" lon="3.59694">
        <ele>557.22</ele>
        <time>2015-05-10T16:19:53Z</time>
      </trkpt>
      <trkpt lat="44.32082" lon="3.5972">
        <ele>557.22</ele>
        <time>2015-05-10T16:20:07Z</time>
      </trkpt>
      <trkpt lat="44.32088" lon="3.5974">
        <ele>556.74</ele>
        <time>2015-05-10T16:20:19Z</time>
      </trkpt>
      <trkpt lat="44.32089" lon="3.5976">
        <ele>556.74</ele>
        <time>2015-05-10T16:20:33Z</time>
      </trkpt>
      <trkpt lat="44.32088" lon="3.59762">
        <ele>556.26</ele>
        <time>2015-05-10T16:20:35Z</time>
      </trkpt>
      <trkpt lat="44.32086" lon="3.59769">
        <ele>556.26</ele>
        <time>2015-05-10T16:20:39Z</time>
      </trkpt>
      <trkpt lat="44.32088" lon="3.59779">
        <ele>555.78</ele>
        <time>2015-05-10T16:20:46Z</time>
      </trkpt>
      <trkpt lat="44.321" lon="3.59788">
        <ele>555.78</ele>
        <time>2015-05-10T16:20:54Z</time>
      </trkpt>
      <trkpt lat="44.32104" lon="3.59787">
        <ele>555.78</ele>
        <time>2015-05-10T16:20:59Z</time>
      </trkpt>
      <trkpt lat="44.32108" lon="3.59784">
        <ele>555.3</ele>
        <time>2015-05-10T16:21:12Z</time>
      </trkpt>
      <trkpt lat="44.32113" lon="3.59787">
        <ele>555.3</ele>
        <time>2015-05-10T16:21:18Z</time>
      </trkpt>
      <trkpt lat="44.32115" lon="3.59789">
        <ele>555.78</ele>
        <time>2015-05-10T16:21:21Z</time>
      </trkpt>
      <trkpt lat="44.32119" lon="3.5979">
        <ele>555.78</ele>
        <time>2015-05-10T16:21:32Z</time>
      </trkpt>
      <trkpt lat="44.32119" lon="3.5979">
        <ele>555.78</ele>
        <time>2015-05-10T16:21:35Z</time>
      </trkpt>
      <trkpt lat="44.32114" lon="3.59794">
        <ele>555.78</ele>
        <time>2015-05-10T16:21:46Z</time>
      </trkpt>
      <trkpt lat="44.32114" lon="3.59793">
        <ele>556.26</ele>
        <time>2015-05-10T16:22:01Z</time>
      </trkpt>
      <trkpt lat="44.32114" lon="3.59792">
        <ele>555.78</ele>
        <time>2015-05-10T16:22:23Z</time>
      </trkpt>
    </trkseg>
  </trk>
</gpx>